[[{"header":{"parameterUnit":"m.s-1","parameterCategory":1,"la1":31.0,"la2":29.5877,"lo1":-88.7671,"lo2":-86.6584,"dx":0.0162,"dy":0.0185,"nx":115,"ny":88,"refTime":"2023-02-01T18:00:00:Z","depth":0,"parameterNumber":2,"parameterNumberName":"U-component_of_WINDS"},"data":[0.0,0.0,0.0,0.0,0.0,0.0,0.0,0.0,0.0,0.0,0.0,0.0,0.0,0.0,0.0,0.0,0.0,0.0,0.0,0.0,0.0,0.0,0.0,0.0,0.0,0.0,0.0,0.0,0.0,0.0,0.0,0.0,0.0,0.0,0.0,0.0,0.0,0.0,0.0,0.0,0.0,0.0,0.0,0.0,0.0,0.0,0.0,0.0,0.0,0.0,0.0,0.0,0.0,0.0,0.0,0.0,0.0,0.0,0.0,0.0,0.0,0.0,0.0,0.0,0.0,0.0,0.0,0.0,0.0,0.0,0.0,0.0,0.0,0.0,0.0,0.0,0.0,0.0,0.0,0.0,0.0,0.0,0.0,0.0,0.0,0.0,0.0,0.0,0.0,0.0,0.0,0.0,0.0,0.0,0.0,0.0,0.0,0.0,0.0,0.0,0.0,0.0,0.0,0.0,0.0,0.0,0.0,0.0,0.0,0.0,0.0,0.0,0.0,0.0,0.0,0.0,0.0,0.0,0.0,0.0,0.0,0.0,0.0,0.0,0.0,0.0,0.0,0.0,0.0,0.0,0.0,0.0,0.0,0.0,0.0,0.0,0.0,0.0,0.0,0.0,0.0,0.0,0.0,0.0,0.0,0.0,0.0,0.0,0.0,0.0,0.0,0.0,0.0,0.0,0.0,0.0,0.0,0.0,0.0,0.0,0.0,0.0,0.0,0.0,0.0,0.0,0.0,0.0,0.0,0.0,0.0,0.0,0.0,0.0,0.0,0.0,0.0,0.0,0.0,0.0,0.0,0.0,0.0,0.0,0.0,0.0,0.0,0.0,0.0,0.0,0.0,0.0,0.0,0.0,0.0,0.0,0.0,0.0,0.0,0.0,0.0,0.0,0.0,0.0,0.0,0.0,0.0,0.0,0.0,0.0,0.0,0.0,0.0,0.0,0.0,0.0,0.0,0.0,0.0,0.0,0.0,0.0,0.0,0.0,0.0,0.0,0.0,0.0,0.0,0.0,0.0,0.0,0.0,0.0,0.0,0.0,0.0,0.0,0.0,0.0,0.0,0.0,0.0,0.0,0.0,0.0,0.0,0.0,0.0,0.0,0.0,0.0,0.0,0.0,0.0,0.0,0.0,0.0,0.0,0.0,0.0,0.0,0.0,0.0,0.0,0.0,0.0,0.0,0.0,0.0,0.0,0.0,0.0,0.0,0.0,0.0,0.0,0.0,0.0,0.0,0.0,0.0,0.0,0.0,0.0,0.0,0.0,0.0,0.0,0.0,0.0,0.0,0.0,0.0,0.0,0.0,0.0,0.0,0.0,0.0,0.0,0.0,0.0,0.0,0.0,0.0,0.0,0.0,0.0,0.0,0.0,0.0,0.0,0.0,0.0,0.0,0.0,0.0,0.0,0.0,0.0,0.0,0.0,0.0,0.0,0.0,0.0,0.0,0.0,0.0,0.0,0.0,0.0,0.0,0.0,0.0,0.0,0.0,0.0,0.0,0.0,0.0,0.0,0.0,0.0,0.0,0.0,0.0,0.0,0.0,0.0,0.0,0.0,0.0,0.0,0.0,0.0,0.0,0.0,0.0,0.0,0.0,0.0,0.0,0.0,0.0,0.0,0.0,0.0,0.0,0.0,0.0,0.0,0.0,0.0,0.0,0.0,0.0,0.0,0.0,0.0,0.0,0.0,0.0,0.0,0.0,0.0,0.0,0.0,0.0,0.0,0.0,0.0,0.0,0.0,0.0,0.0,0.0,0.0,0.0,0.0,0.0,0.0,0.0,0.0,0.0,0.0,0.0,0.0,0.0,0.0,0.0,0.0,0.0,0.0,0.0,0.0,0.0,0.0,0.0,0.0,0.0,0.0,0.0,0.0,0.0,0.0,0.0,0.0,0.0,0.0,0.0,0.0,0.0,0.0,0.0,0.0,0.0,0.0,0.0,0.0,0.0,0.0,0.0,0.0,0.0,0.0,0.0,0.0,0.0,0.0,0.0,0.0,0.0,0.0,0.0,0.0,0.0,0.0,0.0,0.0,0.0,0.0,0.0,0.0,0.0,0.0,0.0,0.0,0.0,0.0,0.0,0.0,0.0,0.0,0.0,0.0,0.0,0.0,0.0,0.0,0.0,0.0,0.0,0.0,0.0,0.0,0.0,0.0,0.0,0.0,0.0,0.0,0.0,0.0,0.0,0.0,0.0,0.0,0.0,0.0,0.0,0.0,0.0,0.0,0.0,0.0,0.0,0.0,0.0,0.0,0.0,0.0,0.0,0.0,0.0,0.0,0.0,0.0,0.0,0.0,0.0,0.0,0.0,0.0,0.0,0.0,0.0,0.0,0.0,0.0,0.0,0.0,0.0,0.0,0.0,0.0,0.0,0.0,0.0,0.0,0.0,0.0,0.0,0.0,0.0,0.0,0.0,0.0,0.0,0.0,0.0,0.0,0.0,0.0,0.0,0.0,0.0,0.0,0.0,0.0,0.0,0.0,0.0,0.0,0.0,0.0,0.0,0.0,0.0,0.0,0.0,0.0,0.0,0.0,0.0,0.0,0.0,0.0,0.0,0.0,0.0,0.0,0.0,0.0,0.0,0.0,0.0,0.0,0.0,0.0,0.0,0.0,0.0,0.0,0.0,0.0,0.0,0.0,0.0,0.0,0.0,0.0,0.0,0.0,0.0,0.0,0.0,0.0,0.0,0.0,0.0,0.0,0.0,0.0,0.0,0.0,0.0,0.0,0.0,0.0,0.0,0.0,0.0,0.0,0.0,0.0,0.0,0.0,0.0,0.0,0.0,0.0,0.0,0.0,0.0,0.0,0.0,0.0,0.0,0.0,0.0,0.0,0.0,0.0,0.0,0.0,0.0,0.0,0.0,0.0,0.0,0.0,0.0,0.0,0.0,0.0,0.0,0.0,0.0,0.0,0.0,0.0,0.0,0.0,0.0,0.0,0.0,0.0,0.0,0.0,0.0,0.0,0.0,0.0,0.0,0.0,0.0,0.0,0.0,0.0,0.0,0.0,0.0,0.0,0.0,0.0,0.0,0.0,0.0,0.0,0.0,0.0,0.0,0.0,0.0,0.0,0.0,0.0,0.0,0.0,0.0,0.0,0.0,0.0,0.0,0.0,0.0,0.0,0.0,0.0,0.0,0.0,0.0,0.0,0.0,0.0,0.0,0.0,0.0,0.0,0.0,0.0,0.0,0.0,0.0,0.0,0.0,0.0,0.0,0.0,0.0,0.0,0.0,0.0,0.0,0.0,0.0,0.0,0.0,0.0,0.0,0.0,0.0,0.0,0.0,0.0,0.0,0.0,0.0,0.0,0.0,0.0,0.0,0.0,0.0,0.0,0.0,0.0,0.0,0.0,0.0,0.0,0.0,0.0,0.0,0.0,0.0,0.0,0.0,0.0,0.0,0.0,0.0,0.0,0.0,0.0,0.0,0.0,0.0,0.0,0.0,0.0,0.0,0.0,0.0,0.0,0.0,0.0,0.0,0.0,0.0,0.0,0.0,0.0,0.0,0.0,0.0,0.0,0.0,0.0,0.0,0.0,0.0,0.0,0.0,0.0,0.0,0.0,0.0,0.0,0.0,0.0,0.0,0.0,0.0,0.0,0.0,0.0,0.0,0.0,0.0,0.0,0.0,0.0,0.0,0.0,0.0,0.0,0.0,0.0,0.0,0.0,0.0,0.0,0.0,0.0,0.0,0.0,0.0,0.0,0.0,0.0,0.0,0.0,0.0,0.0,0.0,0.0,0.0,0.0,0.0,0.0,0.0,0.0,0.0,0.0,0.0,0.0,0.0,0.0,0.0,0.0,0.0,0.0,0.0,0.0,0.0,0.0,0.0,0.0,0.0,0.0,0.0,0.0,0.0,0.0,0.0,0.0,0.0,0.0,0.0,0.0,0.0,0.0,0.0,0.0,0.0,0.0,0.0,0.0,0.0,0.0,0.0,0.0,0.0,0.0,0.0,0.0,0.0,0.0,0.0,0.0,0.0,0.0,0.0,0.0,0.0,0.0,0.0,0.0,0.0,0.0,0.0,0.0,0.0,0.0,0.0,0.0,0.0,0.0,0.0,0.0,0.0,0.0,0.0,0.0,0.0,0.0,0.0,0.0,0.0,0.0,0.0,0.0,0.0,0.0,0.0,0.0,0.0,0.0,0.0,0.0,0.0,0.0,0.0,0.0,0.0,0.0,0.0,0.0,0.0,0.0,0.0,0.0,0.0,0.0,0.0,0.0,0.0,0.0,0.0,0.0,0.0,0.0,0.0,2.1164,0.0,0.0,0.0,0.0,0.0,0.0,0.0,0.0,0.0,0.0,0.0,0.0,0.0,0.0,0.0,0.0,0.0,0.0,0.0,0.0,0.0,0.0,0.0,0.0,0.0,0.0,0.0,0.0,0.0,0.0,0.0,0.0,0.0,0.0,0.0,0.0,0.0,0.0,0.0,0.0,0.0,0.0,0.0,0.0,0.0,0.0,0.0,0.0,0.0,0.0,0.0,0.0,0.0,0.0,0.0,0.0,0.0,0.0,0.0,0.0,0.0,0.0,0.0,0.0,0.0,0.0,0.0,0.0,0.0,0.0,0.0,0.0,0.0,0.0,0.0,0.0,0.0,0.0,0.0,0.0,0.0,0.0,0.0,0.0,0.0,0.0,0.0,0.0,0.0,0.0,0.0,0.0,0.0,0.0,0.0,0.0,0.0,0.0,0.0,0.0,0.0,0.0,0.0,0.0,0.0,0.0,0.0,0.0,0.0,0.0,2.3102,2.2712,2.2689,2.2443,2.1939,0.0,0.0,0.0,0.0,0.0,0.0,0.0,0.0,0.0,0.0,0.0,0.0,0.0,0.0,0.0,0.0,0.0,0.0,0.0,0.0,0.0,0.0,0.0,0.0,0.0,0.0,0.0,0.0,0.0,0.0,0.0,0.0,0.0,0.0,0.0,0.0,0.0,0.0,0.0,0.0,0.0,0.0,0.0,0.0,0.0,0.0,0.0,0.0,0.0,0.0,0.0,0.0,0.0,0.0,0.0,0.0,0.0,0.0,0.0,0.0,0.0,0.0,0.0,0.0,0.0,0.0,0.0,0.0,0.0,0.0,0.0,0.0,0.0,0.0,0.0,0.0,0.0,0.0,0.0,0.0,0.0,0.0,0.0,0.0,0.0,0.0,0.0,0.0,0.0,0.0,0.0,0.0,0.0,0.0,0.0,0.0,0.0,0.0,0.0,0.0,0.0,0.0,0.0,0.0,0.0,0.0,0.0,0.0,0.0,0.0,0.0,0.0,2.3489,2.3403,2.2587,0.0,0.0,0.0,0.0,0.0,0.0,0.0,0.0,0.0,0.0,0.0,0.0,0.0,0.0,0.0,0.0,0.0,0.0,0.0,0.0,0.0,0.0,0.0,0.0,0.0,0.0,0.0,0.0,0.0,0.0,0.0,0.0,0.0,0.0,0.0,0.0,0.0,0.0,0.0,0.0,0.0,0.0,0.0,0.0,0.0,0.0,0.0,0.0,0.0,0.0,0.0,0.0,0.0,0.0,0.0,0.0,0.0,0.0,0.0,0.0,0.0,0.0,0.0,0.0,0.0,0.0,0.0,0.0,0.0,0.0,0.0,0.0,0.0,0.0,0.0,0.0,0.0,0.0,0.0,0.0,0.0,0.0,0.0,0.0,0.0,0.0,0.0,0.0,0.0,0.0,0.0,0.0,0.0,0.0,0.0,0.0,0.0,0.0,0.0,0.0,0.0,0.0,0.0,0.0,0.0,0.0,0.0,0.0,0.0,0.0,2.3769,2.3692,2.3705,0.0,2.2971,0.0,0.0,0.0,0.0,0.0,0.0,0.0,0.0,0.0,0.0,0.0,0.0,0.0,0.0,0.0,0.0,0.0,0.0,0.0,0.0,0.0,0.0,0.0,0.0,0.0,0.0,0.0,0.0,0.0,0.0,0.0,0.0,0.0,0.0,0.0,0.0,0.0,0.0,0.0,0.0,0.0,0.0,0.0,0.0,0.0,0.0,0.0,0.0,0.0,0.0,0.0,0.0,0.0,0.0,0.0,0.0,0.0,0.0,0.0,0.0,0.0,0.0,0.0,0.0,0.0,0.0,0.0,0.0,0.0,0.0,0.0,0.0,0.0,0.0,0.0,0.0,0.0,0.0,0.0,0.0,0.0,0.0,0.0,0.0,0.0,0.0,0.0,0.0,0.0,0.0,0.0,0.0,0.0,0.0,0.0,0.0,0.0,0.0,0.0,0.0,0.0,0.0,0.0,0.0,0.0,0.0,0.0,0.0,0.0,0.0,2.3795,2.3795,2.3678,2.3366,0.0,0.0,0.0,0.0,0.0,0.0,0.0,0.0,0.0,0.0,0.0,0.0,0.0,0.0,0.0,0.0,0.0,0.0,0.0,0.0,0.0,0.0,0.0,0.0,0.0,0.0,0.0,0.0,0.0,0.0,0.0,0.0,0.0,0.0,0.0,0.0,0.0,0.0,0.0,0.0,0.0,0.0,0.0,0.0,0.0,0.0,0.0,0.0,0.0,0.0,0.0,0.0,0.0,0.0,0.0,0.0,0.0,0.0,0.0,0.0,0.0,0.0,0.0,0.0,0.0,0.0,0.0,0.0,0.0,0.0,0.0,0.0,0.0,0.0,0.0,0.0,0.0,0.0,0.0,0.0,0.0,0.0,0.0,0.0,0.0,0.0,0.0,0.0,0.0,0.0,0.0,0.0,0.0,0.0,0.0,0.0,0.0,0.0,0.0,0.0,0.0,0.0,0.0,0.0,0.0,0.0,0.0,0.0,0.0,0.0,2.3766,2.3808,2.3766,2.3571,2.3265,2.2823,0.0,0.0,0.0,0.0,0.0,0.0,0.0,0.0,0.0,0.0,0.0,0.0,0.0,0.0,0.0,0.0,0.0,0.0,0.0,0.0,0.0,0.0,0.0,0.0,0.0,0.0,0.0,0.0,0.0,0.0,0.0,0.0,0.0,0.0,0.0,0.0,0.0,0.0,0.0,0.0,0.0,0.0,0.0,0.0,0.0,0.0,0.0,0.0,0.0,0.0,0.0,0.0,0.0,0.0,0.0,0.0,0.0,0.0,0.0,0.0,0.0,0.0,0.0,0.0,0.0,0.0,0.0,0.0,0.0,0.0,0.0,0.0,0.0,0.0,0.0,0.0,0.0,0.0,0.0,0.0,0.0,0.0,0.0,0.0,0.0,0.0,0.0,0.0,0.0,0.0,0.0,0.0,0.0,0.0,0.0,0.0,0.0,0.0,0.0,0.0,0.0,0.0,0.0,0.0,0.0,0.0,0.0,0.0,2.37,2.3784,2.3771,2.3711,2.351,2.3223,0.0,0.0,0.0,0.0,0.0,0.0,0.0,0.0,0.0,0.0,0.0,0.0,0.0,0.0,0.0,0.0,0.0,0.0,0.0,0.0,0.0,0.0,0.0,0.0,0.0,0.0,0.0,0.0,0.0,0.0,0.0,0.0,0.0,0.0,0.0,0.0,0.0,0.0,0.0,0.0,0.0,0.0,0.0,0.0,0.0,0.0,0.0,0.0,0.0,0.0,0.0,0.0,0.0,0.0,0.0,0.0,0.0,0.0,0.0,0.0,0.0,0.0,0.0,0.0,0.0,0.0,0.0,0.0,0.0,0.0,0.0,0.0,0.0,0.0,0.0,0.0,0.0,0.0,0.0,0.0,0.0,0.0,0.0,0.0,0.0,0.0,0.0,0.0,0.0,0.0,0.0,0.0,0.0,0.0,0.0,0.0,0.0,0.0,0.0,0.0,0.0,0.0,0.0,0.0,0.0,0.0,0.0,0.0,0.0,2.3694,2.3771,2.3771,2.37,2.3504,2.3187,0.0,0.0,0.0,0.0,0.0,0.0,0.0,0.0,0.0,0.0,0.0,0.0,0.0,0.0,0.0,0.0,0.0,0.0,0.0,0.0,0.0,0.0,0.0,0.0,0.0,0.0,0.0,0.0,0.0,0.0,0.0,0.0,0.0,0.0,0.0,0.0,0.0,0.0,0.0,0.0,0.0,0.0,0.0,0.0,0.0,0.0,0.0,0.0,0.0,0.0,0.0,0.0,0.0,0.0,0.0,0.0,0.0,0.0,0.0,0.0,0.0,0.0,0.0,0.0,0.0,0.0,0.0,0.0,0.0,0.0,0.0,0.0,0.0,0.0,0.0,0.0,0.0,0.0,0.0,0.0,0.0,0.0,0.0,0.0,0.0,0.0,0.0,0.0,0.0,0.0,0.0,0.0,0.0,0.0,0.0,0.0,0.0,0.0,0.0,0.0,0.0,0.0,0.0,0.0,0.0,0.0,0.0,0.0,0.0,2.338,0.0,2.3288,2.2957,2.2994,2.2787,0.0,0.0,0.0,0.0,0.0,0.0,0.0,0.0,0.0,0.0,0.0,0.0,0.0,0.0,0.0,0.0,0.0,0.0,0.0,0.0,0.0,0.0,0.0,0.0,0.0,0.0,0.0,0.0,0.0,0.0,0.0,0.0,0.0,0.0,0.0,0.0,0.0,0.0,0.0,0.0,0.0,0.0,0.0,0.0,0.0,0.0,0.0,0.0,0.0,0.0,0.0,0.0,0.0,0.0,0.0,0.0,0.0,0.0,0.0,0.0,0.0,0.0,0.0,0.0,0.0,0.0,0.0,0.0,0.0,0.0,0.0,0.0,0.0,0.0,0.0,0.0,0.0,0.0,0.0,0.0,0.0,0.0,0.0,0.0,0.0,0.0,0.0,0.0,0.0,0.0,0.0,0.0,0.0,0.0,0.0,0.0,0.0,0.0,0.0,0.0,0.0,0.0,0.0,0.0,0.0,0.0,0.0,0.0,2.3251,2.2735,2.2724,2.2355,2.1462,2.1907,2.1961,0.0,0.0,0.0,0.0,0.0,0.0,0.0,0.0,0.0,0.0,0.0,0.0,0.0,0.0,0.0,0.0,0.0,0.0,0.0,0.0,0.0,0.0,0.0,0.0,0.0,0.0,0.0,0.0,0.0,0.0,0.0,0.0,0.0,0.0,0.0,0.0,0.0,0.0,0.0,0.0,0.0,0.0,0.0,0.0,0.0,0.0,0.0,0.0,0.0,0.0,0.0,0.0,0.0,0.0,0.0,0.0,0.0,0.0,0.0,0.0,0.0,0.0,0.0,0.0,0.0,0.0,0.0,0.0,0.0,0.0,0.0,0.0,0.0,0.0,0.0,0.0,0.0,0.0,0.0,0.0,0.0,0.0,0.0,0.0,0.0,0.0,0.0,0.0,0.0,0.0,0.0,0.0,0.0,0.0,0.0,0.0,0.0,0.0,0.0,0.0,0.0,0.0,0.0,0.0,0.0,0.0,0.0,0.0,0.0,2.2727,2.2738,2.2333,2.1472,2.1904,2.2025,0.0,0.0,0.0,0.0,0.0,0.0,0.0,0.0,0.0,0.0,0.0,0.0,0.0,0.0,0.0,0.0,0.0,0.0,0.0,0.0,0.0,0.0,0.0,0.0,0.0,0.0,0.0,0.0,0.0,0.0,0.0,0.0,0.0,0.0,0.0,0.0,0.0,0.0,0.0,0.0,0.0,0.0,0.0,0.0,0.0,0.0,0.0,0.0,0.0,0.0,0.0,0.0,0.0,0.0,0.0,0.0,0.0,0.0,0.0,0.0,0.0,0.0,0.0,0.0,0.0,0.0,0.0,0.0,0.0,0.0,0.0,0.0,0.0,0.0,0.0,0.0,0.0,0.0,0.0,0.0,0.0,0.0,0.0,0.0,0.0,0.0,0.0,0.0,0.0,0.0,0.0,0.0,0.0,0.0,0.0,0.0,0.0,0.0,0.0,0.0,0.0,0.0,0.0,0.0,0.0,0.0,0.0,0.0,0.0,2.279,2.25,2.1812,2.0635,2.1077,2.133,2.1288,0.0,0.0,0.0,0.0,0.0,0.0,0.0,0.0,0.0,0.0,0.0,0.0,0.0,0.0,0.0,0.0,0.0,0.0,0.0,0.0,0.0,0.0,0.0,0.0,0.0,0.0,0.0,0.0,0.0,0.0,0.0,0.0,0.0,0.0,0.0,0.0,0.0,0.0,0.0,0.0,0.0,0.0,0.0,0.0,0.0,0.0,0.0,0.0,0.0,0.0,0.0,0.0,0.0,0.0,0.0,0.0,0.0,0.0,0.0,0.0,0.0,0.0,0.0,0.0,0.0,0.0,0.0,0.0,0.0,0.0,0.0,0.0,0.0,0.0,0.0,0.0,0.0,0.0,0.0,0.0,0.0,0.0,0.0,0.0,0.0,0.0,0.0,0.0,0.0,0.0,0.0,0.0,0.0,0.0,0.0,0.0,0.0,0.0,0.0,0.0,0.0,0.0,0.0,0.0,0.0,0.0,0.0,0.0,2.2909,2.2104,2.0959,1.9469,1.9763,2.0118,0.0,0.0,0.0,0.0,0.0,0.0,0.0,0.0,0.0,0.0,0.0,0.0,0.0,0.0,0.0,0.0,0.0,0.0,0.0,0.0,0.0,0.0,0.0,0.0,0.0,0.0,0.0,0.0,0.0,0.0,0.0,0.0,0.0,0.0,0.0,0.0,0.0,0.0,0.0,0.0,0.0,0.0,0.0,0.0,0.0,0.0,0.0,0.0,0.0,0.0,0.0,0.0,0.0,0.0,0.0,0.0,0.0,0.0,0.0,0.0,0.0,0.0,0.0,0.0,0.0,0.0,0.0,0.0,0.0,0.0,0.0,0.0,0.0,0.0,0.0,0.0,0.0,0.0,0.0,0.0,0.0,0.0,0.0,0.0,0.0,0.0,0.0,0.0,0.0,0.0,0.0,0.0,0.0,0.0,0.0,0.0,0.0,0.0,0.0,0.0,0.0,0.0,0.0,0.0,0.0,0.0,0.0,0.0,0.0,2.2937,2.2717,2.1869,2.0321,2.0079,2.0205,0.0,0.0,0.0,0.0,0.0,0.0,0.0,0.0,0.0,0.0,0.0,0.0,0.0,0.0,0.0,0.0,0.0,0.0,0.0,0.0,0.0,0.0,0.0,0.0,0.0,0.0,0.0,0.0,0.0,0.0,0.0,0.0,0.0,0.0,0.0,0.0,0.0,0.0,0.0,0.0,0.0,0.0,0.0,0.0,0.0,0.0,0.0,0.0,0.0,0.0,0.0,0.0,0.0,0.0,0.0,0.0,0.0,0.0,0.0,0.0,0.0,0.0,0.0,0.0,0.0,0.0,0.0,0.0,0.0,0.0,0.0,0.0,0.0,0.0,0.0,0.0,0.0,0.0,0.0,0.0,0.0,0.0,0.0,0.0,0.0,0.0,0.0,0.0,0.0,0.0,0.0,0.0,0.0,0.0,0.0,0.0,0.0,0.0,0.0,0.0,0.0,0.0,0.0,0.0,0.0,0.0,0.0,0.0,2.3734,2.346,2.3148,2.2399,2.1134,2.0395,2.0219,0.0,0.0,0.0,0.0,0.0,0.0,0.0,0.0,0.0,0.0,0.0,0.0,0.0,0.0,0.0,0.0,0.0,0.0,0.0,0.0,0.0,0.0,0.0,0.0,0.0,0.0,0.0,0.0,0.0,0.0,0.0,0.0,0.0,0.0,0.0,0.0,0.0,0.0,0.0,0.0,0.0,0.0,0.0,0.0,0.0,0.0,0.0,0.0,0.0,0.0,0.0,0.0,0.0,0.0,0.0,0.0,0.0,0.0,0.0,0.0,0.0,0.0,0.0,0.0,0.0,0.0,0.0,0.0,0.0,0.0,0.0,0.0,0.0,0.0,0.0,0.0,0.0,0.0,0.0,0.0,0.0,0.0,0.0,0.0,0.0,0.0,0.0,0.0,0.0,0.0,0.0,0.0,0.0,0.0,0.0,0.0,0.0,0.0,0.0,0.0,0.0,0.0,0.0,0.0,0.0,0.0,0.0,0.0,2.3935,2.4157,2.3497,2.2701,2.1804,2.0707,2.0266,0.0,0.0,0.0,0.0,0.0,0.0,0.0,0.0,0.0,0.0,0.0,0.0,0.0,0.0,0.0,0.0,0.0,0.0,0.0,0.0,0.0,0.0,0.0,0.0,0.0,0.0,0.0,0.0,0.0,0.0,0.0,0.0,0.0,0.0,0.0,0.0,0.0,0.0,0.0,0.0,0.0,0.0,0.0,0.0,0.0,0.0,0.0,0.0,0.0,0.0,0.0,0.0,0.0,0.0,0.0,0.0,0.0,0.0,0.0,0.0,0.0,0.0,0.0,0.0,0.0,0.0,0.0,0.0,0.0,0.0,0.0,0.0,0.0,0.0,0.0,0.0,0.0,0.0,0.0,0.0,0.0,0.0,0.0,0.0,0.0,0.0,0.0,0.0,0.0,0.0,0.0,0.0,0.0,0.0,0.0,0.0,0.0,0.0,0.0,0.0,0.0,0.0,0.0,0.0,0.0,0.0,0.0,0.0,2.392,2.4103,2.3958,2.3212,2.1825,2.0797,2.0375,0.0,0.0,0.0,0.0,0.0,0.0,0.0,0.0,0.0,0.0,0.0,0.0,0.0,0.0,0.0,0.0,0.0,0.0,0.0,0.0,0.0,0.0,0.0,0.0,0.0,0.0,0.0,0.0,0.0,0.0,0.0,0.0,0.0,0.0,0.0,0.0,0.0,0.0,0.0,0.0,0.0,0.0,0.0,0.0,0.0,0.0,0.0,0.0,1.926,0.0,0.0,0.0,0.0,0.0,0.0,0.0,0.0,0.0,0.0,0.0,0.0,0.0,0.0,0.0,0.0,0.0,0.0,0.0,0.0,0.0,0.0,0.0,0.0,0.0,0.0,0.0,0.0,0.0,0.0,0.0,0.0,0.0,0.0,0.0,0.0,0.0,0.0,0.0,0.0,0.0,0.0,0.0,0.0,0.0,0.0,0.0,0.0,0.0,0.0,0.0,0.0,0.0,0.0,0.0,0.0,0.0,0.0,0.0,2.4219,2.4102,2.4117,2.3363,2.18,2.0779,2.0351,0.0,0.0,0.0,0.0,0.0,0.0,0.0,0.0,0.0,0.0,0.0,0.0,0.0,0.0,0.0,0.0,0.0,0.0,0.0,0.0,0.0,0.0,0.0,0.0,0.0,0.0,0.0,0.0,0.0,0.0,0.0,0.0,0.0,0.0,0.0,0.0,0.0,0.0,0.0,0.0,0.0,0.0,0.0,0.0,0.0,0.0,0.0,0.0,0.0,0.0,0.0,0.0,0.0,0.0,0.0,0.0,0.0,0.0,0.0,0.0,0.0,0.0,0.0,0.0,0.0,0.0,0.0,0.0,0.0,0.0,0.0,0.0,0.0,0.0,0.0,0.0,0.0,0.0,0.0,0.0,0.0,0.0,0.0,0.0,0.0,0.0,0.0,0.0,0.0,0.0,0.0,0.0,0.0,0.0,0.0,0.0,0.0,0.0,0.0,0.0,0.0,0.0,0.0,0.0,0.0,0.0,0.0,2.439,2.4624,2.4278,2.4124,2.3316,2.172,2.0699,2.0292,2.0494,0.0,0.0,0.0,0.0,0.0,0.0,0.0,0.0,0.0,0.0,0.0,0.0,0.0,0.0,0.0,0.0,0.0,0.0,0.0,0.0,0.0,0.0,0.0,0.0,0.0,0.0,0.0,0.0,0.0,0.0,0.0,0.0,0.0,0.0,0.0,0.0,0.0,0.0,1.9677,1.9719,0.0,0.0,0.0,0.0,0.0,0.0,0.0,0.0,1.8892,0.0,0.0,0.0,0.0,0.0,0.0,0.0,0.0,0.0,0.0,0.0,0.0,0.0,0.0,0.0,0.0,0.0,0.0,0.0,0.0,0.0,0.0,0.0,0.0,0.0,0.0,0.0,0.0,0.0,0.0,0.0,0.0,0.0,0.0,0.0,0.0,0.0,0.0,0.0,0.0,0.0,0.0,0.0,0.0,0.0,0.0,0.0,0.0,0.0,0.0,0.0,0.0,0.0,0.0,0.0,0.0,2.4294,2.4694,2.4895,2.4917,2.4273,2.3176,2.1589,2.0598,2.0273,2.0541,0.0,0.0,0.0,0.0,0.0,0.0,0.0,0.0,0.0,0.0,0.0,0.0,0.0,0.0,0.0,0.0,0.0,0.0,0.0,0.0,0.0,0.0,0.0,0.0,0.0,0.0,0.0,0.0,0.0,0.0,0.0,0.0,0.0,0.0,0.0,0.0,0.0,0.0,0.0,1.9718,1.969,0.0,0.0,0.0,0.0,0.0,0.0,0.0,0.0,1.8872,0.0,0.0,0.0,0.0,0.0,0.0,0.0,0.0,0.0,0.0,0.0,0.0,0.0,0.0,0.0,0.0,0.0,0.0,0.0,0.0,0.0,0.0,0.0,0.0,0.0,0.0,0.0,0.0,0.0,0.0,0.0,0.0,0.0,0.0,0.0,0.0,0.0,0.0,0.0,0.0,0.0,0.0,0.0,0.0,0.0,0.0,0.0,0.0,0.0,0.0,0.0,0.0,0.0,0.0,0.0,2.4447,2.5135,2.5353,2.5085,2.4322,2.3118,2.1538,2.015,1.9762,0.0,0.0,0.0,0.0,0.0,0.0,0.0,0.0,0.0,0.0,0.0,0.0,0.0,0.0,0.0,0.0,0.0,0.0,0.0,0.0,0.0,0.0,0.0,0.0,0.0,0.0,0.0,0.0,0.0,0.0,0.0,0.0,0.0,0.0,0.0,0.0,0.0,0.0,0.0,0.0,1.9892,1.962,1.9563,0.0,0.0,0.0,0.0,0.0,0.0,1.8762,1.8865,0.0,0.0,0.0,0.0,0.0,0.0,0.0,0.0,0.0,0.0,0.0,0.0,0.0,0.0,0.0,0.0,0.0,0.0,0.0,0.0,0.0,0.0,0.0,0.0,0.0,0.0,0.0,0.0,0.0,0.0,0.0,0.0,0.0,0.0,0.0,0.0,0.0,0.0,0.0,0.0,0.0,0.0,0.0,0.0,0.0,0.0,0.0,0.0,0.0,0.0,0.0,0.0,0.0,0.0,0.0,2.4719,2.5594,2.5787,2.5312,2.4392,2.3124,2.1523,1.9864,1.949,0.0,0.0,0.0,0.0,0.0,0.0,0.0,0.0,0.0,0.0,0.0,0.0,0.0,0.0,0.0,0.0,0.0,0.0,0.0,0.0,0.0,0.0,0.0,0.0,0.0,0.0,0.0,0.0,0.0,0.0,0.0,0.0,0.0,0.0,0.0,0.0,0.0,0.0,0.0,0.0,0.0,1.9754,1.95,1.9383,0.0,0.0,0.0,0.0,1.8891,1.8716,0.0,0.0,0.0,0.0,0.0,0.0,0.0,0.0,0.0,0.0,0.0,0.0,0.0,0.0,0.0,0.0,0.0,0.0,0.0,0.0,0.0,0.0,0.0,0.0,0.0,0.0,0.0,0.0,0.0,0.0,0.0,0.0,0.0,0.0,0.0,0.0,0.0,0.0,0.0,0.0,0.0,0.0,0.0,0.0,0.0,0.0,0.0,0.0,0.0,0.0,0.0,0.0,0.0,0.0,0.0,0.0,2.5501,2.5911,2.6087,2.6005,2.4663,2.3112,2.1453,2.0291,1.9971,0.0,0.0,0.0,0.0,0.0,0.0,0.0,0.0,0.0,0.0,0.0,0.0,0.0,0.0,0.0,0.0,0.0,0.0,0.0,0.0,0.0,0.0,0.0,0.0,0.0,0.0,0.0,0.0,0.0,0.0,0.0,0.0,0.0,0.0,0.0,0.0,0.0,0.0,0.0,0.0,0.0,2.0278,1.9527,1.9301,1.9201,0.0,0.0,1.882,1.8815,1.8683,0.0,0.0,0.0,0.0,0.0,0.0,0.0,0.0,0.0,0.0,0.0,0.0,0.0,0.0,0.0,0.0,0.0,0.0,0.0,0.0,0.0,0.0,0.0,0.0,0.0,0.0,0.0,0.0,0.0,0.0,0.0,0.0,0.0,0.0,0.0,0.0,0.0,0.0,0.0,0.0,0.0,0.0,0.0,0.0,0.0,0.0,0.0,0.0,0.0,0.0,0.0,0.0,0.0,0.0,0.0,2.3849,2.5694,2.5978,2.6135,2.6138,2.4661,2.3038,2.139,1.9896,1.9549,0.0,0.0,0.0,0.0,0.0,0.0,0.0,0.0,0.0,0.0,0.0,0.0,0.0,0.0,0.0,0.0,0.0,0.0,0.0,0.0,0.0,0.0,0.0,0.0,0.0,0.0,0.0,0.0,0.0,0.0,0.0,0.0,0.0,0.0,0.0,0.0,0.0,0.0,0.0,0.0,0.0,0.0,2.003,1.9434,0.0,0.0,0.0,1.8645,1.8677,0.0,0.0,0.0,0.0,0.0,0.0,0.0,0.0,0.0,0.0,0.0,0.0,0.0,0.0,0.0,0.0,0.0,0.0,0.0,0.0,0.0,0.0,0.0,0.0,0.0,0.0,0.0,0.0,0.0,0.0,0.0,0.0,0.0,0.0,0.0,0.0,0.0,0.0,0.0,0.0,0.0,0.0,0.0,0.0,0.0,0.0,0.0,0.0,0.0,0.0,0.0,0.0,0.0,0.0,0.0,0.0,0.0,2.5731,2.6157,2.6321,2.6133,2.4633,2.2991,2.1311,1.9538,0.0,0.0,0.0,0.0,0.0,0.0,0.0,0.0,0.0,0.0,0.0,0.0,0.0,0.0,0.0,0.0,0.0,0.0,0.0,0.0,0.0,0.0,0.0,0.0,0.0,0.0,0.0,2.0018,0.0,0.0,0.0,0.0,0.0,0.0,0.0,0.0,0.0,0.0,0.0,0.0,0.0,0.0,2.0671,2.0392,1.9474,1.8789,0.0,0.0,1.8463,1.8508,1.8509,1.9017,0.0,0.0,0.0,0.0,0.0,0.0,0.0,0.0,0.0,0.0,0.0,0.0,0.0,0.0,0.0,0.0,0.0,0.0,0.0,0.0,0.0,0.0,0.0,0.0,0.0,0.0,0.0,0.0,0.0,0.0,0.0,0.0,0.0,0.0,0.0,0.0,0.0,0.0,0.0,0.0,0.0,0.0,0.0,0.0,0.0,0.0,0.0,0.0,0.0,0.0,0.0,0.0,0.0,0.0,2.446,2.5685,2.6652,2.6783,2.608,2.4593,2.2978,2.1246,1.9517,1.8845,0.0,0.0,0.0,0.0,0.0,0.0,0.0,0.0,0.0,0.0,0.0,0.0,0.0,0.0,0.0,0.0,0.0,0.0,0.0,0.0,0.0,0.0,0.0,0.0,0.0,0.0,0.0,0.0,0.0,0.0,0.0,0.0,0.0,0.0,0.0,0.0,0.0,0.0,0.0,0.0,0.0,2.1206,2.0323,1.9307,1.8603,0.0,1.8354,1.8246,1.83,1.8375,1.8925,2.0467,0.0,0.0,0.0,0.0,0.0,0.0,0.0,0.0,0.0,0.0,0.0,0.0,0.0,0.0,0.0,0.0,0.0,0.0,0.0,0.0,0.0,0.0,0.0,0.0,0.0,0.0,0.0,0.0,0.0,0.0,0.0,0.0,0.0,0.0,0.0,0.0,0.0,0.0,0.0,0.0,0.0,0.0,0.0,0.0,0.0,0.0,0.0,0.0,0.0,0.0,0.0,0.0,0.0,2.4515,2.5736,2.6674,2.6794,2.6068,2.4503,2.2652,2.0495,1.8722,1.7992,0.0,0.0,0.0,0.0,0.0,0.0,0.0,0.0,0.0,0.0,0.0,0.0,0.0,0.0,0.0,0.0,0.0,0.0,0.0,0.0,0.0,0.0,0.0,0.0,0.0,0.0,0.0,0.0,1.6875,1.5991,1.6361,0.0,0.0,0.0,0.0,0.0,0.0,0.0,0.0,0.0,0.0,2.1713,2.0872,1.9803,0.0,0.0,1.8069,1.7994,1.8101,1.817,1.8757,2.0378,2.0622,0.0,0.0,0.0,0.0,0.0,0.0,0.0,0.0,0.0,0.0,0.0,0.0,0.0,0.0,0.0,0.0,0.0,0.0,0.0,0.0,0.0,0.0,0.0,0.0,0.0,0.0,0.0,0.0,0.0,0.0,0.0,0.0,0.0,0.0,0.0,0.0,0.0,0.0,0.0,0.0,0.0,0.0,0.0,0.0,0.0,0.0,0.0,0.0,0.0,0.0,0.0,0.0,2.5024,2.6045,2.6947,2.6976,2.6093,2.4662,2.2661,2.0021,1.8218,1.7359,0.0,0.0,0.0,0.0,0.0,0.0,0.0,0.0,0.0,0.0,0.0,0.0,0.0,0.0,0.0,0.0,0.0,0.0,0.0,0.0,0.0,0.0,0.0,0.0,0.0,0.0,0.0,0.0,1.755,1.665,1.6457,0.0,0.0,0.0,0.0,0.0,0.0,0.0,0.0,0.0,0.0,2.196,2.1345,2.0319,1.9396,1.8734,1.8511,1.8447,1.8551,1.8637,1.9178,2.0563,0.0,0.0,0.0,0.0,0.0,0.0,0.0,0.0,0.0,0.0,0.0,0.0,0.0,0.0,0.0,0.0,0.0,0.0,0.0,0.0,0.0,0.0,0.0,0.0,0.0,0.0,0.0,2.0287,0.0,0.0,1.9803,0.0,0.0,0.0,0.0,0.0,0.0,0.0,0.0,0.0,0.0,0.0,0.0,0.0,0.0,0.0,0.0,0.0,0.0,0.0,0.0,0.0,0.0,2.6125,2.6578,2.7602,2.7444,2.6025,2.5129,2.3108,1.9934,1.8111,1.705,1.6741,0.0,0.0,0.0,0.0,0.0,0.0,0.0,0.0,0.0,0.0,0.0,0.0,0.0,0.0,0.0,0.0,0.0,0.0,0.0,0.0,0.0,0.0,0.0,0.0,0.0,0.0,1.9584,1.843,1.7359,0.0,0.0,0.0,0.0,0.0,0.0,0.0,0.0,0.0,2.3205,2.2459,2.1838,2.1611,2.0792,2.0093,1.9864,1.9774,1.9742,1.9809,1.9934,2.0327,0.0,0.0,0.0,0.0,0.0,0.0,0.0,0.0,0.0,0.0,0.0,0.0,0.0,0.0,0.0,0.0,0.0,0.0,0.0,0.0,0.0,0.0,0.0,0.0,0.0,0.0,0.0,1.9851,1.9895,0.0,0.0,0.0,0.0,0.0,0.0,0.0,0.0,0.0,0.0,0.0,2.0364,2.0364,0.0,0.0,0.0,0.0,0.0,0.0,0.0,0.0,0.0,0.0,0.0,0.0,2.5997,2.6427,2.7426,2.7237,2.584,2.4946,2.3183,2.0463,1.8718,1.7304,1.628,0.0,0.0,0.0,0.0,0.0,0.0,0.0,0.0,0.0,0.0,0.0,0.0,0.0,0.0,0.0,0.0,0.0,0.0,0.0,0.0,0.0,0.0,0.0,0.0,0.0,1.9895,0.0,0.0,0.0,0.0,0.0,0.0,0.0,0.0,0.0,0.0,0.0,2.2829,2.281,2.2559,2.2119,2.1432,2.0952,2.0447,0.0,0.0,0.0,0.0,0.0,0.0,0.0,0.0,0.0,0.0,0.0,0.0,0.0,0.0,2.1548,2.1838,2.2099,2.2364,2.2712,0.0,0.0,0.0,0.0,0.0,0.0,0.0,0.0,0.0,0.0,0.0,0.0,0.0,0.0,1.9599,0.0,1.9572,0.0,0.0,0.0,0.0,0.0,0.0,0.0,0.0,2.0828,2.0998,2.0998,2.0998,2.0998,0.0,2.0998,2.0662,0.0,0.0,0.0,0.0,0.0,0.0,0.0,0.0,2.6141,2.6565,2.7298,2.7115,2.5938,2.5114,2.3489,2.1016,1.8927,1.7266,1.5998,1.6816,1.7379,0.0,0.0,0.0,0.0,0.0,0.0,0.0,0.0,0.0,0.0,0.0,0.0,0.0,0.0,0.0,0.0,0.0,0.0,0.0,0.0,0.0,0.0,0.0,1.9665,0.0,0.0,0.0,0.0,0.0,0.0,0.0,0.0,0.0,2.2467,2.2515,2.2511,2.2501,2.2487,2.2228,2.1573,0.0,0.0,0.0,0.0,0.0,0.0,0.0,2.0643,2.1102,2.1164,2.1244,2.1512,2.1308,2.1111,2.1063,0.0,0.0,2.1655,2.1875,2.212,2.245,2.2565,2.2626,2.2652,2.1749,2.0922,0.0,0.0,0.0,0.0,0.0,0.0,0.0,0.0,1.9677,1.9498,0.0,1.9389,0.0,0.0,0.0,0.0,0.0,2.0194,0.0,0.0,2.1148,2.1119,2.1162,2.1187,2.1133,2.1119,2.1187,2.1243,2.1361,2.1537,0.0,0.0,0.0,0.0,0.0,0.0,2.659,2.6964,2.7301,2.7108,2.6278,2.5567,2.3953,2.1422,1.8853,1.7041,1.6062,1.6345,1.6654,1.6955,1.7384,0.0,0.0,0.0,0.0,0.0,0.0,0.0,0.0,0.0,0.0,0.0,0.0,0.0,0.0,0.0,0.0,0.0,0.0,0.0,0.0,1.9946,0.0,0.0,0.0,0.0,0.0,0.0,0.0,0.0,0.0,0.0,2.237,2.2279,2.2206,2.2265,0.0,0.0,0.0,0.0,2.186,2.1779,2.1788,2.1764,2.1764,2.1764,2.1742,2.1676,0.0,0.0,2.1135,2.0925,2.0786,2.081,2.0869,2.1047,2.1512,2.1769,2.1979,2.2224,2.2276,2.2307,2.2278,2.1116,1.9955,2.1328,0.0,0.0,0.0,0.0,2.0538,2.0603,2.0753,2.0594,2.0531,2.0527,2.007,0.0,0.0,0.0,0.0,0.0,0.0,2.22,2.2417,2.3325,2.3786,2.3786,2.3734,2.3708,2.3708,2.3708,2.3781,2.3923,2.4055,2.3794,2.3137,0.0,0.0,0.0,0.0,2.6278,2.6573,2.6957,2.6759,2.5964,2.5214,2.3618,2.1039,1.9538,1.8332,1.7419,1.6827,1.6861,1.763,1.7673,0.0,0.0,0.0,0.0,0.0,0.0,0.0,0.0,0.0,0.0,0.0,0.0,0.0,0.0,0.0,0.0,0.0,0.0,0.0,2.0284,1.9101,1.8935,0.0,0.0,0.0,0.0,0.0,0.0,0.0,0.0,0.0,2.2068,2.2017,2.1964,0.0,0.0,2.195,2.1877,2.184,2.1812,2.173,2.1739,0.0,2.168,2.1649,2.1603,2.1433,2.1167,2.0892,2.0719,2.0578,2.055,2.0696,2.0818,2.1014,2.1334,2.1589,2.179,2.1923,2.2008,2.2104,2.2017,2.0864,1.976,2.3134,2.2297,2.1595,2.1536,2.1846,2.1722,2.1827,2.204,2.1523,2.1243,2.1129,2.0536,2.0223,2.0196,2.0481,0.0,0.0,0.0,2.3423,2.399,2.4807,2.535,2.5645,2.5606,2.5448,2.5201,2.5199,2.5108,2.4961,2.5125,2.4779,2.3995,0.0,0.0,2.596,2.6153,2.6401,2.6703,2.675,2.6505,2.6015,2.4953,2.3185,2.0728,2.0021,1.9132,1.7971,1.7553,1.7398,1.7562,1.7901,1.8333,0.0,0.0,0.0,0.0,0.0,0.0,0.0,0.0,0.0,0.0,0.0,2.1159,2.1301,0.0,0.0,0.0,2.1438,2.1031,2.0291,1.9327,0.0,0.0,0.0,0.0,0.0,0.0,0.0,2.2738,2.2405,2.2108,2.1935,2.1884,2.1857,2.1796,2.1833,2.1847,2.1803,0.0,2.1745,2.1693,2.1663,2.1641,2.1612,2.155,2.1434,2.1151,2.0811,2.0527,2.0359,2.0287,2.0333,2.0527,2.0734,2.095,2.1175,2.1395,2.1625,2.173,2.1788,2.1847,2.1877,2.0656,1.9584,2.4955,2.4809,2.314,2.2909,2.3625,2.3171,2.331,2.3734,2.2577,2.1875,2.153,2.0934,2.0601,2.0524,2.1245,0.0,2.3587,2.3711,2.4481,2.5724,2.578,2.6202,2.6883,2.6926,2.6605,2.6012,2.6023,2.5747,2.528,2.5482,2.565,2.5797,2.6302,2.6709,2.6945,2.6763,2.6841,2.7163,2.6703,2.6399,2.6178,2.4662,2.2817,2.0635,2.0383,1.9533,1.807,1.835,1.8106,1.719,1.8102,1.8566,1.8324,0.0,0.0,0.0,0.0,0.0,0.0,0.0,0.0,0.0,0.0,0.0,0.0,0.0,0.0,0.0,2.0991,0.0,2.0695,2.0201,0.0,0.0,0.0,2.2104,2.2976,2.29,2.2701,2.2555,0.0,0.0,2.1882,2.1833,2.1781,2.1797,2.1781,2.1781,2.1797,2.1738,2.1687,2.1672,2.162,2.1582,2.152,2.141,2.1198,2.0835,2.0537,2.0291,2.0107,2.0034,2.0093,2.035,2.0594,2.0852,2.1071,2.1269,2.1433,2.1632,2.165,2.1619,2.1621,2.0482,1.9431,2.5439,2.5566,2.5221,2.5143,2.526,2.5408,2.5267,2.4951,2.4399,2.379,2.3112,2.2403,2.208,2.2083,2.283,2.3586,2.4402,2.5621,2.6336,2.6689,2.7312,2.7696,2.7881,2.7979,2.7935,2.7805,2.7957,2.7925,2.7837,2.8576,2.8947,2.9031,3.0053,2.9311,2.6886,2.7109,2.716,2.6902,2.7024,2.6479,2.5264,2.4211,2.3103,2.1956,2.0715,1.9855,1.9399,1.8724,1.8447,1.8562,1.8565,1.8691,1.9016,1.907,0.0,0.0,0.0,0.0,0.0,0.0,0.0,0.0,0.0,2.0966,2.1207,0.0,2.1356,0.0,2.0879,2.0566,2.0616,2.0054,0.0,0.0,2.1293,2.1719,2.2673,2.2629,2.2429,2.224,2.1991,2.1818,2.1753,2.173,2.1732,2.1715,2.1775,2.1783,2.173,2.1672,2.1565,2.1442,2.1388,2.1333,2.1231,2.1063,2.0868,2.0545,2.028,2.0008,1.9759,1.9786,1.9946,2.0196,2.0502,2.0834,2.1111,2.1231,2.1301,2.1441,2.1542,2.1612,2.1595,2.0448,1.9411,2.6637,2.6843,2.7075,2.722,2.7293,2.6887,2.6498,2.6147,2.5716,2.5094,2.4354,2.3541,2.3407,2.3838,2.4231,2.4831,2.5588,2.6462,2.7064,2.7416,2.7942,2.8415,2.8831,2.9054,2.9058,2.8857,2.932,2.9392,2.9174,3.0074,3.0527,3.0556,3.1231,3.0771,2.9283,2.8948,2.8576,2.8145,2.7434,2.6449,2.5156,2.4035,2.3064,2.2244,2.1039,2.0201,1.9783,1.9396,1.9121,1.8973,1.8926,1.8988,1.9199,1.9139,1.9106,0.0,0.0,0.0,0.0,0.0,0.0,0.0,0.0,0.0,0.0,0.0,2.127,2.134,2.1083,2.0907,2.0908,2.0643,2.074,2.1345,2.1525,2.1837,2.2463,2.2353,2.2165,2.2034,2.184,2.1702,2.1656,2.1673,2.1634,2.1579,2.157,2.1579,2.1564,2.1511,2.1427,2.1278,2.1239,2.1191,2.1111,2.0908,2.0653,2.0352,2.0065,1.9786,1.9565,1.9614,1.9803,2.0072,2.0383,2.0694,2.0957,2.1095,2.1175,2.1238,2.1309,2.1404,2.148,2.0545,1.9713,2.7951,2.8169,2.8456,2.876,2.896,2.7804,2.7285,2.7226,2.663,2.5975,2.5244,2.4458,2.454,2.5314,2.5503,2.603,2.68,2.7008,2.7499,2.8163,2.8377,2.8917,2.9717,3.0076,3.0054,2.9734,3.0448,3.0509,3.0016,3.0984,3.1471,3.1486,3.1502,3.1893,3.2538,3.1398,3.0481,2.9793,2.7932,2.6497,2.5551,2.4232,2.3107,2.215,2.1393,2.0589,1.9774,2.0033,1.9814,1.8992,1.9227,1.9302,1.9125,1.9106,1.9106,0.0,1.9213,0.0,0.0,0.0,0.0,0.0,0.0,0.0,0.0,2.1127,2.1207,2.1286,2.1324,2.1356,2.1309,2.1426,2.1588,2.1738,2.1895,2.2056,2.2209,2.2075,2.194,2.1877,2.1694,2.1566,2.155,2.1559,2.1512,2.1355,2.1277,2.1222,2.1221,2.1214,2.1175,2.1119,2.1087,2.103,2.1022,2.0818,2.0543,2.0206,1.9883,1.9608,1.9409,1.9483,1.9656,1.9919,2.0228,2.0544,2.0753,2.0965,2.1087,2.1103,2.1111,2.1167,2.1245,2.0655,2.0113,2.8176,2.8351,2.841,2.8373,2.8291,2.8033,2.7795,2.7575,2.7006,2.623,2.53,2.5119,2.5119,2.5394,2.656,2.7187,2.743,2.8755,2.945,2.9612,2.9811,3.0071,3.0416,3.0762,3.1038,3.1279,3.1696,3.1903,3.1974,3.2965,3.3447,3.3464,3.3984,3.412,3.384,0.0,0.0,0.0,2.8455,2.7236,2.6311,2.5439,2.4289,2.2792,2.1969,0.0,2.0302,2.0015,1.9778,1.9552,1.9394,0.0,0.0,0.0,0.0,0.0,0.0,0.0,0.0,0.0,0.0,0.0,1.9854,2.0154,2.0571,2.0966,2.1207,2.1223,2.1215,2.1222,2.1207,2.1199,2.127,2.1448,2.1517,2.1631,2.1864,2.1812,2.173,2.1664,2.1497,2.1364,2.1373,2.1309,2.1191,2.1023,2.0974,2.082,2.0489,2.0697,2.0811,2.0678,2.0736,2.0801,2.0851,2.0635,2.0347,1.9962,1.9738,1.952,1.9256,1.9321,1.9496,1.9717,2.0087,2.0426,2.0664,2.0845,2.0966,2.1087,2.1087,2.1095,2.1135,2.055,2.0029,2.8616,2.8801,2.8801,2.88,0.0,2.8463,2.8274,2.8091,2.7406,2.6858,2.6438,2.6608,2.6735,2.6875,2.7622,2.7988,2.8092,2.8939,2.9324,2.9311,2.9623,2.988,3.0071,3.0709,3.118,3.1573,3.2329,3.2798,3.3037,3.3909,3.4366,3.4448,3.4621,3.4697,3.4667,3.3873,3.2506,3.0564,2.9026,2.7833,2.6959,2.582,2.4477,2.2898,2.2068,0.0,0.0,0.0,0.0,0.0,0.0,0.0,0.0,0.0,0.0,1.9101,1.9167,1.9195,1.9204,1.9288,1.9358,1.9372,1.9608,1.9995,2.0544,2.0876,2.1063,2.1143,2.1095,2.1039,2.1014,2.1006,2.1047,2.1159,2.1246,2.1379,2.1548,2.1549,2.1627,2.1897,2.152,2.1303,2.1608,2.123,2.0884,2.0672,2.0555,2.0369,2.0067,2.0333,2.0554,2.0503,2.0595,2.071,2.0727,2.0526,2.0244,1.9898,1.9645,1.9404,1.9148,1.9232,1.94,1.9549,1.9878,2.023,2.0462,2.0667,2.0827,2.0917,2.0957,2.0957,2.0941,2.0671,2.0448,2.9139,2.9308,2.9308,2.9351,2.9354,2.8864,2.8609,2.8474,0.0,0.0,0.0,2.7963,2.8182,2.8341,2.8491,2.8626,2.8715,2.8853,2.8922,2.8928,2.9261,2.9531,2.9807,3.0624,3.1229,3.1663,3.2742,3.3381,3.3643,3.4349,3.4765,3.4826,3.4545,3.454,3.4789,3.3905,3.2757,3.1332,2.9753,2.8533,2.7592,2.6202,2.4714,2.3167,2.2217,2.1239,2.027,1.9858,1.9563,1.9385,1.9195,1.9106,1.9106,1.9106,1.9106,1.9106,1.9106,1.9106,1.9101,1.9195,1.9237,1.9153,1.9453,1.9922,2.0543,2.0769,2.0917,2.1038,2.0933,2.0836,2.0778,2.0913,2.1002,2.1043,2.1318,2.1561,2.1681,2.1649,2.1908,2.2319,2.188,2.1555,2.2018,2.134,2.0705,2.0502,2.026,1.9966,1.98,2.0039,2.034,2.0451,2.0577,2.0676,2.0668,2.0482,2.0176,1.9874,1.9575,1.9339,1.9176,1.92,1.9285,1.9382,1.9707,1.9991,2.02,2.0468,2.0677,2.0761,2.0786,2.0818,2.0826,2.086,2.0853,2.9685,2.9724,2.9705,2.9428,2.8969,2.8894,2.8592,2.8188,2.823,2.8182,2.8045,2.809,2.8128,2.8171,2.8809,2.9104,2.9161,2.9838,3.0163,3.0131,3.02,3.0426,3.0794,3.1279,3.1852,3.2543,3.3216,3.3705,3.403,3.4471,3.4714,3.4677,3.4398,3.4027,3.3591,3.3351,3.291,3.221,3.1025,2.9722,2.8383,2.7349,2.6062,2.4476,2.2921,2.169,2.0824,1.9921,1.9395,1.9311,1.9167,1.9106,1.9106,1.9106,1.9106,1.9106,1.9106,1.9106,1.9116,1.9134,1.9167,1.926,1.9362,1.9645,2.0142,2.051,2.0768,2.0835,2.0745,2.0726,2.0725,2.1077,2.1372,2.1591,2.2214,2.2694,2.2774,2.2783,2.2838,2.2973,2.271,2.2438,2.2471,2.1684,2.098,2.0703,2.033,1.9813,1.9882,1.9806,2.0028,2.033,2.0484,2.0553,2.0644,2.0475,2.017,1.985,1.9566,1.9339,1.9144,1.9134,1.9186,1.9302,1.9558,1.9791,2.0004,2.0294,2.0536,2.0677,2.0745,2.0794,2.0818,2.0811,2.0811,2.9502,2.9436,2.9521,2.941,2.9193,2.9313,2.9264,2.9045,2.912,2.8944,2.858,2.8875,2.9026,2.9051,2.9372,2.9523,2.9555,2.9903,3.0068,3.0088,3.019,3.0387,3.071,3.1198,3.1813,3.2543,3.316,3.3681,3.4094,3.4397,3.4597,3.467,3.4432,3.422,3.406,3.3645,3.3163,3.262,3.1309,3.0035,2.8853,2.7901,2.6489,2.4539,2.36,2.2374,2.075,2.022,1.9711,1.9209,1.9139,1.9106,1.9106,1.9106,1.9251,1.9599,1.9638,1.9783,2.0117,2.0132,2.0151,2.0211,2.0318,2.0484,2.0733,2.0519,2.0433,2.051,2.0434,2.0479,2.0773,2.1049,2.1393,2.1931,2.2433,2.2814,2.2999,2.3053,2.3185,2.3414,2.3007,2.272,2.29,2.2014,2.1307,2.1098,2.0748,2.0651,2.0826,2.0994,2.0904,2.0533,2.0509,2.0634,2.07,2.0516,2.022,1.9865,1.9645,1.9413,1.9181,1.9106,1.9116,1.9197,1.9391,1.9603,1.9799,2.0137,2.04,2.0585,2.0712,2.0786,2.0818,2.0818,2.0818,2.9294,2.9131,2.9275,2.936,2.9431,2.9631,2.974,2.9779,2.9779,2.9541,2.9208,2.9603,2.9779,2.9779,2.9779,2.9779,2.9779,2.9779,2.9779,2.9798,2.9953,3.0133,3.0368,3.0898,3.1537,3.2237,3.2917,3.3479,3.3957,3.4261,3.4481,3.4606,3.4549,3.451,3.4519,3.4133,3.3576,3.2807,3.1599,3.0489,2.943,2.8315,2.6875,2.5212,2.426,2.3011,2.1243,2.0774,2.0182,1.9386,1.9319,1.9333,1.9333,1.9333,1.9609,2.0219,2.0306,2.0494,2.094,2.0998,2.0998,2.0998,2.1089,2.1186,2.122,2.0728,2.0375,2.0408,2.0322,2.0391,2.0797,2.1235,2.1654,2.2309,2.2786,2.3195,2.3372,2.344,2.3568,2.39,2.3382,2.3068,2.3021,2.2355,2.1644,2.1399,2.1405,2.1605,2.1895,2.2154,2.1842,2.1306,2.1073,2.1238,2.1158,2.1065,2.0734,2.0215,1.9947,1.9679,1.9349,1.9144,1.9106,1.9134,1.9256,1.9463,1.9672,1.9986,2.0254,2.045,2.0644,2.0785,2.0794,2.0818,2.0818,2.9294,2.9111,2.9131,2.9236,2.9399,2.9419,2.958,2.9772,2.9779,2.9779,2.9691,2.9786,2.9779,2.9779,2.9779,2.9779,2.9779,2.9779,2.9779,2.9779,2.9811,2.9946,3.0152,3.0552,3.1067,3.1726,3.2614,3.3248,3.3692,3.4145,3.4414,3.4465,3.471,3.4569,3.4119,3.4604,3.4256,3.292,3.241,3.1568,3.0345,2.8731,2.7715,2.7377,2.4809,2.3333,2.291,2.18,2.078,2.0098,2.0016,2.0001,2.0016,2.0001,2.0277,2.0857,2.093,2.0944,2.1013,2.0998,2.1046,2.0998,2.1085,2.1152,2.1249,2.1205,2.106,2.0833,2.0634,2.0608,2.0713,2.1719,2.253,2.2904,2.3692,2.4413,2.451,2.4747,2.4743,2.4525,2.4081,2.389,2.3593,2.2799,2.2016,2.1681,2.1834,2.2049,2.2341,2.2595,2.2757,2.2618,2.2616,2.2607,2.2553,2.247,2.1849,2.114,2.0694,2.0189,1.9618,1.9216,1.9106,1.9125,1.9209,1.9376,1.9596,1.9854,2.0129,2.0373,2.0568,2.0727,2.0794,2.0818,2.0818,2.9203,2.8781,2.8863,2.904,2.9236,2.936,2.947,2.958,2.974,2.9779,2.9779,2.9779,2.9779,2.9779,2.9779,2.9779,2.9779,2.9779,2.9779,2.9779,2.9779,2.9927,3.0113,3.0381,3.0898,3.1629,3.2435,3.309,3.3608,3.4128,3.4397,3.4431,3.4666,3.4635,3.4405,3.4507,3.425,3.3695,3.3126,3.2344,3.1277,2.9339,2.8,2.7367,2.5897,2.4399,2.3293,2.2611,2.1805,2.0751,2.064,2.0635,2.0625,2.0625,2.0901,2.154,2.1935,2.2127,2.2113,2.2127,2.2127,2.2113,2.2127,2.2149,2.2182,2.1915,2.1645,2.151,2.1207,2.1124,2.1472,2.208,2.2729,2.3382,2.4029,2.4462,2.4666,2.4812,2.4782,2.4457,2.4209,2.3925,2.3638,2.3174,2.2843,2.2731,2.2922,2.3158,2.354,2.3785,2.3931,2.4058,2.409,2.3698,2.3158,2.2802,2.2388,2.1817,2.1163,2.0513,1.999,1.938,1.9106,1.9116,1.9172,1.9311,1.9556,1.9816,2.0098,2.0337,2.0594,2.0761,2.081,2.0818,2.0818,2.9266,2.8767,2.8738,2.8823,2.902,2.9165,2.9302,2.9419,2.9599,2.974,2.9779,2.9779,2.9779,2.9779,2.9779,2.9779,2.9779,2.9779,2.9779,2.9779,2.9779,2.9888,3.0049,3.0292,3.0844,3.1708,3.26,3.3373,3.4038,3.4453,3.4588,3.446,3.4532,3.4614,3.4604,3.4414,3.4234,3.4044,3.357,3.2888,3.1809,3.0067,2.8631,2.7725,2.6825,2.5563,2.3947,2.3497,2.2767,2.158,2.1323,2.1201,2.117,2.1191,2.1526,2.2182,2.2649,2.2888,2.2888,2.2888,2.2888,2.2888,2.2888,2.2888,2.2827,2.2504,2.2254,2.2218,2.1947,2.1913,2.2002,2.2336,2.2875,2.3614,2.4009,2.4292,2.4503,2.4651,2.46,2.4281,2.403,2.3754,2.3477,2.3326,2.3311,2.361,2.3902,2.4266,2.4595,2.4719,2.4829,2.5001,2.4964,2.4584,2.3673,2.35,2.3132,2.254,2.1929,2.1311,2.0567,1.981,1.9273,1.9378,1.9268,1.9293,1.9569,1.9827,2.01,2.038,2.0627,2.0794,2.0818,2.0818,2.0818,2.9472,2.9204,2.8715,2.8662,2.8823,2.8843,2.9047,2.936,2.9419,2.9573,2.9772,2.9817,2.9804,2.9829,2.988,2.9804,2.9804,2.9829,2.9867,2.9892,2.9867,2.9849,2.985,3.0222,3.0951,3.1982,3.3108,3.4219,3.5241,3.5299,3.5026,3.4457,3.4445,3.4414,3.4433,3.4558,3.4348,3.3822,3.3688,3.3075,3.1904,3.095,2.9886,2.8635,2.7429,2.6384,2.5575,2.4498,2.3496,2.2749,2.2133,2.1733,2.1605,2.1707,2.2105,2.2721,2.2873,2.2888,2.2888,2.2888,2.2888,2.2888,2.2888,2.2888,2.2888,2.2827,2.2769,2.2827,2.2722,2.2541,2.2214,2.2622,2.3121,2.3469,2.3833,2.4098,2.4307,2.4431,2.439,2.4156,2.3856,2.3549,2.3179,2.3235,2.3527,2.3871,2.4156,2.4405,2.4722,2.4902,2.4966,2.4985,2.4995,2.4948,2.4849,2.4516,2.4151,2.3578,2.2885,2.2333,2.1323,2.044,2.001,1.9606,1.9455,1.9465,1.9636,1.9854,2.0124,2.0376,2.0645,2.0786,2.0818,2.0818,2.0897,2.9675,2.928,2.91,2.9044,2.9109,2.889,2.889,2.904,2.9282,2.947,2.9622,3.0065,3.0299,3.0344,3.067,3.0633,3.0344,3.0319,3.0495,3.0803,3.0809,3.0821,3.0849,3.1292,3.1804,3.2502,3.3636,3.4823,3.5806,3.561,3.529,3.4997,3.4603,3.4397,3.4397,3.4346,3.4182,3.3965,3.3864,3.3225,3.2059,3.1634,3.0682,2.9015,2.7848,2.6897,2.6143,2.5296,2.4365,2.3285,2.2999,2.2686,2.2306,2.2283,2.2383,2.2575,2.2732,2.2838,2.2838,2.2894,2.2888,2.2888,2.2888,2.2888,2.2888,2.2888,2.2888,2.2888,2.2888,2.2754,2.2704,2.291,2.3183,2.3363,2.3679,2.395,2.4098,2.4255,2.4317,2.4125,2.3835,2.348,2.3279,2.3411,2.3732,2.403,2.4312,2.4589,2.4846,2.4966,2.4995,2.4995,2.4995,2.4995,2.4995,2.495,2.4715,2.424,2.3648,2.2819,2.1872,2.1084,2.0565,1.981,1.961,1.9662,1.983,2.0063,2.0297,2.051,2.0769,2.0736,2.0818,2.076,2.1014,3.0037,2.9593,2.9577,2.9448,2.9276,2.908,2.8902,2.886,2.9271,2.9554,2.9804,3.0461,3.0791,3.0901,3.1235,3.1336,3.109,3.0952,3.106,3.1381,3.1406,3.1406,3.1468,3.1858,3.2417,3.3172,3.4587,3.5798,3.6483,3.6231,3.5828,3.5378,3.4925,3.4569,3.4356,3.4179,3.4094,3.4023,3.3934,3.3339,3.2413,3.2099,3.1281,2.9749,2.854,2.7538,2.6655,2.5827,2.5015,2.4136,2.3641,2.3055,2.2444,2.2347,2.2324,2.2289,2.248,2.2632,2.2678,2.2803,2.2857,2.2868,2.2891,2.2888,2.2888,2.2888,2.2888,2.2888,2.2888,2.2888,2.291,2.2992,2.3079,2.3242,2.3516,2.3775,2.3972,2.4135,2.4172,2.4061,2.3807,2.349,2.329,2.3527,2.3797,2.4051,2.4354,2.4666,2.4876,2.4966,2.4995,2.4995,2.4995,2.4995,2.4995,2.4985,2.4932,2.4523,2.4262,2.3416,2.2509,2.1747,2.0986,2.0201,1.9855,1.9911,2.0056,2.0285,2.0467,2.0661,2.0662,2.0628,2.0653,2.0661,2.098,3.06,3.0122,3.0119,2.9854,2.9472,2.9361,2.9145,2.9027,2.9419,2.9869,3.025,3.086,3.1227,3.1383,3.1529,3.1758,3.2014,3.1667,3.1491,3.1562,3.1557,3.1537,3.159,3.2041,3.2787,3.3771,3.5867,3.6992,3.7188,3.7088,3.6559,3.5633,3.5354,3.4891,3.4154,3.4103,3.3991,3.3899,3.3848,3.3474,3.2908,3.2257,3.1521,3.0614,2.9424,2.8336,2.7326,2.6129,2.5339,2.4965,2.3864,2.2726,2.2022,2.1809,2.1829,2.1924,2.2102,2.2254,2.2385,2.2632,2.2772,2.2806,2.2846,2.2891,2.2888,2.2888,2.2888,2.2888,2.2888,2.2888,2.2888,2.2914,2.2959,2.3093,2.3345,2.364,2.3919,2.4073,2.4047,2.3878,2.3724,2.3534,2.3418,2.3501,2.3739,2.3978,2.4286,2.4569,2.4762,2.4876,2.4976,2.4976,2.4936,2.4906,2.4946,2.4985,2.4912,2.4791,2.4632,2.4122,2.3126,2.2294,2.1549,2.0777,2.013,2.0137,2.0131,2.0339,2.0371,2.0492,2.0492,2.0509,2.0508,2.06,2.0956,3.1129,3.0672,3.0648,3.0576,3.0359,3.0001,2.9787,2.9728,3.0013,3.0239,3.0515,3.1261,3.1684,3.1868,3.2302,3.265,3.2792,3.2468,3.2393,3.2507,3.255,3.2528,3.2604,3.2857,3.3649,3.4874,3.6154,3.6986,3.7225,3.7154,3.6771,3.6262,3.5535,3.5006,3.4552,3.4059,3.3727,3.3675,3.342,3.2971,3.2375,3.2021,3.1366,3.0299,2.9448,2.8669,2.7935,2.6834,2.5783,2.4812,2.4223,2.3261,2.2008,2.1418,2.119,2.1104,2.153,2.1807,2.1902,2.2294,2.26,2.2652,2.2758,2.2849,2.2888,2.2888,2.2888,2.2888,2.2888,2.2888,2.2888,2.286,2.29,2.2947,2.3201,2.3494,2.3861,2.4183,2.4266,2.4068,2.3973,2.3803,2.357,2.3614,2.375,2.3871,2.4213,2.4518,2.461,2.4772,2.4806,2.4741,2.4741,2.4776,2.4796,2.4816,2.4776,2.4756,2.4705,2.444,2.3532,2.2733,2.2016,2.1221,2.0612,2.0296,2.0289,2.0289,2.0304,2.0337,2.0347,2.0378,2.0383,2.0588,2.0901,3.116,3.093,3.084,3.0787,3.0726,3.0378,3.0191,3.0155,3.0462,3.0619,3.0864,3.1574,3.1988,3.2181,3.263,3.2831,3.2835,3.2649,3.2792,3.3096,3.3143,3.3143,3.328,3.3879,3.4589,3.555,3.638,3.6894,3.7173,3.713,3.6962,3.6576,3.6013,3.5329,3.4747,3.4193,3.3804,3.3424,3.3143,3.2785,3.235,3.1969,3.1323,3.0411,2.9748,2.8998,2.8138,2.7309,2.6345,2.519,2.4436,2.3231,2.1798,2.1394,2.1147,2.1134,2.148,2.1819,2.1766,2.229,2.2515,2.2511,2.2618,2.2746,2.2775,2.28,2.2786,2.2786,2.2994,2.3135,2.3112,2.3077,2.3103,2.3193,2.3196,2.3444,2.3846,2.4292,2.4416,2.424,2.4146,2.3935,2.37,2.3679,2.3792,2.3861,2.4114,2.4421,2.4482,2.463,2.4625,2.4625,2.463,2.4645,2.4615,2.4615,2.462,2.466,2.4685,2.4299,2.3661,2.2958,2.2239,2.1182,2.0418,2.0226,2.0178,2.015,2.0148,2.019,2.0139,2.0049,2.0028,2.0391,2.0754,3.0679,3.0883,3.0668,3.051,3.0497,3.0504,3.0429,3.032,3.072,3.1054,3.1314,3.1768,3.212,3.232,3.2419,3.2487,3.2434,3.2511,3.271,3.3054,3.3238,3.3312,3.3466,3.447,3.5222,3.577,3.6399,3.6788,3.6911,3.7028,3.7077,3.6693,3.6503,3.5982,3.4883,3.4553,3.3951,3.3232,3.3026,3.2818,3.2603,3.214,3.1547,3.091,3.0273,2.9396,2.8259,2.7498,2.6816,2.5886,2.4239,2.2898,2.1868,2.1603,2.1492,2.1427,2.1968,2.206,2.2073,2.2636,2.2961,2.2808,2.3029,2.2806,2.3176,2.3354,2.3328,2.3314,2.3605,2.3765,2.3736,2.3683,2.37,2.3625,2.3415,2.3509,2.4015,2.4349,2.4431,2.4323,2.4239,2.405,2.3668,2.3767,2.3889,2.3969,2.4201,2.4572,2.4575,2.4735,2.4657,2.4595,2.4533,2.4523,2.4482,2.4493,2.4487,2.4498,2.4559,2.4289,2.3809,2.3142,2.214,2.11,2.0342,2.0183,2.0054,1.9999,1.9911,1.9824,1.9744,1.9617,1.976,2.012,2.0612,2.9829,2.9897,2.9966,3.0112,3.0313,3.0638,3.0866,3.1001,3.1316,3.1452,3.1612,3.1877,3.2025,3.2125,3.23,3.24,3.2445,3.2606,3.2725,3.2995,3.3552,3.3774,3.3886,3.4445,3.4974,3.5315,3.5757,3.6041,3.6395,3.6531,3.6615,3.669,3.6428,3.6029,3.5428,3.4528,3.3879,3.3393,3.2821,3.2561,3.2443,3.224,3.18,3.1196,3.061,2.9814,2.8786,2.7421,2.6096,2.4897,2.3827,2.2776,2.1952,2.1469,2.1241,2.1241,2.1597,2.2062,2.2535,2.3299,2.3957,2.4553,2.467,2.5211,2.5329,2.5313,2.5327,2.5356,2.55,2.5316,2.4946,2.4769,2.4489,2.3824,2.3748,2.3777,2.3988,2.4333,2.4544,2.4441,2.4245,2.3967,2.3863,2.4025,2.4324,2.4432,2.4869,2.5286,2.5023,2.4997,2.4967,2.4508,2.4354,2.4369,2.4369,2.4364,2.4354,2.4333,2.4354,2.4344,2.3837,2.3248,2.2006,2.0718,2.0249,1.9986,1.986,1.9744,1.9636,1.949,1.9315,1.9191,1.9454,1.9787,2.0367,2.8978,2.9152,2.9072,2.9371,2.992,3.0318,3.0724,3.1128,3.1417,3.1594,3.1717,3.1827,3.1871,3.1893,3.2025,3.225,3.2459,3.2604,3.2924,3.3434,3.4041,3.4376,3.4571,3.4871,3.5025,3.5072,3.543,3.5783,3.6061,3.6121,3.6347,3.664,3.6412,3.6019,3.5542,3.4737,3.3951,3.3431,3.2782,3.2377,3.2304,3.2241,3.1865,3.135,3.0833,3.0094,2.8656,2.7133,2.5748,2.4599,2.367,2.2957,2.2387,2.1803,2.1479,2.1432,2.2063,2.2669,2.3032,2.396,2.4728,2.5147,2.5591,2.5798,2.5851,2.5989,2.6044,2.5959,2.631,2.6268,2.5988,2.5862,2.5463,2.485,2.4644,2.4432,2.3947,2.4125,2.4297,2.4245,2.4109,2.4029,2.398,2.435,2.4626,2.494,2.5371,2.5394,2.5205,2.526,2.5095,2.4555,2.4187,2.4172,2.4172,2.4167,2.4135,2.4114,2.4073,2.4089,2.3611,2.3062,2.1958,2.0798,2.0246,1.98,1.9621,1.9444,1.9245,1.9077,1.8893,1.8841,1.9029,1.9504,2.0101,2.8145,2.8497,2.8102,2.8479,2.9301,2.9714,3.0261,3.0859,3.1195,3.1461,3.1685,3.1777,3.1896,3.1801,3.2075,3.2187,3.2632,3.2801,3.332,3.3958,3.4523,3.4824,3.4981,3.516,3.5226,3.5164,3.552,3.5701,3.5806,3.5793,3.6098,3.6408,3.6346,3.6012,3.5445,3.4829,3.4154,3.3397,3.2782,3.2386,3.225,3.2191,3.1938,3.1482,3.0864,2.9768,2.8206,2.6843,2.5816,2.4731,2.394,2.3392,2.3019,2.2493,2.224,2.2294,2.2893,2.3436,2.3733,2.4749,2.5513,2.5622,2.586,2.5756,2.6187,2.6425,2.6524,2.6552,2.6693,2.7015,2.6803,2.6776,2.633,2.578,2.5804,2.5143,2.4245,2.3995,2.4147,2.4137,2.407,2.4214,2.444,2.4654,2.4822,2.534,2.5783,2.5919,2.5624,2.5417,2.5018,2.4386,2.4117,2.3946,2.3946,2.3956,2.3903,2.3871,2.376,2.3649,2.3119,2.2505,2.1717,2.0867,2.004,1.9537,1.931,1.9105,1.8888,1.8736,1.8582,1.8456,1.846,1.9155,1.9777,2.7342,2.7447,2.7444,2.7786,2.842,2.9198,3.0,3.069,3.1116,3.1451,3.1747,3.214,3.2321,3.2346,3.2683,3.3043,3.3164,3.3477,3.4054,3.4571,3.4715,3.4823,3.4896,3.4993,3.5054,3.5099,3.498,3.5166,3.5431,3.5516,3.5535,3.5783,3.5938,3.5789,3.5332,3.4717,3.4197,3.3551,3.2898,3.2465,3.2173,3.2132,3.2005,3.159,3.0626,2.9409,2.814,2.7077,2.6343,2.568,2.4819,2.3976,2.3264,2.2923,2.267,2.258,2.3102,2.385,2.4605,2.568,2.6831,2.72,2.7549,2.8296,2.8283,2.8106,2.822,2.8358,2.8498,2.8183,2.7805,2.6933,2.6645,2.6468,2.6161,2.5724,2.513,2.5047,2.5075,2.5038,2.4903,2.4902,2.4919,2.5214,2.5464,2.5789,2.6087,2.6451,2.6056,2.5481,2.4832,2.4082,2.3804,2.3599,2.3556,2.3534,2.3465,2.3436,2.337,2.3123,2.2616,2.2006,2.1216,2.0445,1.9665,1.9275,1.8969,1.8779,1.8557,1.8431,1.8299,1.8201,1.8314,1.8927,1.9345,2.7302,2.7432,2.7506,2.7769,2.8254,2.9085,2.9814,3.0432,3.0949,3.1505,3.2037,3.2394,3.2623,3.2875,3.3176,3.338,3.3729,3.415,3.4523,3.4763,3.4799,3.4799,3.4799,3.4799,3.4896,3.4969,3.4847,3.5023,3.5324,3.5318,3.5318,3.5414,3.5447,3.5181,3.4895,3.4338,3.3728,3.3164,3.267,3.2211,3.1847,3.1772,3.1551,3.1055,2.9961,2.8849,2.8145,2.7281,2.6754,2.6322,2.5679,2.4765,2.3857,2.3472,2.3224,2.314,2.3497,2.4133,2.499,2.6023,2.69,2.7367,2.8021,2.8152,2.8152,2.8102,2.8314,2.8481,2.8553,2.8543,2.8463,2.8047,2.7542,2.748,2.7216,2.6805,2.6355,2.5846,2.5338,2.5189,2.4871,2.4955,2.5122,2.5438,2.5674,2.5813,2.5953,2.6194,2.5367,2.4813,2.4341,2.3764,2.3437,2.3227,2.3157,2.3065,2.2965,2.2923,2.2844,2.2525,2.2065,2.1427,2.0744,2.0081,1.9458,1.8883,1.8582,1.8392,1.8288,1.8195,1.8092,1.7992,1.8133,1.861,1.8927,2.76,2.7854,2.7819,2.8057,2.8523,2.9191,2.985,3.0445,3.092,3.1722,3.2434,3.2623,3.3092,3.3356,3.3549,3.3778,3.415,3.4499,3.4775,3.4787,3.4799,3.4799,3.4799,3.4799,3.4799,3.4799,3.4787,3.5054,3.5257,3.5259,3.5194,3.5222,3.4903,3.4646,3.4273,3.3739,3.3155,3.2573,3.2287,3.1793,3.1322,3.1203,3.091,3.0253,2.9454,2.8753,2.8274,2.7604,2.7036,2.6982,2.6496,2.5715,2.4915,2.4206,2.3825,2.3806,2.4099,2.4567,2.5082,2.5958,2.6603,2.6421,2.7085,2.7323,2.7072,2.7136,2.7388,2.7639,2.7848,2.803,2.8425,2.8122,2.8204,2.8251,2.8167,2.7906,2.7262,2.6187,2.552,2.5135,2.5105,2.5179,2.5189,2.5366,2.5594,2.5792,2.5918,2.576,2.4959,2.431,2.3938,2.3516,2.3178,2.2846,2.2731,2.2686,2.2569,2.2406,2.2357,2.1903,2.1436,2.0655,2.0038,1.9896,1.9365,1.8733,1.8279,1.8175,1.8075,1.7982,1.7902,1.7835,1.8028,1.8319,1.8526,2.7799,2.8044,2.7863,2.8321,2.9186,2.9607,3.0285,3.1113,3.1664,3.211,3.2589,3.3369,3.373,3.397,3.4378,3.4595,3.4631,3.4751,3.4799,3.4799,3.4799,3.4799,3.4799,3.4799,3.4799,3.4799,3.4799,3.4896,3.5005,3.5077,3.502,3.481,3.4554,3.4286,3.3846,3.3337,3.2739,3.209,3.19,3.1519,3.0931,3.0627,3.0387,2.9813,2.918,2.8863,2.8563,2.8009,2.7565,2.7517,2.7061,2.6484,2.5817,2.4946,2.4326,2.41,2.4376,2.4858,2.5377,2.5963,2.6589,2.6892,2.7081,2.7008,2.6862,2.6837,2.7006,2.7087,2.7155,2.7169,2.7125,2.7371,2.7205,2.7167,2.7186,2.6965,2.6494,2.6115,2.5786,2.5456,2.5431,2.5378,2.5324,2.5284,2.5397,2.5522,2.5605,2.5465,2.4891,2.4315,2.3863,2.3417,2.2965,2.2609,2.2312,2.2275,2.2203,2.1967,2.1748,2.1275,2.0679,1.9812,1.9307,1.9156,1.8878,1.8334,1.8045,1.7945,1.7868,1.7777,1.7727,1.7676,1.7789,1.7913,1.8157,2.8495,2.8633,2.8848,2.9253,2.9817,3.0504,3.113,3.1739,3.2287,3.2789,3.3263,3.3778,3.4186,3.4426,3.4655,3.4799,3.4799,3.4799,3.4799,3.4799,3.4799,3.4799,3.4775,3.4775,3.4799,3.4799,3.4799,3.4775,3.4799,3.492,3.4835,3.4599,3.4409,3.4079,3.3591,3.3235,3.2533,3.1847,3.1532,3.119,3.041,3.0086,2.9613,2.9289,2.9,2.8756,2.8609,2.8377,2.8138,2.801,2.7601,2.7229,2.6688,2.5973,2.5095,2.4709,2.4725,2.4985,2.5461,2.5966,2.6423,2.6559,2.6941,2.7062,2.6888,2.6806,2.6928,2.716,2.7255,2.7269,2.7337,2.6971,2.682,2.6793,2.6752,2.6485,2.615,2.6016,2.5807,2.5578,2.5384,2.5274,2.5315,2.5273,2.5244,2.5272,2.5314,2.5094,2.4764,2.4197,2.3657,2.2863,2.2352,2.2213,2.1949,2.1926,2.1914,2.1679,2.1169,2.069,2.0113,1.9344,1.8753,1.8406,1.8079,1.7855,1.7838,1.7747,1.7659,1.7546,1.7461,1.7385,1.7396,1.7496,1.7728,2.928,2.9501,2.9958,3.0346,3.0745,3.1489,3.2054,3.2463,3.2901,3.3421,3.397,3.415,3.4426,3.4703,3.4787,3.4787,3.4726,3.4702,3.4677,3.4616,3.4604,3.4628,3.4653,3.4665,3.4616,3.4567,3.4592,3.4714,3.4799,3.4823,3.4667,3.4521,3.4435,3.4045,3.351,3.3152,3.2433,3.1776,3.1246,3.0791,3.0175,2.9604,2.9157,2.9,2.8784,2.8717,2.8697,2.8581,2.8478,2.8374,2.8094,2.7794,2.7577,2.688,2.6142,2.5546,2.5109,2.5137,2.5496,2.6063,2.6479,2.6638,2.7303,2.7431,2.7337,2.7242,2.7147,2.7459,2.7459,2.7404,2.7255,2.693,2.6645,2.6537,2.6428,2.6267,2.5847,2.5604,2.5454,2.5282,2.5159,2.516,2.5188,2.5174,2.5131,2.5117,2.516,2.4996,2.4627,2.3862,2.3164,2.2207,2.1684,2.1684,2.1602,2.1592,2.1592,2.1525,2.0825,2.0141,1.9596,1.8973,1.8418,1.7844,1.7708,1.7537,1.7543,1.7481,1.7316,1.7188,1.7136,1.705,1.6966,1.705,1.7267,2.9963,3.0604,3.0692,3.1385,3.2328,3.2377,3.2793,3.3481,3.3744,3.3886,3.409,3.445,3.4703,3.4775,3.4775,3.4653,3.4531,3.4469,3.4396,3.4285,3.4261,3.4261,3.4211,3.4199,3.4261,3.4285,3.4236,3.4457,3.464,3.4726,3.4775,3.4643,3.4342,3.3981,3.375,3.3085,3.228,3.1721,3.135,3.0866,3.0258,2.9852,2.9686,2.9535,2.9367,2.9165,2.8993,2.8855,2.8697,2.8498,2.845,2.8154,2.7769,2.7625,2.6928,2.6202,2.5618,2.5409,2.5785,2.6256,2.6772,2.7085,2.783,2.8212,2.8265,2.7906,2.7554,2.686,2.6984,2.7079,2.7038,2.647,2.6116,2.594,2.5873,2.5588,2.5263,2.5358,2.5181,2.5141,2.5075,2.5047,2.5047,2.5019,2.5005,2.4991,2.4964,2.4815,2.4394,2.3607,2.2968,2.2096,2.1511,2.147,2.1446,2.1411,2.1338,2.1337,2.0602,1.9752,1.9195,1.8651,1.7856,1.7399,1.7256,1.7154,1.7084,1.7,1.6882,1.6786,1.6693,1.6563,1.643,1.6603,1.6852,3.13,3.148,3.1648,3.2207,3.3003,3.3193,3.3602,3.4063,3.4342,3.4462,3.4499,3.4679,3.4799,3.4775,3.4653,3.4531,3.4384,3.4273,3.4187,3.4064,3.4051,3.4075,3.41,3.41,3.41,3.4039,3.4088,3.4162,3.4396,3.4531,3.4628,3.4739,3.4546,3.421,3.3875,3.311,3.2385,3.1787,3.1244,3.0688,3.0244,3.0154,3.0114,2.9877,2.9774,2.9574,2.9282,2.9091,2.8816,2.859,2.851,2.8426,2.8118,2.7822,2.7294,2.6633,2.6039,2.5762,2.5795,2.6263,2.6756,2.7355,2.8076,2.8893,2.9277,2.9032,2.8627,2.8413,2.7676,2.7364,2.7199,2.6754,2.6538,2.6253,2.586,2.5656,2.5426,2.5059,2.5018,2.5004,2.4991,2.4991,2.4991,2.4991,2.4991,2.4991,2.4909,2.4747,2.4123,2.3228,2.2684,2.2182,2.172,2.141,2.1387,2.135,2.1204,2.1075,2.0539,1.9726,1.9023,1.8345,1.7566,1.7002,1.678,1.6687,1.6605,1.6552,1.6486,1.6358,1.6219,1.612,1.6065,1.63,1.6572,3.2597,3.2622,3.2661,3.3012,3.3511,3.3954,3.425,3.4506,3.469,3.4787,3.4799,3.4799,3.4799,3.4726,3.4555,3.4384,3.431,3.4113,3.3927,3.3853,3.3803,3.3693,3.3593,3.3618,3.3668,3.3792,3.3679,3.3828,3.4014,3.4162,3.4322,3.4616,3.4495,3.428,3.3802,3.3244,3.2617,3.187,3.1285,3.0794,3.0474,3.0673,3.0564,3.0381,3.0177,2.9954,2.9535,2.9197,2.8895,2.859,2.851,2.8486,2.837,2.8118,2.7709,2.7114,2.6592,2.6136,2.6061,2.6249,2.6645,2.7327,2.828,2.9356,2.9877,2.9781,2.9416,2.911,2.8625,2.8098,2.7791,2.7317,2.712,2.6835,2.6482,2.6294,2.6036,2.5643,2.5358,2.5317,2.5263,2.4991,2.4991,2.4991,2.4991,2.4991,2.4869,2.4706,2.4055,2.3242,2.2903,2.2577,2.2062,2.1738,2.1633,2.1519,2.129,2.0816,2.0259,1.959,1.8806,1.8077,1.7341,1.6849,1.6402,1.6194,1.61,1.611,1.6098,1.5935,1.5792,1.5748,1.5782,1.6019,1.6341,3.3643,3.42,3.3683,3.3793,3.4274,3.436,3.4531,3.4726,3.4775,3.4799,3.4799,3.4799,3.4799,3.4726,3.4518,3.4273,3.4113,3.3828,3.3527,3.3227,3.2992,3.3024,3.2985,3.2971,3.2877,3.3019,3.3106,3.3344,3.3568,3.3618,3.3866,3.4113,3.4187,3.4126,3.3829,3.3347,3.2689,3.1978,3.1464,3.1214,3.1091,3.1186,3.1164,3.0903,3.0666,3.0349,2.9716,2.9314,2.8914,2.853,2.851,2.851,2.8454,2.837,2.8034,2.7529,2.7133,2.6641,2.6378,2.6321,2.6804,2.7536,2.8438,2.9359,2.9736,2.9784,2.9478,2.9002,2.8605,2.8507,2.8185,2.7904,2.7595,2.7441,2.713,2.6849,2.6565,2.6158,2.5887,2.5752,2.5535,2.5263,2.4991,2.4991,2.4991,2.4991,2.4977,2.4815,2.4489,2.3811,2.354,2.3161,2.255,2.2212,2.2092,2.1728,2.1004,2.0519,2.0035,1.9272,1.8469,1.7761,1.7191,1.6533,1.6064,1.5825,1.5626,1.5692,1.5669,1.548,1.5391,1.5435,1.5633,1.5922,1.626,3.3482,3.4162,3.3744,3.4015,3.4653,3.4653,3.4702,3.4775,3.4799,3.4799,3.4799,3.4799,3.4799,3.4677,3.4396,3.4187,3.4026,3.3456,3.3314,3.328,3.3195,3.3041,3.2939,3.2857,3.287,3.2743,3.269,3.2681,3.2908,3.309,3.3008,3.3208,3.3741,3.3891,3.3702,3.3133,3.2462,3.1983,3.1684,3.1554,3.105,3.138,3.1363,3.0838,3.0628,3.0241,2.9736,2.9321,2.8914,2.863,2.851,2.851,2.851,2.851,2.8238,2.7798,2.7481,2.7109,2.6593,2.639,2.6399,2.7271,2.8071,2.879,2.9249,2.9118,2.8894,2.8599,2.8366,2.8142,2.8016,2.795,2.7916,2.791,2.7746,2.7457,2.7133,2.6755,2.6389,2.6226,2.5861,2.5494,2.5236,2.4991,2.4991,2.4991,2.4978,2.491,2.4611,2.4353,2.4028,2.3541,2.2893,2.2356,2.2197,2.1464,2.0612,2.018,1.9788,1.9033,1.8264,1.7774,1.7168,1.6423,1.5849,1.5707,1.5562,1.5414,1.5323,1.5255,1.5233,1.5221,1.5486,1.5823,1.6244,3.2971,3.3557,3.3446,3.3856,3.4628,3.4677,3.4726,3.4799,3.4799,3.475,3.4677,3.4677,3.464,3.4506,3.4199,3.4117,3.4,3.3605,3.3498,3.3456,3.3443,3.3276,3.3198,3.3138,3.3038,3.2807,3.2814,3.2896,3.3106,3.2819,3.285,3.3033,3.3238,3.3381,3.3193,3.2656,3.2061,3.1924,3.1747,3.1791,3.1198,3.1522,3.1385,3.0797,3.0522,3.0093,2.9598,2.9138,2.8855,2.861,2.851,2.851,2.851,2.8462,2.8286,2.8034,2.7745,2.7517,2.7081,2.6669,2.649,2.7304,2.7702,2.8311,2.8623,2.8573,2.8375,2.8311,2.7881,2.7551,2.7635,2.7739,2.7989,2.7988,2.8138,2.7949,2.7773,2.7463,2.704,2.6701,2.6226,2.5698,2.5481,2.5208,2.4991,2.4991,2.4991,2.4964,2.4868,2.4637,2.4419,2.3851,2.3165,2.2656,2.2165,2.1172,2.0271,1.9863,1.9417,1.8815,1.8162,1.7699,1.7183,1.6466,1.5981,1.5691,1.5495,1.5347,1.5222,1.5131,1.5119,1.5143,1.552,1.59,1.6318,3.2142,3.2434,3.2661,3.3373,3.4212,3.4384,3.4506,3.4604,3.4677,3.4592,3.4409,3.4409,3.4322,3.4138,3.3902,3.4,3.415,3.3771,3.3655,3.3825,3.3657,3.338,3.3247,3.3198,3.3243,3.3422,3.3309,3.3353,3.3659,3.3231,3.3127,3.287,3.278,3.2681,3.2499,3.2011,3.201,3.2315,3.1914,3.1822,3.159,3.1727,3.1323,3.0741,3.0446,3.002,2.9455,2.91,2.883,2.8562,2.851,2.851,2.851,2.851,2.8462,2.8394,2.7986,2.7769,2.7657,2.7341,2.731,2.7348,2.7562,2.7982,2.8512,2.8422,2.7992,2.7849,2.763,2.7317,2.734,2.7443,2.7756,2.8039,2.8163,2.834,2.815,2.8058,2.7623,2.7174,2.6497,2.5887,2.5684,2.5426,2.5099,2.4991,2.4991,2.4977,2.4935,2.474,2.448,2.399,2.3267,2.2561,2.1902,2.0783,1.9962,1.9549,1.9077,1.8539,1.8171,1.7845,1.7238,1.6527,1.6268,1.6127,1.5684,1.5268,1.5372,1.5473,1.5142,1.5176,1.556,1.5965,1.6424,3.0712,3.1289,3.1011,3.1513,3.2574,3.3335,3.3645,3.3768,3.3917,3.4076,3.42,3.42,3.4187,3.4026,3.385,3.3922,3.4176,3.3654,3.3567,3.4267,3.3941,3.3698,3.3579,3.3546,3.3491,3.3281,3.3269,3.3372,3.3305,3.3268,3.295,3.2626,3.2391,3.2172,3.237,3.2233,3.2234,3.2069,3.2004,3.1914,3.1147,3.1312,3.1192,3.0466,3.0306,2.9951,2.9435,2.9205,2.8936,2.8595,2.8558,2.851,2.851,2.851,2.851,2.851,2.8238,2.8238,2.8234,2.8047,2.7705,2.7488,2.7419,2.7673,2.7742,2.7786,2.7526,2.7309,2.7226,2.6914,2.6647,2.6981,2.7323,2.7706,2.795,2.8341,2.8376,2.8367,2.8153,2.7703,2.7121,2.6389,2.5996,2.5545,2.5178,2.4848,2.4778,2.4821,2.4793,2.4565,2.4314,2.3885,2.3267,2.2496,2.163,2.0505,1.9602,1.9089,1.8756,1.8381,1.8077,1.7937,1.7549,1.6961,1.6758,1.6545,1.6146,1.5831,1.5892,1.5852,1.559,1.5384,1.5615,1.6066,1.6565,2.9428,2.9874,2.9618,2.9906,3.0753,3.2044,3.2773,3.3085,3.336,3.3595,3.3803,3.3902,3.3828,3.3679,3.354,3.3743,3.4097,3.3656,3.3841,3.4562,3.4263,3.4098,3.4054,3.4021,3.3923,3.3595,3.359,3.3644,3.3704,3.3447,3.3135,3.2713,3.2169,3.2222,3.2332,3.2228,3.2034,3.1909,3.1965,3.1932,3.1472,3.1293,3.1042,3.0649,3.0337,3.0023,2.9673,2.9405,2.9148,2.8835,2.8631,2.8534,2.8522,2.851,2.851,2.851,2.851,2.8478,2.8462,2.8462,2.8073,2.7688,2.7591,2.7636,2.7583,2.7716,2.7479,2.7218,2.6913,2.6625,2.6475,2.681,2.7084,2.7453,2.7736,2.8115,2.8346,2.8325,2.8414,2.8008,2.7621,2.6916,2.6225,2.5691,2.5214,2.4868,2.4549,2.4564,2.4507,2.4205,2.3915,2.3524,2.2868,2.1939,2.1096,2.0214,1.9366,1.8667,1.8421,1.8235,1.8227,1.8127,1.7751,1.7433,1.723,1.6992,1.6646,1.644,1.6253,1.6175,1.6118,1.593,1.5807,1.6177,1.6713,2.8245,2.8318,2.8538,2.8661,2.9032,3.065,3.1866,3.2686,3.2951,3.3135,3.3281,3.353,3.3431,3.3017,3.2942,3.3336,3.3787,3.359,3.4154,3.4632,3.452,3.4464,3.4419,3.4397,3.4277,3.4376,3.4354,3.4168,3.4376,3.389,3.3458,3.312,3.265,3.2488,3.2305,3.2112,3.1914,3.1886,3.1881,3.1927,3.1793,3.1528,3.1215,3.0878,3.0629,3.0307,2.9971,2.966,2.9431,2.9148,2.8847,2.8643,2.8534,2.851,2.851,2.851,2.851,2.851,2.851,2.851,2.8486,2.8202,2.8318,2.8438,2.8302,2.7987,2.776,2.7488,2.7241,2.6826,2.659,2.679,2.6989,2.722,2.7425,2.7732,2.8016,2.8183,2.8363,2.816,2.7845,2.7238,2.6462,2.5862,2.5206,2.4692,2.4288,2.3897,2.3811,2.3562,2.3282,2.3035,2.2258,2.1238,2.0431,1.9785,1.9123,1.8413,1.8391,1.8271,1.8286,1.8274,1.8004,1.7769,1.7662,1.7407,1.7026,1.6665,1.6367,1.6345,1.6416,1.6354,1.6184,1.6416,1.6865,2.7246,2.7638,2.753,2.7736,2.8218,2.8926,2.9942,3.1069,3.1582,3.2063,3.2659,3.3006,3.3031,3.2905,3.2903,3.331,3.3556,3.3812,3.4211,3.4499,3.4613,3.4513,3.4496,3.4496,3.4496,3.4496,3.4496,3.4485,3.4376,3.4043,3.3814,3.3557,3.3065,3.2759,3.2475,3.2219,3.1965,3.1815,3.1802,3.1915,3.1912,3.1557,3.1307,3.1158,3.0985,3.0645,3.0333,3.0319,3.0053,2.9421,2.9196,2.8967,2.8522,2.851,2.851,2.851,2.851,2.851,2.851,2.851,2.851,2.851,2.851,2.851,2.845,2.8298,2.8058,2.7818,2.7606,2.7305,2.6959,2.6987,2.6974,2.6992,2.7165,2.7372,2.7665,2.7901,2.8085,2.816,2.7848,2.7363,2.661,2.5879,2.5235,2.461,2.4041,2.3534,2.3113,2.2859,2.2665,2.2415,2.1826,2.0852,2.0137,1.9487,1.8825,1.8267,1.8224,1.8251,1.8305,1.8294,1.8195,1.8012,1.7771,1.7573,1.7357,1.6981,1.6551,1.6645,1.6723,1.6653,1.6634,1.6762,1.6937,2.6582,2.7034,2.6917,2.7062,2.7404,2.7674,2.8441,2.9465,3.0443,3.1285,3.1939,3.2505,3.2667,3.2541,3.2524,3.2777,3.3218,3.3347,3.3751,3.4224,3.4509,3.4502,3.4496,3.4474,3.4496,3.4496,3.4485,3.4496,3.4408,3.4305,3.4087,3.401,3.348,3.2999,3.265,3.2267,3.188,3.1757,3.1742,3.1813,3.1717,3.1564,3.1465,3.1377,3.1239,3.1075,3.0768,3.0898,3.0494,2.9878,2.9701,2.9184,2.8775,2.8667,2.8522,2.851,2.851,2.851,2.851,2.851,2.851,2.851,2.851,2.851,2.851,2.8438,2.8262,2.8106,2.801,2.7837,2.7495,2.7198,2.6968,2.6751,2.6892,2.7036,2.7296,2.7562,2.7759,2.7953,2.773,2.7324,2.6691,2.595,2.5135,2.4323,2.3622,2.3041,2.2564,2.2168,2.2017,2.1838,2.1268,2.0522,1.9887,1.9351,1.8902,1.8399,1.8041,1.8107,1.8253,1.8171,1.7959,1.7868,1.7776,1.7523,1.7205,1.7065,1.6784,1.6782,1.6655,1.6511,1.6534,1.6806,1.6994,2.6196,2.6618,2.6618,2.6646,2.6636,2.6917,2.7395,2.8067,2.9622,3.0651,3.127,3.2063,3.2316,3.2153,3.215,3.2285,3.2658,3.2904,3.3265,3.3786,3.4174,3.4277,3.4212,3.4386,3.4212,3.4332,3.4408,3.4354,3.4474,3.4386,3.4321,3.4386,3.3639,3.3098,3.2759,3.223,3.1833,3.1662,3.1669,3.1731,3.1874,3.1767,3.1613,3.1478,3.1495,3.1477,3.1176,3.1017,3.0937,3.0564,3.0167,2.9544,2.9124,2.8775,2.8582,2.851,2.851,2.851,2.851,2.851,2.851,2.851,2.851,2.851,2.851,2.851,2.837,2.8346,2.825,2.8154,2.7878,2.7586,2.7331,2.7084,2.704,2.7121,2.7263,2.7447,2.7538,2.7644,2.7419,2.7012,2.6594,2.5838,2.5145,2.4167,2.3415,2.2811,2.2194,2.1733,2.1466,2.136,2.0835,2.0301,1.9825,1.935,1.9091,1.8666,1.8186,1.8031,1.8244,1.8011,1.767,1.7562,1.7426,1.7204,1.6944,1.6698,1.6442,1.63,1.62,1.621,1.6361,1.6567,1.6818,2.5967,2.6582,2.6618,2.6618,2.6618,2.6664,2.7171,2.796,2.8943,3.0005,3.0925,3.1684,3.2077,3.1975,3.1975,3.2112,3.2348,3.2562,3.2857,3.3294,3.3748,3.3814,3.3617,3.3835,3.377,3.3639,3.3759,3.4174,3.4316,3.4354,3.4277,3.3977,3.3486,3.3191,3.266,3.2132,3.1935,3.1626,3.1593,3.1721,3.1884,3.1842,3.1703,3.1753,3.1842,3.1702,3.1484,3.1466,3.1232,3.0865,3.0708,3.0131,2.9352,2.8823,2.8539,2.851,2.8534,2.851,2.851,2.851,2.851,2.851,2.851,2.851,2.851,2.851,2.851,2.851,2.8474,2.839,2.8258,2.7992,2.7705,2.745,2.7216,2.7256,2.7248,2.7273,2.7313,2.719,2.7028,2.6655,2.6244,2.5752,2.508,2.4361,2.3608,2.2911,2.2173,2.1631,2.1192,2.0979,2.054,2.0051,1.9678,1.9441,1.9236,1.8886,1.8423,1.8308,1.819,1.7698,1.7207,1.7137,1.7011,1.6744,1.6432,1.6085,1.5869,1.5754,1.5657,1.5652,1.5725,1.5907,1.6275,2.5866,2.6582,2.6618,2.6618,2.6618,2.6709,2.7225,2.7987,2.8864,2.9785,3.0655,3.1414,3.1823,3.1823,3.1823,3.1859,3.2099,3.2333,3.2551,3.2879,3.3196,3.3305,3.3316,3.3338,3.3338,3.3251,3.3562,3.3912,3.3977,3.4076,3.3945,3.3508,3.33,3.294,3.2339,3.2186,3.1935,3.1615,3.1604,3.1669,3.1899,3.1937,3.1896,3.1974,3.1895,3.1798,3.1663,3.1626,3.1444,3.1158,3.0997,3.048,2.9761,2.9208,2.8911,2.8799,2.8691,2.851,2.851,2.851,2.851,2.851,2.851,2.851,2.851,2.851,2.851,2.851,2.851,2.8438,2.8426,2.8205,2.7917,2.7649,2.7483,2.7428,2.7127,2.6863,2.6914,2.6869,2.6519,2.5988,2.5662,2.5486,2.4812,2.416,2.3465,2.2841,2.2131,2.1547,2.1106,2.0636,2.0194,2.0064,1.991,1.9664,1.9439,1.9059,1.8616,1.7827,1.7316,1.702,1.6736,1.6563,1.6389,1.6179,1.5859,1.5522,1.5318,1.5201,1.5118,1.5059,1.5162,1.5303,1.558,2.5792,2.6463,2.6564,2.6618,2.6646,2.6845,2.7314,2.8057,2.9006,2.9822,3.0557,3.1296,3.1553,3.1593,3.1593,3.1593,3.1713,3.2012,3.223,3.242,3.2792,3.277,3.2813,3.2934,3.2923,3.3043,3.3278,3.3316,3.3294,3.3502,3.348,3.301,3.2682,3.2339,3.2175,3.1898,3.1604,3.1604,3.1593,3.1593,3.1823,3.2164,3.2124,3.2067,3.1957,3.1972,3.1772,3.1551,3.1501,3.1378,3.1153,3.0708,3.0218,2.9701,2.9364,2.9172,2.8907,2.8691,2.8546,2.851,2.851,2.851,2.851,2.851,2.851,2.851,2.851,2.851,2.851,2.849,2.8478,2.8406,2.813,2.793,2.7769,2.7539,2.7073,2.6593,2.6505,2.6499,2.5948,2.5366,2.5158,2.501,2.459,2.3921,2.3358,2.2662,2.2038,2.1525,2.1051,2.0467,1.9911,1.9846,1.9987,1.9803,1.9537,1.9242,1.8707,1.7458,1.646,1.6197,1.599,1.5845,1.5657,1.5517,1.5294,1.5001,1.4819,1.4715,1.471,1.471,1.4799,1.4917,1.4956,2.5379,2.6132,2.6462,2.66,2.66,2.6645,2.7252,2.8228,2.8864,2.9733,3.0573,3.1245,3.1593,3.1567,3.1593,3.1593,3.1626,3.1811,3.1782,3.1848,3.2295,3.2197,3.2175,3.2405,3.2518,3.2612,3.2721,3.2813,3.2813,3.3043,3.2999,3.2514,3.2507,3.2164,3.1767,3.1593,3.1593,3.1593,3.1593,3.1593,3.1746,3.2077,3.2395,3.2307,3.2189,3.2239,3.2101,3.1646,3.1548,3.146,3.1271,3.0949,3.0636,3.0251,2.9878,2.9601,2.9292,2.8955,2.8811,2.8667,2.8643,2.851,2.851,2.851,2.851,2.851,2.851,2.851,2.849,2.849,2.8471,2.849,2.831,2.8219,2.8072,2.7636,2.7202,2.6607,2.6219,2.5878,2.5378,2.4991,2.4748,2.4611,2.4437,2.3925,2.3715,2.2984,2.1828,2.139,2.0942,2.0241,1.9538,1.9786,1.9955,1.9791,1.9544,1.9291,1.8673,1.7285,1.6171,1.5462,1.5233,1.5197,1.5042,1.489,1.4649,1.4508,1.4458,1.4378,1.4402,1.4417,1.4476,1.4541,1.4601]},{"header":{"parameterUnit":"m.s-1","parameterCategory":1,"la1":31.0,"la2":29.5877,"lo1":-88.7671,"lo2":-86.6584,"dx":0.0162,"dy":0.0185,"nx":115,"ny":88,"refTime":"2023-02-01T18:00:00:Z","depth":0,"parameterNumber":3,"parameterNumberName":"V-component_of_WINDS"},"data":[0.0,0.0,0.0,0.0,0.0,0.0,0.0,0.0,0.0,0.0,0.0,0.0,0.0,0.0,0.0,0.0,0.0,0.0,0.0,0.0,0.0,0.0,0.0,0.0,0.0,0.0,0.0,0.0,0.0,0.0,0.0,0.0,0.0,0.0,0.0,0.0,0.0,0.0,0.0,0.0,0.0,0.0,0.0,0.0,0.0,0.0,0.0,0.0,0.0,0.0,0.0,0.0,0.0,0.0,0.0,0.0,0.0,0.0,0.0,0.0,0.0,0.0,0.0,0.0,0.0,0.0,0.0,0.0,0.0,0.0,0.0,0.0,0.0,0.0,0.0,0.0,0.0,0.0,0.0,0.0,0.0,0.0,0.0,0.0,0.0,0.0,0.0,0.0,0.0,0.0,0.0,0.0,0.0,0.0,0.0,0.0,0.0,0.0,0.0,0.0,0.0,0.0,0.0,0.0,0.0,0.0,0.0,0.0,0.0,0.0,0.0,0.0,0.0,0.0,0.0,0.0,0.0,0.0,0.0,0.0,0.0,0.0,0.0,0.0,0.0,0.0,0.0,0.0,0.0,0.0,0.0,0.0,0.0,0.0,0.0,0.0,0.0,0.0,0.0,0.0,0.0,0.0,0.0,0.0,0.0,0.0,0.0,0.0,0.0,0.0,0.0,0.0,0.0,0.0,0.0,0.0,0.0,0.0,0.0,0.0,0.0,0.0,0.0,0.0,0.0,0.0,0.0,0.0,0.0,0.0,0.0,0.0,0.0,0.0,0.0,0.0,0.0,0.0,0.0,0.0,0.0,0.0,0.0,0.0,0.0,0.0,0.0,0.0,0.0,0.0,0.0,0.0,0.0,0.0,0.0,0.0,0.0,0.0,0.0,0.0,0.0,0.0,0.0,0.0,0.0,0.0,0.0,0.0,0.0,0.0,0.0,0.0,0.0,0.0,0.0,0.0,0.0,0.0,0.0,0.0,0.0,0.0,0.0,0.0,0.0,0.0,0.0,0.0,0.0,0.0,0.0,0.0,0.0,0.0,0.0,0.0,0.0,0.0,0.0,0.0,0.0,0.0,0.0,0.0,0.0,0.0,0.0,0.0,0.0,0.0,0.0,0.0,0.0,0.0,0.0,0.0,0.0,0.0,0.0,0.0,0.0,0.0,0.0,0.0,0.0,0.0,0.0,0.0,0.0,0.0,0.0,0.0,0.0,0.0,0.0,0.0,0.0,0.0,0.0,0.0,0.0,0.0,0.0,0.0,0.0,0.0,0.0,0.0,0.0,0.0,0.0,0.0,0.0,0.0,0.0,0.0,0.0,0.0,0.0,0.0,0.0,0.0,0.0,0.0,0.0,0.0,0.0,0.0,0.0,0.0,0.0,0.0,0.0,0.0,0.0,0.0,0.0,0.0,0.0,0.0,0.0,0.0,0.0,0.0,0.0,0.0,0.0,0.0,0.0,0.0,0.0,0.0,0.0,0.0,0.0,0.0,0.0,0.0,0.0,0.0,0.0,0.0,0.0,0.0,0.0,0.0,0.0,0.0,0.0,0.0,0.0,0.0,0.0,0.0,0.0,0.0,0.0,0.0,0.0,0.0,0.0,0.0,0.0,0.0,0.0,0.0,0.0,0.0,0.0,0.0,0.0,0.0,0.0,0.0,0.0,0.0,0.0,0.0,0.0,0.0,0.0,0.0,0.0,0.0,0.0,0.0,0.0,0.0,0.0,0.0,0.0,0.0,0.0,0.0,0.0,0.0,0.0,0.0,0.0,0.0,0.0,0.0,0.0,0.0,0.0,0.0,0.0,0.0,0.0,0.0,0.0,0.0,0.0,0.0,0.0,0.0,0.0,0.0,0.0,0.0,0.0,0.0,0.0,0.0,0.0,0.0,0.0,0.0,0.0,0.0,0.0,0.0,0.0,0.0,0.0,0.0,0.0,0.0,0.0,0.0,0.0,0.0,0.0,0.0,0.0,0.0,0.0,0.0,0.0,0.0,0.0,0.0,0.0,0.0,0.0,0.0,0.0,0.0,0.0,0.0,0.0,0.0,0.0,0.0,0.0,0.0,0.0,0.0,0.0,0.0,0.0,0.0,0.0,0.0,0.0,0.0,0.0,0.0,0.0,0.0,0.0,0.0,0.0,0.0,0.0,0.0,0.0,0.0,0.0,0.0,0.0,0.0,0.0,0.0,0.0,0.0,0.0,0.0,0.0,0.0,0.0,0.0,0.0,0.0,0.0,0.0,0.0,0.0,0.0,0.0,0.0,0.0,0.0,0.0,0.0,0.0,0.0,0.0,0.0,0.0,0.0,0.0,0.0,0.0,0.0,0.0,0.0,0.0,0.0,0.0,0.0,0.0,0.0,0.0,0.0,0.0,0.0,0.0,0.0,0.0,0.0,0.0,0.0,0.0,0.0,0.0,0.0,0.0,0.0,0.0,0.0,0.0,0.0,0.0,0.0,0.0,0.0,0.0,0.0,0.0,0.0,0.0,0.0,0.0,0.0,0.0,0.0,0.0,0.0,0.0,0.0,0.0,0.0,0.0,0.0,0.0,0.0,0.0,0.0,0.0,0.0,0.0,0.0,0.0,0.0,0.0,0.0,0.0,0.0,0.0,0.0,0.0,0.0,0.0,0.0,0.0,0.0,0.0,0.0,0.0,0.0,0.0,0.0,0.0,0.0,0.0,0.0,0.0,0.0,0.0,0.0,0.0,0.0,0.0,0.0,0.0,0.0,0.0,0.0,0.0,0.0,0.0,0.0,0.0,0.0,0.0,0.0,0.0,0.0,0.0,0.0,0.0,0.0,0.0,0.0,0.0,0.0,0.0,0.0,0.0,0.0,0.0,0.0,0.0,0.0,0.0,0.0,0.0,0.0,0.0,0.0,0.0,0.0,0.0,0.0,0.0,0.0,0.0,0.0,0.0,0.0,0.0,0.0,0.0,0.0,0.0,0.0,0.0,0.0,0.0,0.0,0.0,0.0,0.0,0.0,0.0,0.0,0.0,0.0,0.0,0.0,0.0,0.0,0.0,0.0,0.0,0.0,0.0,0.0,0.0,0.0,0.0,0.0,0.0,0.0,0.0,0.0,0.0,0.0,0.0,0.0,0.0,0.0,0.0,0.0,0.0,0.0,0.0,0.0,0.0,0.0,0.0,0.0,0.0,0.0,0.0,0.0,0.0,0.0,0.0,0.0,0.0,0.0,0.0,0.0,0.0,0.0,0.0,0.0,0.0,0.0,0.0,0.0,0.0,0.0,0.0,0.0,0.0,0.0,0.0,0.0,0.0,0.0,0.0,0.0,0.0,0.0,0.0,0.0,0.0,0.0,0.0,0.0,0.0,0.0,0.0,0.0,0.0,0.0,0.0,0.0,0.0,0.0,0.0,0.0,0.0,0.0,0.0,0.0,0.0,0.0,0.0,0.0,0.0,0.0,0.0,0.0,0.0,0.0,0.0,0.0,0.0,0.0,0.0,0.0,0.0,0.0,0.0,0.0,0.0,0.0,0.0,0.0,0.0,0.0,0.0,0.0,0.0,0.0,0.0,0.0,0.0,0.0,0.0,0.0,0.0,0.0,0.0,0.0,0.0,0.0,0.0,0.0,0.0,0.0,0.0,0.0,0.0,0.0,0.0,0.0,0.0,0.0,0.0,0.0,0.0,0.0,0.0,0.0,0.0,0.0,0.0,0.0,0.0,0.0,0.0,0.0,0.0,0.0,0.0,0.0,0.0,0.0,0.0,0.0,0.0,0.0,0.0,0.0,0.0,0.0,0.0,0.0,0.0,0.0,0.0,0.0,0.0,0.0,0.0,0.0,0.0,0.0,0.0,0.0,0.0,0.0,0.0,0.0,0.0,0.0,0.0,0.0,0.0,0.0,0.0,0.0,0.0,0.0,0.0,0.0,0.0,0.0,0.0,0.0,0.0,0.0,0.0,0.0,0.0,0.0,0.0,0.0,0.0,0.0,0.0,0.0,0.0,0.0,0.0,0.0,0.0,0.0,0.0,0.0,0.0,0.0,0.0,0.0,0.0,0.0,0.0,0.0,0.0,0.0,0.0,0.0,0.0,0.0,0.0,0.0,0.0,0.0,0.0,0.0,0.0,0.0,0.0,0.0,0.0,0.0,0.0,0.0,0.0,0.0,0.0,0.0,0.0,0.0,0.0,0.0,0.0,0.0,0.0,0.0,0.0,0.0,0.0,0.0,0.0,0.0,0.0,0.0,0.0,0.0,0.0,0.0,0.0,0.0,0.0,0.0,0.0,0.0,0.0,0.0,0.0,0.9024,0.0,0.0,0.0,0.0,0.0,0.0,0.0,0.0,0.0,0.0,0.0,0.0,0.0,0.0,0.0,0.0,0.0,0.0,0.0,0.0,0.0,0.0,0.0,0.0,0.0,0.0,0.0,0.0,0.0,0.0,0.0,0.0,0.0,0.0,0.0,0.0,0.0,0.0,0.0,0.0,0.0,0.0,0.0,0.0,0.0,0.0,0.0,0.0,0.0,0.0,0.0,0.0,0.0,0.0,0.0,0.0,0.0,0.0,0.0,0.0,0.0,0.0,0.0,0.0,0.0,0.0,0.0,0.0,0.0,0.0,0.0,0.0,0.0,0.0,0.0,0.0,0.0,0.0,0.0,0.0,0.0,0.0,0.0,0.0,0.0,0.0,0.0,0.0,0.0,0.0,0.0,0.0,0.0,0.0,0.0,0.0,0.0,0.0,0.0,0.0,0.0,0.0,0.0,0.0,0.0,0.0,0.0,0.0,0.0,0.0,0.9348,0.9219,0.9326,0.9411,0.9497,0.0,0.0,0.0,0.0,0.0,0.0,0.0,0.0,0.0,0.0,0.0,0.0,0.0,0.0,0.0,0.0,0.0,0.0,0.0,0.0,0.0,0.0,0.0,0.0,0.0,0.0,0.0,0.0,0.0,0.0,0.0,0.0,0.0,0.0,0.0,0.0,0.0,0.0,0.0,0.0,0.0,0.0,0.0,0.0,0.0,0.0,0.0,0.0,0.0,0.0,0.0,0.0,0.0,0.0,0.0,0.0,0.0,0.0,0.0,0.0,0.0,0.0,0.0,0.0,0.0,0.0,0.0,0.0,0.0,0.0,0.0,0.0,0.0,0.0,0.0,0.0,0.0,0.0,0.0,0.0,0.0,0.0,0.0,0.0,0.0,0.0,0.0,0.0,0.0,0.0,0.0,0.0,0.0,0.0,0.0,0.0,0.0,0.0,0.0,0.0,0.0,0.0,0.0,0.0,0.0,0.0,0.0,0.0,0.0,0.0,0.0,0.0,0.964,0.9949,1.0204,0.0,0.0,0.0,0.0,0.0,0.0,0.0,0.0,0.0,0.0,0.0,0.0,0.0,0.0,0.0,0.0,0.0,0.0,0.0,0.0,0.0,0.0,0.0,0.0,0.0,0.0,0.0,0.0,0.0,0.0,0.0,0.0,0.0,0.0,0.0,0.0,0.0,0.0,0.0,0.0,0.0,0.0,0.0,0.0,0.0,0.0,0.0,0.0,0.0,0.0,0.0,0.0,0.0,0.0,0.0,0.0,0.0,0.0,0.0,0.0,0.0,0.0,0.0,0.0,0.0,0.0,0.0,0.0,0.0,0.0,0.0,0.0,0.0,0.0,0.0,0.0,0.0,0.0,0.0,0.0,0.0,0.0,0.0,0.0,0.0,0.0,0.0,0.0,0.0,0.0,0.0,0.0,0.0,0.0,0.0,0.0,0.0,0.0,0.0,0.0,0.0,0.0,0.0,0.0,0.0,0.0,0.0,0.0,0.0,0.0,0.9573,0.9557,0.9834,0.0,1.1312,0.0,0.0,0.0,0.0,0.0,0.0,0.0,0.0,0.0,0.0,0.0,0.0,0.0,0.0,0.0,0.0,0.0,0.0,0.0,0.0,0.0,0.0,0.0,0.0,0.0,0.0,0.0,0.0,0.0,0.0,0.0,0.0,0.0,0.0,0.0,0.0,0.0,0.0,0.0,0.0,0.0,0.0,0.0,0.0,0.0,0.0,0.0,0.0,0.0,0.0,0.0,0.0,0.0,0.0,0.0,0.0,0.0,0.0,0.0,0.0,0.0,0.0,0.0,0.0,0.0,0.0,0.0,0.0,0.0,0.0,0.0,0.0,0.0,0.0,0.0,0.0,0.0,0.0,0.0,0.0,0.0,0.0,0.0,0.0,0.0,0.0,0.0,0.0,0.0,0.0,0.0,0.0,0.0,0.0,0.0,0.0,0.0,0.0,0.0,0.0,0.0,0.0,0.0,0.0,0.0,0.0,0.0,0.0,0.0,0.0,0.9614,0.9614,1.0051,1.0756,0.0,0.0,0.0,0.0,0.0,0.0,0.0,0.0,0.0,0.0,0.0,0.0,0.0,0.0,0.0,0.0,0.0,0.0,0.0,0.0,0.0,0.0,0.0,0.0,0.0,0.0,0.0,0.0,0.0,0.0,0.0,0.0,0.0,0.0,0.0,0.0,0.0,0.0,0.0,0.0,0.0,0.0,0.0,0.0,0.0,0.0,0.0,0.0,0.0,0.0,0.0,0.0,0.0,0.0,0.0,0.0,0.0,0.0,0.0,0.0,0.0,0.0,0.0,0.0,0.0,0.0,0.0,0.0,0.0,0.0,0.0,0.0,0.0,0.0,0.0,0.0,0.0,0.0,0.0,0.0,0.0,0.0,0.0,0.0,0.0,0.0,0.0,0.0,0.0,0.0,0.0,0.0,0.0,0.0,0.0,0.0,0.0,0.0,0.0,0.0,0.0,0.0,0.0,0.0,0.0,0.0,0.0,0.0,0.0,0.0,0.9738,0.9634,0.9738,1.0249,1.0972,1.1865,0.0,0.0,0.0,0.0,0.0,0.0,0.0,0.0,0.0,0.0,0.0,0.0,0.0,0.0,0.0,0.0,0.0,0.0,0.0,0.0,0.0,0.0,0.0,0.0,0.0,0.0,0.0,0.0,0.0,0.0,0.0,0.0,0.0,0.0,0.0,0.0,0.0,0.0,0.0,0.0,0.0,0.0,0.0,0.0,0.0,0.0,0.0,0.0,0.0,0.0,0.0,0.0,0.0,0.0,0.0,0.0,0.0,0.0,0.0,0.0,0.0,0.0,0.0,0.0,0.0,0.0,0.0,0.0,0.0,0.0,0.0,0.0,0.0,0.0,0.0,0.0,0.0,0.0,0.0,0.0,0.0,0.0,0.0,0.0,0.0,0.0,0.0,0.0,0.0,0.0,0.0,0.0,0.0,0.0,0.0,0.0,0.0,0.0,0.0,0.0,0.0,0.0,0.0,0.0,0.0,0.0,0.0,0.0,0.9999,0.9745,0.9725,0.9973,1.0437,1.1061,0.0,0.0,0.0,0.0,0.0,0.0,0.0,0.0,0.0,0.0,0.0,0.0,0.0,0.0,0.0,0.0,0.0,0.0,0.0,0.0,0.0,0.0,0.0,0.0,0.0,0.0,0.0,0.0,0.0,0.0,0.0,0.0,0.0,0.0,0.0,0.0,0.0,0.0,0.0,0.0,0.0,0.0,0.0,0.0,0.0,0.0,0.0,0.0,0.0,0.0,0.0,0.0,0.0,0.0,0.0,0.0,0.0,0.0,0.0,0.0,0.0,0.0,0.0,0.0,0.0,0.0,0.0,0.0,0.0,0.0,0.0,0.0,0.0,0.0,0.0,0.0,0.0,0.0,0.0,0.0,0.0,0.0,0.0,0.0,0.0,0.0,0.0,0.0,0.0,0.0,0.0,0.0,0.0,0.0,0.0,0.0,0.0,0.0,0.0,0.0,0.0,0.0,0.0,0.0,0.0,0.0,0.0,0.0,0.0,1.0012,0.9725,0.9725,0.9999,1.045,1.1091,0.0,0.0,0.0,0.0,0.0,0.0,0.0,0.0,0.0,0.0,0.0,0.0,0.0,0.0,0.0,0.0,0.0,0.0,0.0,0.0,0.0,0.0,0.0,0.0,0.0,0.0,0.0,0.0,0.0,0.0,0.0,0.0,0.0,0.0,0.0,0.0,0.0,0.0,0.0,0.0,0.0,0.0,0.0,0.0,0.0,0.0,0.0,0.0,0.0,0.0,0.0,0.0,0.0,0.0,0.0,0.0,0.0,0.0,0.0,0.0,0.0,0.0,0.0,0.0,0.0,0.0,0.0,0.0,0.0,0.0,0.0,0.0,0.0,0.0,0.0,0.0,0.0,0.0,0.0,0.0,0.0,0.0,0.0,0.0,0.0,0.0,0.0,0.0,0.0,0.0,0.0,0.0,0.0,0.0,0.0,0.0,0.0,0.0,0.0,0.0,0.0,0.0,0.0,0.0,0.0,0.0,0.0,0.0,0.0,0.9699,0.0,0.9513,0.9597,1.0252,1.0976,0.0,0.0,0.0,0.0,0.0,0.0,0.0,0.0,0.0,0.0,0.0,0.0,0.0,0.0,0.0,0.0,0.0,0.0,0.0,0.0,0.0,0.0,0.0,0.0,0.0,0.0,0.0,0.0,0.0,0.0,0.0,0.0,0.0,0.0,0.0,0.0,0.0,0.0,0.0,0.0,0.0,0.0,0.0,0.0,0.0,0.0,0.0,0.0,0.0,0.0,0.0,0.0,0.0,0.0,0.0,0.0,0.0,0.0,0.0,0.0,0.0,0.0,0.0,0.0,0.0,0.0,0.0,0.0,0.0,0.0,0.0,0.0,0.0,0.0,0.0,0.0,0.0,0.0,0.0,0.0,0.0,0.0,0.0,0.0,0.0,0.0,0.0,0.0,0.0,0.0,0.0,0.0,0.0,0.0,0.0,0.0,0.0,0.0,0.0,0.0,0.0,0.0,0.0,0.0,0.0,0.0,0.0,0.0,1.0005,0.9056,0.9138,0.906,0.8767,0.9811,1.0711,0.0,0.0,0.0,0.0,0.0,0.0,0.0,0.0,0.0,0.0,0.0,0.0,0.0,0.0,0.0,0.0,0.0,0.0,0.0,0.0,0.0,0.0,0.0,0.0,0.0,0.0,0.0,0.0,0.0,0.0,0.0,0.0,0.0,0.0,0.0,0.0,0.0,0.0,0.0,0.0,0.0,0.0,0.0,0.0,0.0,0.0,0.0,0.0,0.0,0.0,0.0,0.0,0.0,0.0,0.0,0.0,0.0,0.0,0.0,0.0,0.0,0.0,0.0,0.0,0.0,0.0,0.0,0.0,0.0,0.0,0.0,0.0,0.0,0.0,0.0,0.0,0.0,0.0,0.0,0.0,0.0,0.0,0.0,0.0,0.0,0.0,0.0,0.0,0.0,0.0,0.0,0.0,0.0,0.0,0.0,0.0,0.0,0.0,0.0,0.0,0.0,0.0,0.0,0.0,0.0,0.0,0.0,0.0,0.0,0.9024,0.8943,0.8853,0.8743,0.9723,1.0579,0.0,0.0,0.0,0.0,0.0,0.0,0.0,0.0,0.0,0.0,0.0,0.0,0.0,0.0,0.0,0.0,0.0,0.0,0.0,0.0,0.0,0.0,0.0,0.0,0.0,0.0,0.0,0.0,0.0,0.0,0.0,0.0,0.0,0.0,0.0,0.0,0.0,0.0,0.0,0.0,0.0,0.0,0.0,0.0,0.0,0.0,0.0,0.0,0.0,0.0,0.0,0.0,0.0,0.0,0.0,0.0,0.0,0.0,0.0,0.0,0.0,0.0,0.0,0.0,0.0,0.0,0.0,0.0,0.0,0.0,0.0,0.0,0.0,0.0,0.0,0.0,0.0,0.0,0.0,0.0,0.0,0.0,0.0,0.0,0.0,0.0,0.0,0.0,0.0,0.0,0.0,0.0,0.0,0.0,0.0,0.0,0.0,0.0,0.0,0.0,0.0,0.0,0.0,0.0,0.0,0.0,0.0,0.0,0.0,0.8863,0.8693,0.8469,0.8154,0.9178,1.0131,1.092,0.0,0.0,0.0,0.0,0.0,0.0,0.0,0.0,0.0,0.0,0.0,0.0,0.0,0.0,0.0,0.0,0.0,0.0,0.0,0.0,0.0,0.0,0.0,0.0,0.0,0.0,0.0,0.0,0.0,0.0,0.0,0.0,0.0,0.0,0.0,0.0,0.0,0.0,0.0,0.0,0.0,0.0,0.0,0.0,0.0,0.0,0.0,0.0,0.0,0.0,0.0,0.0,0.0,0.0,0.0,0.0,0.0,0.0,0.0,0.0,0.0,0.0,0.0,0.0,0.0,0.0,0.0,0.0,0.0,0.0,0.0,0.0,0.0,0.0,0.0,0.0,0.0,0.0,0.0,0.0,0.0,0.0,0.0,0.0,0.0,0.0,0.0,0.0,0.0,0.0,0.0,0.0,0.0,0.0,0.0,0.0,0.0,0.0,0.0,0.0,0.0,0.0,0.0,0.0,0.0,0.0,0.0,0.0,0.8608,0.8416,0.7967,0.7267,0.8376,0.9448,0.0,0.0,0.0,0.0,0.0,0.0,0.0,0.0,0.0,0.0,0.0,0.0,0.0,0.0,0.0,0.0,0.0,0.0,0.0,0.0,0.0,0.0,0.0,0.0,0.0,0.0,0.0,0.0,0.0,0.0,0.0,0.0,0.0,0.0,0.0,0.0,0.0,0.0,0.0,0.0,0.0,0.0,0.0,0.0,0.0,0.0,0.0,0.0,0.0,0.0,0.0,0.0,0.0,0.0,0.0,0.0,0.0,0.0,0.0,0.0,0.0,0.0,0.0,0.0,0.0,0.0,0.0,0.0,0.0,0.0,0.0,0.0,0.0,0.0,0.0,0.0,0.0,0.0,0.0,0.0,0.0,0.0,0.0,0.0,0.0,0.0,0.0,0.0,0.0,0.0,0.0,0.0,0.0,0.0,0.0,0.0,0.0,0.0,0.0,0.0,0.0,0.0,0.0,0.0,0.0,0.0,0.0,0.0,0.0,0.8476,0.8395,0.8041,0.7384,0.8227,0.9168,0.0,0.0,0.0,0.0,0.0,0.0,0.0,0.0,0.0,0.0,0.0,0.0,0.0,0.0,0.0,0.0,0.0,0.0,0.0,0.0,0.0,0.0,0.0,0.0,0.0,0.0,0.0,0.0,0.0,0.0,0.0,0.0,0.0,0.0,0.0,0.0,0.0,0.0,0.0,0.0,0.0,0.0,0.0,0.0,0.0,0.0,0.0,0.0,0.0,0.0,0.0,0.0,0.0,0.0,0.0,0.0,0.0,0.0,0.0,0.0,0.0,0.0,0.0,0.0,0.0,0.0,0.0,0.0,0.0,0.0,0.0,0.0,0.0,0.0,0.0,0.0,0.0,0.0,0.0,0.0,0.0,0.0,0.0,0.0,0.0,0.0,0.0,0.0,0.0,0.0,0.0,0.0,0.0,0.0,0.0,0.0,0.0,0.0,0.0,0.0,0.0,0.0,0.0,0.0,0.0,0.0,0.0,0.0,0.9185,0.8582,0.8411,0.807,0.7549,0.8175,0.9042,0.0,0.0,0.0,0.0,0.0,0.0,0.0,0.0,0.0,0.0,0.0,0.0,0.0,0.0,0.0,0.0,0.0,0.0,0.0,0.0,0.0,0.0,0.0,0.0,0.0,0.0,0.0,0.0,0.0,0.0,0.0,0.0,0.0,0.0,0.0,0.0,0.0,0.0,0.0,0.0,0.0,0.0,0.0,0.0,0.0,0.0,0.0,0.0,0.0,0.0,0.0,0.0,0.0,0.0,0.0,0.0,0.0,0.0,0.0,0.0,0.0,0.0,0.0,0.0,0.0,0.0,0.0,0.0,0.0,0.0,0.0,0.0,0.0,0.0,0.0,0.0,0.0,0.0,0.0,0.0,0.0,0.0,0.0,0.0,0.0,0.0,0.0,0.0,0.0,0.0,0.0,0.0,0.0,0.0,0.0,0.0,0.0,0.0,0.0,0.0,0.0,0.0,0.0,0.0,0.0,0.0,0.0,0.0,0.9368,0.8837,0.848,0.8095,0.7761,0.8131,0.8983,0.0,0.0,0.0,0.0,0.0,0.0,0.0,0.0,0.0,0.0,0.0,0.0,0.0,0.0,0.0,0.0,0.0,0.0,0.0,0.0,0.0,0.0,0.0,0.0,0.0,0.0,0.0,0.0,0.0,0.0,0.0,0.0,0.0,0.0,0.0,0.0,0.0,0.0,0.0,0.0,0.0,0.0,0.0,0.0,0.0,0.0,0.0,0.0,0.0,0.0,0.0,0.0,0.0,0.0,0.0,0.0,0.0,0.0,0.0,0.0,0.0,0.0,0.0,0.0,0.0,0.0,0.0,0.0,0.0,0.0,0.0,0.0,0.0,0.0,0.0,0.0,0.0,0.0,0.0,0.0,0.0,0.0,0.0,0.0,0.0,0.0,0.0,0.0,0.0,0.0,0.0,0.0,0.0,0.0,0.0,0.0,0.0,0.0,0.0,0.0,0.0,0.0,0.0,0.0,0.0,0.0,0.0,0.0,0.9513,0.8982,0.8868,0.852,0.7876,0.8061,0.8833,0.0,0.0,0.0,0.0,0.0,0.0,0.0,0.0,0.0,0.0,0.0,0.0,0.0,0.0,0.0,0.0,0.0,0.0,0.0,0.0,0.0,0.0,0.0,0.0,0.0,0.0,0.0,0.0,0.0,0.0,0.0,0.0,0.0,0.0,0.0,0.0,0.0,0.0,0.0,0.0,0.0,0.0,0.0,0.0,0.0,0.0,0.0,0.0,0.7213,0.0,0.0,0.0,0.0,0.0,0.0,0.0,0.0,0.0,0.0,0.0,0.0,0.0,0.0,0.0,0.0,0.0,0.0,0.0,0.0,0.0,0.0,0.0,0.0,0.0,0.0,0.0,0.0,0.0,0.0,0.0,0.0,0.0,0.0,0.0,0.0,0.0,0.0,0.0,0.0,0.0,0.0,0.0,0.0,0.0,0.0,0.0,0.0,0.0,0.0,0.0,0.0,0.0,0.0,0.0,0.0,0.0,0.0,0.0,0.9816,0.9041,0.9002,0.8677,0.8002,0.8107,0.8888,0.0,0.0,0.0,0.0,0.0,0.0,0.0,0.0,0.0,0.0,0.0,0.0,0.0,0.0,0.0,0.0,0.0,0.0,0.0,0.0,0.0,0.0,0.0,0.0,0.0,0.0,0.0,0.0,0.0,0.0,0.0,0.0,0.0,0.0,0.0,0.0,0.0,0.0,0.0,0.0,0.0,0.0,0.0,0.0,0.0,0.0,0.0,0.0,0.0,0.0,0.0,0.0,0.0,0.0,0.0,0.0,0.0,0.0,0.0,0.0,0.0,0.0,0.0,0.0,0.0,0.0,0.0,0.0,0.0,0.0,0.0,0.0,0.0,0.0,0.0,0.0,0.0,0.0,0.0,0.0,0.0,0.0,0.0,0.0,0.0,0.0,0.0,0.0,0.0,0.0,0.0,0.0,0.0,0.0,0.0,0.0,0.0,0.0,0.0,0.0,0.0,0.0,0.0,0.0,0.0,0.0,0.0,1.0716,1.0168,0.9183,0.9095,0.8746,0.8107,0.8258,0.9021,1.0456,0.0,0.0,0.0,0.0,0.0,0.0,0.0,0.0,0.0,0.0,0.0,0.0,0.0,0.0,0.0,0.0,0.0,0.0,0.0,0.0,0.0,0.0,0.0,0.0,0.0,0.0,0.0,0.0,0.0,0.0,0.0,0.0,0.0,0.0,0.0,0.0,0.0,0.0,0.6051,0.5911,0.0,0.0,0.0,0.0,0.0,0.0,0.0,0.0,0.8129,0.0,0.0,0.0,0.0,0.0,0.0,0.0,0.0,0.0,0.0,0.0,0.0,0.0,0.0,0.0,0.0,0.0,0.0,0.0,0.0,0.0,0.0,0.0,0.0,0.0,0.0,0.0,0.0,0.0,0.0,0.0,0.0,0.0,0.0,0.0,0.0,0.0,0.0,0.0,0.0,0.0,0.0,0.0,0.0,0.0,0.0,0.0,0.0,0.0,0.0,0.0,0.0,0.0,0.0,0.0,0.0,1.1216,1.0753,1.028,0.9752,0.947,0.9056,0.845,0.8506,0.9159,1.0452,0.0,0.0,0.0,0.0,0.0,0.0,0.0,0.0,0.0,0.0,0.0,0.0,0.0,0.0,0.0,0.0,0.0,0.0,0.0,0.0,0.0,0.0,0.0,0.0,0.0,0.0,0.0,0.0,0.0,0.0,0.0,0.0,0.0,0.0,0.0,0.0,0.0,0.0,0.0,0.5981,0.6008,0.0,0.0,0.0,0.0,0.0,0.0,0.0,0.0,0.87,0.0,0.0,0.0,0.0,0.0,0.0,0.0,0.0,0.0,0.0,0.0,0.0,0.0,0.0,0.0,0.0,0.0,0.0,0.0,0.0,0.0,0.0,0.0,0.0,0.0,0.0,0.0,0.0,0.0,0.0,0.0,0.0,0.0,0.0,0.0,0.0,0.0,0.0,0.0,0.0,0.0,0.0,0.0,0.0,0.0,0.0,0.0,0.0,0.0,0.0,0.0,0.0,0.0,0.0,0.0,1.1303,1.1011,1.055,0.9913,0.9611,0.915,0.8579,0.8514,0.915,0.0,0.0,0.0,0.0,0.0,0.0,0.0,0.0,0.0,0.0,0.0,0.0,0.0,0.0,0.0,0.0,0.0,0.0,0.0,0.0,0.0,0.0,0.0,0.0,0.0,0.0,0.0,0.0,0.0,0.0,0.0,0.0,0.0,0.0,0.0,0.0,0.0,0.0,0.0,0.0,0.6344,0.6233,0.6345,0.0,0.0,0.0,0.0,0.0,0.0,0.8329,0.8809,0.0,0.0,0.0,0.0,0.0,0.0,0.0,0.0,0.0,0.0,0.0,0.0,0.0,0.0,0.0,0.0,0.0,0.0,0.0,0.0,0.0,0.0,0.0,0.0,0.0,0.0,0.0,0.0,0.0,0.0,0.0,0.0,0.0,0.0,0.0,0.0,0.0,0.0,0.0,0.0,0.0,0.0,0.0,0.0,0.0,0.0,0.0,0.0,0.0,0.0,0.0,0.0,0.0,0.0,0.0,1.1412,1.1229,1.078,1.0082,0.9701,0.924,0.8669,0.8586,0.9179,0.0,0.0,0.0,0.0,0.0,0.0,0.0,0.0,0.0,0.0,0.0,0.0,0.0,0.0,0.0,0.0,0.0,0.0,0.0,0.0,0.0,0.0,0.0,0.0,0.0,0.0,0.0,0.0,0.0,0.0,0.0,0.0,0.0,0.0,0.0,0.0,0.0,0.0,0.0,0.0,0.0,0.6514,0.6536,0.6876,0.0,0.0,0.0,0.0,0.808,0.8431,0.0,0.0,0.0,0.0,0.0,0.0,0.0,0.0,0.0,0.0,0.0,0.0,0.0,0.0,0.0,0.0,0.0,0.0,0.0,0.0,0.0,0.0,0.0,0.0,0.0,0.0,0.0,0.0,0.0,0.0,0.0,0.0,0.0,0.0,0.0,0.0,0.0,0.0,0.0,0.0,0.0,0.0,0.0,0.0,0.0,0.0,0.0,0.0,0.0,0.0,0.0,0.0,0.0,0.0,0.0,0.0,1.1722,1.1283,1.0872,1.0507,0.9917,0.9323,0.879,0.8928,0.9486,0.0,0.0,0.0,0.0,0.0,0.0,0.0,0.0,0.0,0.0,0.0,0.0,0.0,0.0,0.0,0.0,0.0,0.0,0.0,0.0,0.0,0.0,0.0,0.0,0.0,0.0,0.0,0.0,0.0,0.0,0.0,0.0,0.0,0.0,0.0,0.0,0.0,0.0,0.0,0.0,0.0,0.6797,0.67,0.7216,0.7636,0.0,0.0,0.8627,0.8402,0.8551,0.0,0.0,0.0,0.0,0.0,0.0,0.0,0.0,0.0,0.0,0.0,0.0,0.0,0.0,0.0,0.0,0.0,0.0,0.0,0.0,0.0,0.0,0.0,0.0,0.0,0.0,0.0,0.0,0.0,0.0,0.0,0.0,0.0,0.0,0.0,0.0,0.0,0.0,0.0,0.0,0.0,0.0,0.0,0.0,0.0,0.0,0.0,0.0,0.0,0.0,0.0,0.0,0.0,0.0,0.0,1.1696,1.1676,1.1228,1.0859,1.0594,1.0026,0.9454,0.8942,0.895,0.9508,0.0,0.0,0.0,0.0,0.0,0.0,0.0,0.0,0.0,0.0,0.0,0.0,0.0,0.0,0.0,0.0,0.0,0.0,0.0,0.0,0.0,0.0,0.0,0.0,0.0,0.0,0.0,0.0,0.0,0.0,0.0,0.0,0.0,0.0,0.0,0.0,0.0,0.0,0.0,0.0,0.0,0.0,0.7327,0.7631,0.0,0.0,0.0,0.8818,0.861,0.0,0.0,0.0,0.0,0.0,0.0,0.0,0.0,0.0,0.0,0.0,0.0,0.0,0.0,0.0,0.0,0.0,0.0,0.0,0.0,0.0,0.0,0.0,0.0,0.0,0.0,0.0,0.0,0.0,0.0,0.0,0.0,0.0,0.0,0.0,0.0,0.0,0.0,0.0,0.0,0.0,0.0,0.0,0.0,0.0,0.0,0.0,0.0,0.0,0.0,0.0,0.0,0.0,0.0,0.0,0.0,0.0,1.1642,1.1306,1.097,1.0658,1.0093,0.9567,0.9128,0.8981,0.0,0.0,0.0,0.0,0.0,0.0,0.0,0.0,0.0,0.0,0.0,0.0,0.0,0.0,0.0,0.0,0.0,0.0,0.0,0.0,0.0,0.0,0.0,0.0,0.0,0.0,0.0,1.0145,0.0,0.0,0.0,0.0,0.0,0.0,0.0,0.0,0.0,0.0,0.0,0.0,0.0,0.0,0.7844,0.7917,0.8054,0.8267,0.0,0.0,0.9105,0.8878,0.8965,0.9262,0.0,0.0,0.0,0.0,0.0,0.0,0.0,0.0,0.0,0.0,0.0,0.0,0.0,0.0,0.0,0.0,0.0,0.0,0.0,0.0,0.0,0.0,0.0,0.0,0.0,0.0,0.0,0.0,0.0,0.0,0.0,0.0,0.0,0.0,0.0,0.0,0.0,0.0,0.0,0.0,0.0,0.0,0.0,0.0,0.0,0.0,0.0,0.0,0.0,0.0,0.0,0.0,0.0,0.0,1.2179,1.179,1.1589,1.1231,1.0786,1.014,0.965,0.9376,0.9075,0.9345,0.0,0.0,0.0,0.0,0.0,0.0,0.0,0.0,0.0,0.0,0.0,0.0,0.0,0.0,0.0,0.0,0.0,0.0,0.0,0.0,0.0,0.0,0.0,0.0,0.0,0.0,0.0,0.0,0.0,0.0,0.0,0.0,0.0,0.0,0.0,0.0,0.0,0.0,0.0,0.0,0.0,0.8194,0.825,0.8495,0.8724,0.0,0.9365,0.9574,0.9299,0.9237,0.9448,1.0163,0.0,0.0,0.0,0.0,0.0,0.0,0.0,0.0,0.0,0.0,0.0,0.0,0.0,0.0,0.0,0.0,0.0,0.0,0.0,0.0,0.0,0.0,0.0,0.0,0.0,0.0,0.0,0.0,0.0,0.0,0.0,0.0,0.0,0.0,0.0,0.0,0.0,0.0,0.0,0.0,0.0,0.0,0.0,0.0,0.0,0.0,0.0,0.0,0.0,0.0,0.0,0.0,0.0,1.2156,1.1678,1.1685,1.1408,1.0815,1.0306,0.9717,0.9045,0.8792,0.913,0.0,0.0,0.0,0.0,0.0,0.0,0.0,0.0,0.0,0.0,0.0,0.0,0.0,0.0,0.0,0.0,0.0,0.0,0.0,0.0,0.0,0.0,0.0,0.0,0.0,0.0,0.0,0.0,0.8083,0.7393,0.7381,0.0,0.0,0.0,0.0,0.0,0.0,0.0,0.0,0.0,0.0,0.9231,0.9062,0.934,0.0,0.0,0.9823,1.0,0.9764,0.9636,0.9777,1.0341,1.0465,0.0,0.0,0.0,0.0,0.0,0.0,0.0,0.0,0.0,0.0,0.0,0.0,0.0,0.0,0.0,0.0,0.0,0.0,0.0,0.0,0.0,0.0,0.0,0.0,0.0,0.0,0.0,0.0,0.0,0.0,0.0,0.0,0.0,0.0,0.0,0.0,0.0,0.0,0.0,0.0,0.0,0.0,0.0,0.0,0.0,0.0,0.0,0.0,0.0,0.0,0.0,0.0,1.2579,1.199,1.2033,1.1677,1.0958,1.058,0.9942,0.9006,0.8714,0.9037,0.0,0.0,0.0,0.0,0.0,0.0,0.0,0.0,0.0,0.0,0.0,0.0,0.0,0.0,0.0,0.0,0.0,0.0,0.0,0.0,0.0,0.0,0.0,0.0,0.0,0.0,0.0,0.0,0.8254,0.75,0.7263,0.0,0.0,0.0,0.0,0.0,0.0,0.0,0.0,0.0,0.0,1.0167,1.0053,1.0284,1.0449,1.0398,1.0633,1.0744,1.0563,1.0411,1.044,1.0876,0.0,0.0,0.0,0.0,0.0,0.0,0.0,0.0,0.0,0.0,0.0,0.0,0.0,0.0,0.0,0.0,0.0,0.0,0.0,0.0,0.0,0.0,0.0,0.0,0.0,0.0,0.0,1.5814,0.0,0.0,1.6324,0.0,0.0,0.0,0.0,0.0,0.0,0.0,0.0,0.0,0.0,0.0,0.0,0.0,0.0,0.0,0.0,0.0,0.0,0.0,0.0,0.0,0.0,1.36,1.2873,1.267,1.2165,1.1316,1.1025,1.0379,0.9335,0.898,0.9078,0.9714,0.0,0.0,0.0,0.0,0.0,0.0,0.0,0.0,0.0,0.0,0.0,0.0,0.0,0.0,0.0,0.0,0.0,0.0,0.0,0.0,0.0,0.0,0.0,0.0,0.0,0.0,0.9658,0.8399,0.7492,0.0,0.0,0.0,0.0,0.0,0.0,0.0,0.0,0.0,1.1099,1.0848,1.0828,1.119,1.1275,1.1368,1.1686,1.1838,1.1892,1.1741,1.1567,1.1588,0.0,0.0,0.0,0.0,0.0,0.0,0.0,0.0,0.0,0.0,0.0,0.0,0.0,0.0,0.0,0.0,0.0,0.0,0.0,0.0,0.0,0.0,0.0,0.0,0.0,0.0,0.0,1.6328,1.6273,0.0,0.0,0.0,0.0,0.0,0.0,0.0,0.0,0.0,0.0,0.0,1.8336,1.8336,0.0,0.0,0.0,0.0,0.0,0.0,0.0,0.0,0.0,0.0,0.0,0.0,1.3968,1.3266,1.3137,1.2575,1.1589,1.1434,1.0918,0.9994,0.964,0.9753,1.0359,0.0,0.0,0.0,0.0,0.0,0.0,0.0,0.0,0.0,0.0,0.0,0.0,0.0,0.0,0.0,0.0,0.0,0.0,0.0,0.0,0.0,0.0,0.0,0.0,0.0,1.0676,0.0,0.0,0.0,0.0,0.0,0.0,0.0,0.0,0.0,0.0,0.0,1.1852,1.189,1.1822,1.1776,1.1773,1.199,1.212,0.0,0.0,0.0,0.0,0.0,0.0,0.0,0.0,0.0,0.0,0.0,0.0,0.0,0.0,1.3977,1.3481,1.305,1.2589,1.2076,0.0,0.0,0.0,0.0,0.0,0.0,0.0,0.0,0.0,0.0,0.0,0.0,0.0,0.0,1.6629,0.0,1.6661,0.0,0.0,0.0,0.0,0.0,0.0,0.0,0.0,1.8754,1.8886,1.8886,1.8886,1.8886,0.0,1.8886,1.8442,0.0,0.0,0.0,0.0,0.0,0.0,0.0,0.0,1.464,1.3939,1.3666,1.3152,1.2355,1.2131,1.1631,1.0809,1.0411,1.04,1.0791,1.2009,1.3156,0.0,0.0,0.0,0.0,0.0,0.0,0.0,0.0,0.0,0.0,0.0,0.0,0.0,0.0,0.0,0.0,0.0,0.0,0.0,0.0,0.0,0.0,0.0,1.0401,0.0,0.0,0.0,0.0,0.0,0.0,0.0,0.0,0.0,1.2566,1.248,1.2446,1.2505,1.2529,1.2512,1.2439,0.0,0.0,0.0,0.0,0.0,0.0,0.0,1.2665,1.2963,1.3049,1.3291,1.3887,1.4339,1.4662,1.4765,0.0,0.0,1.3846,1.3421,1.3013,1.2556,1.2348,1.2237,1.2187,1.1886,1.1687,0.0,0.0,0.0,0.0,0.0,0.0,0.0,0.0,1.7256,1.6987,0.0,1.7022,0.0,0.0,0.0,0.0,0.0,1.8203,0.0,0.0,1.9041,1.9015,1.9054,1.9056,1.9028,1.9015,1.9056,1.9023,1.892,1.866,0.0,0.0,0.0,0.0,0.0,0.0,1.5584,1.4927,1.4345,1.3868,1.3516,1.3062,1.2486,1.1752,1.1286,1.1054,1.1078,1.1794,1.2721,1.3791,1.4651,0.0,0.0,0.0,0.0,0.0,0.0,0.0,0.0,0.0,0.0,0.0,0.0,0.0,0.0,0.0,0.0,0.0,0.0,0.0,0.0,1.1071,0.0,0.0,0.0,0.0,0.0,0.0,0.0,0.0,0.0,0.0,1.2737,1.2895,1.2983,1.292,0.0,0.0,0.0,0.0,1.3445,1.3576,1.3598,1.36,1.36,1.36,1.3635,1.3776,0.0,0.0,1.4628,1.4926,1.5119,1.5119,1.4971,1.472,1.4138,1.3702,1.3288,1.2912,1.2861,1.2847,1.2701,1.2176,1.1725,2.0284,0.0,0.0,0.0,0.0,1.8493,1.8449,1.8604,1.8401,1.8325,1.8301,1.7932,0.0,0.0,0.0,0.0,0.0,0.0,2.0033,2.0229,2.1002,2.1394,2.1394,2.1394,2.1394,2.1394,2.1394,2.1342,2.1212,2.1003,2.0077,1.8508,0.0,0.0,0.0,0.0,1.6142,1.5613,1.502,1.4529,1.4152,1.369,1.3108,1.2424,1.2298,1.2148,1.2,1.2128,1.2836,1.4229,1.4731,0.0,0.0,0.0,0.0,0.0,0.0,0.0,0.0,0.0,0.0,0.0,0.0,0.0,0.0,0.0,0.0,0.0,0.0,0.0,1.2128,1.0821,1.0068,0.0,0.0,0.0,0.0,0.0,0.0,0.0,0.0,0.0,1.3178,1.3262,1.3312,0.0,0.0,1.3336,1.3455,1.3515,1.3597,1.3727,1.375,0.0,1.3879,1.3892,1.3962,1.4186,1.4616,1.5006,1.5244,1.5401,1.5503,1.5472,1.5142,1.48,1.4475,1.402,1.3632,1.3418,1.324,1.3118,1.3034,1.249,1.1976,2.3159,2.184,2.0627,2.0149,2.0217,1.9861,1.9804,1.9976,1.9529,1.9402,1.9468,1.8901,1.8693,1.8751,1.8932,0.0,0.0,0.0,2.1416,2.1839,2.2508,2.2926,2.3066,2.3081,2.2964,2.2741,2.2714,2.2582,2.2278,2.2034,2.121,1.9868,0.0,0.0,1.8496,1.7599,1.6901,1.6383,1.5698,1.5264,1.5058,1.4552,1.3897,1.3047,1.3064,1.292,1.254,1.2724,1.326,1.419,1.4855,1.5675,0.0,0.0,0.0,0.0,0.0,0.0,0.0,0.0,0.0,0.0,0.0,1.4696,1.4419,0.0,0.0,0.0,1.3641,1.3078,1.2343,1.1328,0.0,0.0,0.0,0.0,0.0,0.0,0.0,1.2026,1.2596,1.3072,1.336,1.3443,1.3525,1.3586,1.3527,1.3503,1.3575,0.0,1.3704,1.3787,1.3834,1.3903,1.3985,1.4045,1.4221,1.4605,1.5085,1.5468,1.5657,1.5814,1.585,1.5662,1.529,1.4892,1.4638,1.4245,1.3893,1.3727,1.3598,1.3503,1.3455,1.2829,1.2297,2.6211,2.5973,2.3292,2.2219,2.2176,2.1489,2.1453,2.1772,2.0779,2.0444,2.061,2.0018,1.9829,1.9993,2.0427,0.0,2.2188,2.2256,2.2804,2.3675,2.3701,2.3905,2.4259,2.4271,2.3955,2.3447,2.3405,2.3157,2.2712,2.2397,2.2175,2.2033,2.149,2.0727,1.9734,1.861,1.7765,1.7159,1.6383,1.6019,1.6081,1.5523,1.4711,1.3658,1.3684,1.3441,1.2874,1.3455,1.3846,1.3936,1.5072,1.5944,1.6427,0.0,0.0,0.0,0.0,0.0,0.0,0.0,0.0,0.0,0.0,0.0,0.0,0.0,0.0,0.0,1.347,0.0,1.3026,1.2303,0.0,0.0,0.0,1.1081,1.1346,1.1715,1.2054,1.2326,0.0,0.0,1.3409,1.3527,1.361,1.3621,1.361,1.361,1.3621,1.3716,1.3833,1.3856,1.3973,1.4032,1.4126,1.4222,1.4501,1.5051,1.5423,1.5746,1.6012,1.6133,1.6091,1.5828,1.5413,1.4994,1.4651,1.4397,1.4152,1.3881,1.3926,1.3939,1.3791,1.3143,1.2574,2.816,2.7992,2.7195,2.5895,2.434,2.3901,2.3536,2.3217,2.3205,2.3049,2.2737,2.2233,2.2032,2.2083,2.2607,2.3203,2.3849,2.4527,2.4938,2.5189,2.5497,2.5686,2.5773,2.5667,2.5542,2.5423,2.5256,2.5116,2.501,2.506,2.508,2.5042,2.4801,2.3107,2.0077,1.9137,1.8341,1.7637,1.7051,1.6486,1.596,1.5648,1.5237,1.474,1.4204,1.3902,1.3837,1.3966,1.4299,1.4848,1.5492,1.6158,1.6824,1.7058,0.0,0.0,0.0,0.0,0.0,0.0,0.0,0.0,0.0,1.4903,1.4558,0.0,1.4303,0.0,1.3608,1.3228,1.315,1.2577,0.0,0.0,1.1864,1.1777,1.1898,1.2271,1.2593,1.2808,1.323,1.3551,1.3692,1.3727,1.3762,1.3751,1.3656,1.3644,1.3727,1.3856,1.4021,1.4209,1.4291,1.4372,1.4557,1.4765,1.5006,1.5412,1.5791,1.6166,1.647,1.6437,1.6242,1.5867,1.5502,1.5119,1.4696,1.4557,1.4419,1.4175,1.4057,1.3985,1.394,1.3231,1.2605,3.0207,3.0075,2.984,2.8936,2.7562,2.6336,2.5616,2.5305,2.5216,2.5176,2.5164,2.478,2.4692,2.482,2.512,2.549,2.5925,2.6433,2.6741,2.6912,2.7072,2.7201,2.733,2.7093,2.6802,2.6472,2.6516,2.6435,2.624,2.6403,2.6508,2.6474,2.5859,2.4504,2.2444,2.0864,1.9663,1.8872,1.7858,1.7115,1.6631,1.6059,1.5648,1.5359,1.4731,1.436,1.434,1.4666,1.5023,1.5364,1.6004,1.6561,1.706,1.7157,1.7222,0.0,0.0,0.0,0.0,0.0,0.0,0.0,0.0,0.0,0.0,0.0,1.4431,1.4292,1.3938,1.3707,1.3741,1.3326,1.2991,1.2826,1.26,1.2449,1.2452,1.2727,1.2975,1.3158,1.3515,1.3809,1.388,1.389,1.3915,1.3964,1.3941,1.3964,1.3987,1.4104,1.4267,1.4454,1.4546,1.4615,1.4799,1.5017,1.53,1.5634,1.6032,1.6437,1.6729,1.6641,1.6416,1.6055,1.5658,1.5278,1.4914,1.4754,1.4638,1.4512,1.4407,1.4302,1.4116,1.3582,1.3141,3.2119,3.198,3.1673,3.1317,3.0785,2.8729,2.7735,2.7464,2.6981,2.7074,2.7519,2.7283,2.7314,2.7534,2.7679,2.7883,2.8149,2.8275,2.8508,2.8816,2.8688,2.8728,2.8918,2.8572,2.8026,2.7336,2.7627,2.7501,2.7056,2.7232,2.7327,2.725,2.6113,2.554,2.545,2.3074,2.1269,2.0167,1.8664,1.7788,1.7581,1.6673,1.6067,1.5799,1.5312,1.4925,1.4682,1.5441,1.5814,1.5743,1.6494,1.7002,1.7201,1.7222,1.7222,0.0,1.7073,0.0,0.0,0.0,0.0,0.0,0.0,0.0,0.0,1.4673,1.4558,1.4442,1.4316,1.4303,1.4407,1.4232,1.3986,1.3716,1.3351,1.3122,1.3017,1.3166,1.3314,1.3455,1.3821,1.4055,1.4045,1.4067,1.4138,1.4269,1.4385,1.4466,1.4432,1.4478,1.457,1.4685,1.4799,1.488,1.4891,1.5142,1.548,1.5822,1.6227,1.6618,1.691,1.6825,1.6622,1.6275,1.5858,1.5446,1.5165,1.4937,1.4799,1.4776,1.4765,1.465,1.4363,1.4014,1.3839,3.3136,3.3012,3.2936,3.2425,3.1558,3.1134,3.0002,2.8462,2.8708,2.8814,2.8755,2.8706,2.8706,2.8829,2.9595,3.0029,3.0099,3.0735,3.1101,3.1136,3.0972,3.0802,3.0682,3.0362,2.994,2.9489,2.93,2.9074,2.8821,2.8942,2.9043,2.8994,2.8139,2.7446,2.6827,0.0,0.0,0.0,1.8901,1.8263,1.8062,1.7504,1.6968,1.6445,1.6016,0.0,1.5508,1.5939,1.6232,1.6352,1.6748,0.0,0.0,0.0,0.0,0.0,0.0,0.0,0.0,0.0,0.0,0.0,1.6293,1.5888,1.5378,1.4903,1.4592,1.4569,1.4546,1.4535,1.4558,1.4604,1.4499,1.4129,1.4023,1.3847,1.3513,1.3597,1.3727,1.3868,1.4161,1.4326,1.4348,1.4407,1.4547,1.472,1.4789,1.5006,1.5422,1.5175,1.5051,1.5266,1.5221,1.5165,1.5063,1.5357,1.5737,1.6129,1.6434,1.6782,1.7055,1.6981,1.678,1.6489,1.6068,1.5603,1.5186,1.4971,1.4869,1.4799,1.4799,1.4788,1.4696,1.4306,1.396,3.3915,3.3759,3.3759,3.3425,0.0,3.2528,3.1783,3.0791,3.0305,3.0324,3.0716,3.1085,3.1234,3.119,3.1706,3.1879,3.1787,3.221,3.2389,3.2375,3.2116,3.1903,3.1723,3.1079,3.0607,3.0257,3.0082,2.989,2.9714,2.9968,3.0039,2.9945,2.9082,2.8317,2.7606,2.518,2.2735,2.0278,1.9487,1.8951,1.8637,1.8016,1.7379,1.6732,1.6311,0.0,0.0,0.0,0.0,0.0,0.0,0.0,0.0,0.0,0.0,1.7199,1.7126,1.7094,1.7084,1.6989,1.6939,1.6952,1.6618,1.612,1.5446,1.4994,1.4731,1.4719,1.4719,1.4766,1.4834,1.4846,1.4754,1.4559,1.4466,1.4268,1.3977,1.4011,1.4213,1.4476,1.4549,1.4658,1.5008,1.4969,1.5017,1.5209,1.5367,1.5612,1.5998,1.5691,1.5401,1.5468,1.5379,1.5289,1.5233,1.5503,1.587,1.6239,1.6575,1.6886,1.7147,1.7052,1.692,1.6808,1.6386,1.5823,1.5262,1.5084,1.5062,1.4971,1.4949,1.4949,1.4937,1.4677,1.4451,3.4573,3.443,3.443,3.429,3.403,3.3499,3.3203,3.3009,0.0,0.0,0.0,3.3214,3.3438,3.333,3.3432,3.3369,3.3215,3.3302,3.3345,3.3314,3.3074,3.2833,3.2636,3.1816,3.1195,3.0811,3.0699,3.0555,3.0325,3.059,3.0622,3.0374,2.9504,2.8599,2.7579,2.5203,2.299,2.1134,2.0329,1.9725,1.9231,1.856,1.7853,1.7123,1.6666,1.6371,1.6214,1.6442,1.6671,1.6907,1.7094,1.7222,1.7222,1.7222,1.7222,1.7222,1.7222,1.7222,1.7199,1.7094,1.7076,1.717,1.6799,1.6241,1.548,1.5142,1.4937,1.4868,1.4914,1.5017,1.5131,1.5177,1.5154,1.5097,1.5014,1.487,1.4624,1.4671,1.4916,1.5214,1.5232,1.5287,1.5815,1.5719,1.5655,1.5856,1.6007,1.6186,1.6358,1.6065,1.5714,1.5569,1.5435,1.5335,1.5346,1.5593,1.5924,1.6238,1.6627,1.696,1.7115,1.7118,1.7081,1.7148,1.6683,1.6062,1.5448,1.5319,1.53,1.5153,1.5119,1.5108,1.5097,1.5017,1.4926,3.5338,3.5306,3.5322,3.4993,3.441,3.432,3.3961,3.3408,3.309,3.3106,3.3349,3.3439,3.3484,3.3499,3.388,3.4039,3.4068,3.4438,3.4622,3.4623,3.4589,3.439,3.4088,3.3616,3.302,3.2366,3.1902,3.1499,3.1148,3.0835,3.0679,3.0545,2.9705,2.8331,2.6481,2.4933,2.3719,2.2817,2.1548,2.0547,1.9805,1.9508,1.9022,1.8277,1.7708,1.7253,1.6958,1.6883,1.6897,1.6992,1.7126,1.7222,1.7222,1.7222,1.7222,1.7222,1.7222,1.7222,1.7212,1.7191,1.7126,1.7021,1.6905,1.6575,1.5968,1.5491,1.521,1.5085,1.5176,1.5267,1.5301,1.581,1.6068,1.5904,1.6177,1.6281,1.5965,1.5953,1.601,1.6123,1.6425,1.6565,1.6685,1.6658,1.667,1.6859,1.6759,1.6496,1.6535,1.6382,1.611,1.5759,1.5559,1.5435,1.5345,1.557,1.5901,1.6236,1.6637,1.696,1.718,1.7191,1.7162,1.7209,1.6797,1.6369,1.5983,1.5678,1.5457,1.53,1.5176,1.5108,1.5108,1.5085,1.5051,3.5669,3.5749,3.5653,3.5441,3.5139,3.509,3.4876,3.4576,3.4512,3.4303,3.4099,3.4412,3.4592,3.4622,3.4811,3.4913,3.4912,3.5129,3.5245,3.5228,3.5115,3.4918,3.4635,3.4196,3.3597,3.2864,3.2268,3.1753,3.131,3.1005,3.0811,3.064,2.9636,2.8587,2.752,2.5934,2.4792,2.4083,2.223,2.1055,2.0628,2.0411,1.9825,1.8808,1.8647,1.8179,1.7354,1.7346,1.7248,1.7107,1.7157,1.7222,1.7222,1.7222,1.7353,1.7667,1.7682,1.7813,1.8114,1.8127,1.8105,1.8039,1.7976,1.7787,1.7436,1.634,1.5626,1.5491,1.5591,1.5821,1.6175,1.652,1.6714,1.6753,1.6866,1.6747,1.6424,1.6349,1.65,1.6817,1.6946,1.7199,1.7671,1.7629,1.7662,1.7881,1.772,1.7502,1.7263,1.7058,1.6609,1.588,1.5525,1.5391,1.5335,1.5548,1.5869,1.6249,1.6575,1.6876,1.7139,1.7222,1.7212,1.7209,1.6931,1.6595,1.6267,1.591,1.5636,1.5424,1.5221,1.5119,1.5108,1.5108,1.5108,3.5815,3.5973,3.5831,3.5736,3.5703,3.5588,3.5522,3.5489,3.5489,3.5205,3.4847,3.528,3.5489,3.5489,3.5489,3.5489,3.5489,3.5489,3.5489,3.5473,3.5343,3.5164,3.4935,3.4467,3.3857,3.3164,3.2489,3.1909,3.1458,3.1155,3.0911,3.0684,2.9769,2.9183,2.8869,2.7242,2.6056,2.523,2.3329,2.21,2.1728,2.1458,2.0832,2.001,1.9667,1.9096,1.8163,1.8019,1.7777,1.7436,1.7395,1.7408,1.7408,1.7408,1.7656,1.8205,1.8283,1.8453,1.8834,1.8886,1.8886,1.8886,1.8843,1.8764,1.8548,1.7412,1.6426,1.6197,1.6274,1.6531,1.6992,1.735,1.7516,1.7666,1.7563,1.738,1.6942,1.6816,1.7005,1.7544,1.762,1.7901,1.8435,1.8571,1.8506,1.852,1.8484,1.825,1.7869,1.7485,1.6836,1.622,1.5718,1.5626,1.5603,1.5891,1.6163,1.6406,1.6701,1.6956,1.7156,1.718,1.7222,1.7191,1.7055,1.6789,1.6452,1.613,1.5824,1.5603,1.5345,1.5153,1.5108,1.5108,1.5108,3.5815,3.5989,3.5973,3.5863,3.5704,3.5688,3.5605,3.5521,3.5489,3.5489,3.5385,3.5458,3.5489,3.5489,3.5489,3.5489,3.5489,3.5489,3.5489,3.5489,3.5488,3.5374,3.5148,3.48,3.4315,3.3652,3.2793,3.2178,3.1798,3.1254,3.0986,3.093,3.0507,2.9985,2.9431,2.843,2.7432,2.6539,2.555,2.447,2.3337,2.2802,2.2569,2.2643,2.0933,2.0016,1.9849,1.916,1.8486,1.8076,1.8022,1.8009,1.8022,1.8009,1.8257,1.878,1.8845,1.8858,1.8899,1.8886,1.895,1.8886,1.8965,1.892,1.8841,1.8535,1.7987,1.7346,1.7219,1.7311,1.7399,1.8205,1.8635,1.8486,1.8531,1.8522,1.8198,1.8041,1.808,1.8439,1.8667,1.9131,1.9341,1.9408,1.918,1.8702,1.8463,1.8175,1.7751,1.7299,1.6955,1.6717,1.6488,1.6368,1.6442,1.6817,1.686,1.6815,1.7116,1.7262,1.7205,1.7188,1.7222,1.7201,1.7107,1.6918,1.6663,1.6385,1.6047,1.5703,1.5447,1.5233,1.5142,1.5108,1.5108,3.6467,3.6304,3.6164,3.6022,3.5863,3.5736,3.5671,3.5605,3.5522,3.5489,3.5489,3.5489,3.5489,3.5489,3.5489,3.5489,3.5489,3.5489,3.5489,3.5489,3.5489,3.539,3.518,3.4949,3.4467,3.377,3.297,3.2341,3.1858,3.1272,3.1005,3.0968,3.0704,3.0474,3.0173,2.9277,2.8612,2.8211,2.7551,2.6781,2.5926,2.4347,2.3391,2.3142,2.2216,2.1233,2.045,1.9983,1.9419,1.8664,1.8584,1.856,1.8571,1.8571,1.8819,1.9394,1.9772,1.9967,1.9954,1.9967,1.9967,1.9954,1.9967,1.9943,1.9907,1.956,1.9129,1.878,1.8354,1.8242,1.8645,1.9047,1.922,1.9168,1.9049,1.8813,1.8545,1.8381,1.8422,1.8787,1.9106,1.946,1.9747,1.9902,1.9748,1.9307,1.8958,1.8545,1.8185,1.7863,1.7668,1.756,1.7483,1.7159,1.6806,1.6796,1.7024,1.7218,1.7253,1.7212,1.7492,1.7297,1.7222,1.7212,1.7149,1.6992,1.674,1.6462,1.6148,1.5782,1.5413,1.5153,1.5119,1.5108,1.5108,3.704,3.6737,3.6413,3.6195,3.6037,3.5895,3.5784,3.5688,3.5589,3.5522,3.5489,3.5489,3.5489,3.5489,3.5489,3.5489,3.5489,3.5489,3.5489,3.5489,3.5489,3.5423,3.5261,3.5001,3.4672,3.4151,3.3355,3.2582,3.1915,3.1467,3.1143,3.0994,3.0855,3.0792,3.0716,3.0015,2.9596,2.9399,2.899,2.8495,2.7712,2.5965,2.467,2.4074,2.3473,2.2542,2.1303,2.0926,2.0365,1.9495,1.9284,1.9215,1.925,1.9227,1.9467,1.9994,2.0438,2.0699,2.0699,2.0699,2.0699,2.0699,2.0699,2.0699,2.0621,2.0308,2.006,1.9983,1.9524,1.9387,1.9551,1.9675,1.971,1.9683,1.9356,1.9,1.8759,1.8597,1.8664,1.9013,1.933,1.9668,2.0029,2.0144,2.0042,1.9658,1.9334,1.9001,1.8639,1.8375,1.8226,1.8123,1.8075,1.78,1.716,1.7231,1.7431,1.7531,1.758,1.7626,1.7781,1.743,1.7183,1.7182,1.7159,1.7013,1.6695,1.6417,1.6114,1.5726,1.5368,1.5108,1.5108,1.5108,1.5108,3.7301,3.7338,3.6753,3.6398,3.6195,3.6179,3.599,3.5736,3.5688,3.5636,3.5521,3.5534,3.5519,3.5549,3.5609,3.5519,3.5519,3.5549,3.5594,3.5624,3.5594,3.5533,3.5455,3.5113,3.5022,3.5094,3.406,3.2972,3.1906,3.1784,3.1503,3.1026,3.0981,3.0986,3.0936,3.0709,3.0356,2.989,2.9805,2.923,2.8226,2.7594,2.6762,2.567,2.4616,2.3704,2.3027,2.2034,2.1249,2.0823,2.0281,2.0024,2.0103,2.0022,2.0167,2.0593,2.0686,2.0699,2.0699,2.0699,2.0699,2.0699,2.0699,2.0699,2.0699,2.0621,2.0569,2.0621,2.0504,2.0296,1.9958,2.0147,2.0232,1.9978,1.9603,1.9276,1.9012,1.8853,1.8906,1.9172,1.9513,1.9913,2.0372,2.0309,1.9939,1.9526,1.9172,1.8854,1.8503,1.8259,1.8139,1.8111,1.8098,1.8063,1.8033,1.7894,1.7993,1.8072,1.8041,1.8105,1.7734,1.7419,1.7261,1.71,1.7006,1.6846,1.6586,1.6293,1.599,1.5635,1.5311,1.5119,1.5108,1.5108,1.5165,3.7812,3.7477,3.7246,3.7091,3.6966,3.6442,3.6117,3.6022,3.58,3.5671,3.5696,3.5989,3.6149,3.6163,3.6552,3.6507,3.6163,3.6133,3.6342,3.6669,3.6716,3.6731,3.6683,3.6356,3.6066,3.5782,3.4718,3.3555,3.2417,3.1993,3.1706,3.1477,3.1156,3.1005,3.1005,3.1061,3.0981,3.0784,3.0895,3.0378,2.928,2.9051,2.8239,2.6733,2.5463,2.4593,2.4114,2.3333,2.2498,2.1595,2.133,2.1063,2.0755,2.0666,2.0759,2.0982,2.0899,2.0812,2.0812,2.075,2.0699,2.0699,2.0699,2.0699,2.0699,2.0699,2.0699,2.0699,2.0699,2.0555,2.0465,2.047,2.0398,2.0131,1.9759,1.946,1.9276,1.9078,1.8999,1.9211,1.9539,1.9965,2.0258,2.0105,1.9694,1.933,1.8974,1.8614,1.8302,1.8139,1.8098,1.8098,1.8098,1.8098,1.8098,1.8127,1.8184,1.8266,1.8269,1.8029,1.7712,1.738,1.718,1.6863,1.6767,1.6645,1.6383,1.6066,1.5769,1.5491,1.5176,1.5187,1.5108,1.5187,1.5337,3.8446,3.7877,3.7814,3.7692,3.743,3.6888,3.6457,3.6241,3.6187,3.6132,3.6155,3.6625,3.6858,3.6868,3.7225,3.7345,3.7092,3.6928,3.7015,3.7357,3.7387,3.7387,3.7336,3.7055,3.6802,3.644,3.5428,3.4232,3.3066,3.2587,3.2189,3.1784,3.1412,3.1194,3.1138,3.1216,3.131,3.1416,3.154,3.1089,3.0193,2.99,2.9202,2.7894,2.6585,2.554,2.4883,2.411,2.3378,2.263,2.2215,2.1783,2.1322,2.1253,2.1277,2.1314,2.117,2.1036,2.0986,2.085,2.0762,2.0749,2.0724,2.0699,2.0699,2.0699,2.0699,2.0699,2.0699,2.0699,2.0674,2.0612,2.0486,2.0271,1.9952,1.9642,1.9433,1.9198,1.9184,1.9354,1.9604,1.9952,2.0246,1.9939,1.9617,1.9303,1.8921,1.8545,1.8261,1.8139,1.8098,1.8098,1.8098,1.8098,1.8098,1.8111,1.8218,1.8312,1.8366,1.809,1.7665,1.7337,1.6975,1.6671,1.6476,1.6377,1.6169,1.5848,1.5581,1.5323,1.5289,1.5334,1.53,1.5323,1.5613,3.9122,3.8554,3.8507,3.8168,3.7723,3.7538,3.7012,3.6532,3.6944,3.7009,3.69,3.7436,3.7588,3.7484,3.7616,3.7806,3.8153,3.7781,3.7571,3.7614,3.7567,3.7584,3.7564,3.7309,3.71,3.7057,3.6142,3.4989,3.3742,3.3504,3.2954,3.2084,3.1868,3.1624,3.1331,3.1386,3.1421,3.1577,3.1633,3.1317,3.0721,3.0245,2.9717,2.9083,2.7983,2.6802,2.5538,2.4445,2.3889,2.3743,2.2945,2.2211,2.1951,2.1833,2.1758,2.1662,2.1508,2.135,2.1242,2.1036,2.0913,2.0875,2.0774,2.0724,2.0699,2.0699,2.0699,2.0699,2.0699,2.0699,2.0699,2.0699,2.0649,2.0499,2.0182,1.9836,1.9499,1.9277,1.9278,1.9487,1.9643,1.9901,2.0067,1.9939,1.9656,1.9395,1.9039,1.8704,1.8449,1.8261,1.8125,1.8125,1.8179,1.822,1.8166,1.8111,1.8245,1.8344,1.8394,1.826,1.7665,1.7242,1.6704,1.6361,1.6138,1.6036,1.6013,1.5748,1.5738,1.5547,1.5547,1.5525,1.5559,1.5664,1.6098,3.9799,3.9214,3.9184,3.9091,3.8814,3.84,3.7997,3.7795,3.7944,3.7889,3.7893,3.8219,3.8351,3.8402,3.8624,3.8868,3.908,3.8995,3.8905,3.8784,3.8748,3.8766,3.8728,3.8513,3.8033,3.7234,3.6352,3.5561,3.4827,3.4157,3.3621,3.3337,3.2455,3.2077,3.208,3.1865,3.1762,3.1817,3.2028,3.1875,3.1367,3.1227,3.0723,2.9775,2.897,2.8173,2.7332,2.6055,2.5062,2.4436,2.417,2.3748,2.3166,2.2595,2.2354,2.2434,2.2053,2.1807,2.1712,2.1365,2.1098,2.0985,2.0899,2.08,2.0699,2.0699,2.0699,2.0699,2.0699,2.0699,2.0699,2.0788,2.0801,2.0662,2.0347,1.9978,1.9539,1.9107,1.9001,1.9252,1.937,1.9578,1.9888,1.9836,1.9643,1.9526,1.9131,1.8771,1.8651,1.8435,1.8356,1.8412,1.8412,1.8396,1.8369,1.8342,1.8396,1.8423,1.8427,1.8292,1.7712,1.715,1.6609,1.6137,1.5905,1.5803,1.578,1.578,1.5792,1.5782,1.5737,1.5761,1.5818,1.6158,1.6644,4.0517,4.0127,4.0147,3.9941,3.9594,3.9146,3.8773,3.8553,3.8684,3.871,3.8715,3.9121,3.9238,3.9257,3.9495,3.9607,3.9655,3.9783,3.9868,3.9971,3.9983,3.9983,3.9971,3.9798,3.9053,3.7832,3.698,3.6216,3.5507,3.4814,3.4393,3.4033,3.329,3.2765,3.2615,3.2377,3.2219,3.2136,3.2286,3.2288,3.2034,3.1864,3.1323,3.0411,2.9748,2.9062,2.8292,2.7519,2.6576,2.5549,2.5221,2.4831,2.4369,2.3891,2.3693,2.3705,2.3365,2.2968,2.2613,2.2097,2.153,2.1222,2.1022,2.0912,2.0823,2.0824,2.0811,2.0811,2.1047,2.1153,2.1178,2.1216,2.1217,2.109,2.059,2.0067,1.9526,1.9,1.8841,1.9066,1.9185,1.9447,1.9733,1.9759,1.9591,1.9539,1.9225,1.8866,1.8786,1.8624,1.8598,1.8598,1.856,1.8572,1.8612,1.8612,1.8573,1.852,1.8454,1.8187,1.7769,1.7241,1.6702,1.6125,1.5773,1.5892,1.589,1.5957,1.5991,1.597,1.6002,1.6145,1.6327,1.6809,1.7319,4.1272,4.1169,4.1256,4.0765,4.0016,3.9888,3.9477,3.8895,3.9276,3.9436,3.9455,3.9893,4.0111,4.0001,3.9945,3.994,4.0008,4.0147,4.0438,4.0864,4.1091,4.1183,4.1007,4.0808,4.0031,3.8908,3.8023,3.707,3.6115,3.5602,3.507,3.448,3.4226,3.3811,3.3211,3.2934,3.2715,3.2586,3.249,3.2533,3.2639,3.2245,3.165,3.1045,3.0438,2.9686,2.8914,2.8725,2.8135,2.6835,2.6107,2.5769,2.5604,2.5547,2.536,2.5338,2.5105,2.45,2.3801,2.3211,2.2613,2.2098,2.1783,2.1221,2.1541,2.1636,2.1635,2.1622,2.194,2.2112,2.2086,2.2085,2.198,2.1601,2.0784,1.999,1.9317,1.8959,1.8853,1.896,1.913,1.9367,1.9772,1.9745,1.978,1.9715,1.9554,1.9371,1.9049,1.8937,1.875,1.8703,1.8719,1.8732,1.8786,1.8773,1.8747,1.8734,1.8654,1.8428,1.7962,1.7419,1.6703,1.6136,1.5839,1.5947,1.6077,1.6177,1.6286,1.636,1.6457,1.6607,1.6952,1.7432,1.7997,4.1867,4.1818,4.1721,4.1446,4.1106,4.0889,4.0545,4.022,4.0173,4.0166,4.019,4.0255,4.0261,4.0207,4.0066,4.0011,4.0201,4.0672,4.1003,4.1387,4.2466,4.2365,4.1799,4.1415,4.0995,4.0313,3.9237,3.8229,3.7565,3.661,3.5943,3.5586,3.4986,3.4641,3.4475,3.3636,3.3293,3.3284,3.3,3.2846,3.2907,3.2915,3.2608,3.2024,3.1422,3.0806,3.0169,2.9762,2.9014,2.7833,2.7319,2.6934,2.663,2.6218,2.6026,2.6026,2.5681,2.5463,2.536,2.4794,2.4379,2.4419,2.3798,2.3768,2.3671,2.3631,2.3644,2.3671,2.3831,2.3685,2.3365,2.3326,2.2911,2.1759,2.0849,1.9885,1.9382,1.8947,1.8706,1.8839,1.9092,1.9408,1.9781,2.0137,2.0388,2.041,2.0342,2.0136,1.9682,1.9398,1.9245,1.8976,1.8921,1.8932,1.8932,1.8907,1.8921,1.8947,1.8921,1.887,1.8311,1.7699,1.6848,1.6023,1.6053,1.613,1.6317,1.6457,1.6586,1.6757,1.6958,1.7128,1.7536,1.8013,1.8622,4.246,4.2317,4.2349,4.2142,4.1802,4.1538,4.1239,4.0935,4.0713,4.0576,4.0505,4.0418,4.0383,4.0366,4.0261,4.0407,4.0715,4.1173,4.1717,4.2459,4.3473,4.3557,4.3027,4.2633,4.2253,4.1705,4.0757,3.9872,3.9011,3.7856,3.7149,3.664,3.5899,3.5435,3.5195,3.4398,3.3804,3.3688,3.3286,3.3055,3.3125,3.3241,3.2926,3.25,3.2103,3.1782,3.1307,3.0837,3.0047,2.9025,2.8428,2.813,2.7988,2.7379,2.7063,2.7125,2.6944,2.6897,2.6612,2.6205,2.5888,2.5674,2.5314,2.5104,2.4937,2.4934,2.4905,2.4824,2.5022,2.4981,2.4851,2.4784,2.4269,2.3325,2.19,2.0683,1.9741,1.9211,1.9025,1.9092,1.9263,1.9611,2.0099,2.0569,2.0848,2.102,2.1054,2.0656,2.0206,1.998,1.9717,1.9423,1.9196,1.9184,1.9184,1.9159,1.9198,1.9225,1.9277,1.9225,1.876,1.8099,1.7291,1.6617,1.6431,1.6358,1.6573,1.681,1.7008,1.7196,1.7427,1.7627,1.794,1.8489,1.9137,4.3133,4.2902,4.3068,4.2773,4.2238,4.1996,4.1604,4.1138,4.0884,4.0679,4.0555,4.0582,4.0687,4.0612,4.087,4.1105,4.1673,4.1889,4.2648,4.3464,4.4237,4.4323,4.4125,4.3907,4.3452,4.2848,4.2425,4.1478,4.0427,3.9362,3.8416,3.7743,3.6986,3.6328,3.5872,3.5135,3.4566,3.4133,3.3615,3.3318,3.3287,3.3262,3.3073,3.2779,3.2774,3.2593,3.2234,3.1885,3.1317,3.0236,2.9596,2.931,2.9331,2.8725,2.8403,2.8311,2.8333,2.8241,2.7787,2.7547,2.727,2.6736,2.6287,2.5868,2.6073,2.611,2.6065,2.6092,2.606,2.6345,2.6282,2.6198,2.5649,2.4869,2.3905,2.2367,2.0753,1.9868,1.962,1.9633,1.9776,2.0184,2.0644,2.1056,2.1341,2.1906,2.1899,2.1677,2.1146,2.0721,2.0282,1.9791,1.9595,1.9434,1.9434,1.9421,1.9486,1.9526,1.963,1.9581,1.9271,1.8635,1.7902,1.7336,1.6984,1.6852,1.6934,1.7165,1.7403,1.7567,1.773,1.7861,1.8081,1.8823,1.9499,4.4727,4.4571,4.3813,4.325,4.2836,4.2285,4.1768,4.124,4.0919,4.0712,4.068,4.1091,4.1322,4.1401,4.1832,4.2245,4.2448,4.2897,4.3636,4.4298,4.4483,4.4572,4.4515,4.4438,4.4266,4.3781,4.3149,4.2517,4.176,4.0812,3.9727,3.871,3.8245,3.7714,3.6908,3.6226,3.5723,3.5125,3.4479,3.3839,3.3389,3.3347,3.336,3.3325,3.3422,3.3387,3.3167,3.2884,3.2676,3.2356,3.1518,3.0516,2.971,2.9307,2.8984,2.8707,2.8816,2.8964,2.8969,2.8836,2.8898,2.8632,2.8187,2.8327,2.8313,2.8076,2.8128,2.8265,2.8374,2.7999,2.7714,2.6845,2.6471,2.6038,2.5291,2.4278,2.3052,2.1797,2.1134,2.1056,2.1246,2.1576,2.1854,2.2405,2.2653,2.2816,2.2803,2.2741,2.2181,2.15,2.0906,2.0342,1.9974,1.9824,1.9875,1.9901,1.9952,2.0016,2.0093,1.999,1.9681,1.9192,1.8463,1.7891,1.7417,1.7356,1.7344,1.755,1.7784,1.7915,1.8022,1.8121,1.8394,1.9135,1.96,4.5777,4.5654,4.5107,4.444,4.3715,4.312,4.2332,4.1503,4.107,4.0966,4.1098,4.1463,4.1755,4.2078,4.2463,4.2725,4.3171,4.3759,4.4237,4.4545,4.4591,4.4591,4.4591,4.4591,4.4515,4.4358,4.4006,4.3541,4.2994,4.2137,4.1034,3.9809,3.9281,3.852,3.7749,3.7146,3.6487,3.5837,3.515,3.4429,3.378,3.3664,3.3871,3.4114,3.4201,3.4153,3.4181,3.3877,3.3823,3.3616,3.2904,3.1734,3.0535,3.0043,2.9692,2.9485,2.9375,2.9439,2.9487,2.9446,2.926,2.9092,2.8954,2.8773,2.8554,2.841,2.8531,2.8668,2.8678,2.8605,2.8713,2.8355,2.7783,2.757,2.6921,2.6141,2.5201,2.3658,2.2294,2.2139,2.2174,2.2519,2.2945,2.3438,2.3759,2.3809,2.386,2.3741,2.2791,2.2122,2.1535,2.0979,2.0463,2.0258,2.0308,2.0384,2.0497,2.0572,2.066,2.046,2.0152,1.9634,1.905,1.8502,1.7967,1.7725,1.773,1.7955,1.8089,1.8155,1.823,1.8329,1.8573,1.9062,1.9408,4.6623,4.6471,4.6356,4.5617,4.461,4.3894,4.2879,4.1808,4.136,4.1341,4.1654,4.1755,4.2355,4.2694,4.294,4.3282,4.3759,4.4206,4.456,4.4575,4.4591,4.4591,4.4591,4.4591,4.4591,4.4591,4.4476,4.4266,4.388,4.33,4.2316,4.1194,4.0284,3.9549,3.8654,3.7926,3.727,3.6454,3.5819,3.5001,3.4294,3.4165,3.4404,3.4802,3.4946,3.4996,3.5033,3.4819,3.4644,3.4613,3.3951,3.295,3.189,3.0982,3.0461,3.0402,3.0195,3.0068,2.9793,2.9632,2.932,2.8426,2.8418,2.8325,2.7942,2.7826,2.7962,2.8126,2.8277,2.8399,2.9052,2.8774,2.8858,2.8812,2.829,2.7723,2.6819,2.5151,2.3981,2.3133,2.3309,2.366,2.3877,2.4229,2.4528,2.4772,2.4811,2.4552,2.3608,2.2844,2.2298,2.1691,2.1192,2.0774,2.0784,2.0833,2.0931,2.0963,2.1101,2.0785,2.0454,1.9773,1.9203,1.8984,1.8578,1.8249,1.8042,1.8175,1.8274,1.8338,1.8417,1.8509,1.873,1.8991,1.9226,4.7548,4.7313,4.6602,4.5821,4.4996,4.3945,4.3051,4.2287,4.1877,4.1658,4.1806,4.2758,4.322,4.3528,4.4052,4.4329,4.4375,4.4529,4.4591,4.4591,4.4591,4.4591,4.4591,4.4591,4.4591,4.4591,4.4591,4.4515,4.4454,4.4148,4.3343,4.2557,4.1731,4.0861,3.998,3.9336,3.8332,3.7242,3.6657,3.5901,3.4961,3.4656,3.4841,3.5333,3.5555,3.5763,3.5828,3.5569,3.5322,3.526,3.4675,3.3936,3.3044,3.1965,3.1136,3.0742,3.0748,3.0662,3.031,2.9966,2.9595,2.9028,2.8475,2.8059,2.7847,2.779,2.7844,2.7928,2.7998,2.8012,2.8027,2.8251,2.8141,2.8041,2.7968,2.7529,2.6814,2.6172,2.5423,2.4529,2.4612,2.4695,2.4778,2.4874,2.5094,2.5217,2.5189,2.4997,2.4327,2.3687,2.3171,2.2564,2.1936,2.1573,2.129,2.13,2.1348,2.1283,2.1255,2.0929,2.0477,1.9769,1.9307,1.8989,1.8714,1.8374,1.8303,1.8401,1.8503,1.8591,1.8639,1.8687,1.8849,1.9001,1.9092,4.8135,4.8008,4.7423,4.6644,4.575,4.48,4.3794,4.2942,4.2507,4.2443,4.2767,4.3331,4.3805,4.4113,4.4406,4.4591,4.4591,4.4591,4.4591,4.4591,4.4591,4.4591,4.461,4.461,4.4591,4.4591,4.4591,4.461,4.4591,4.4496,4.3991,4.3255,4.2681,4.1943,4.093,4.0363,3.9422,3.8292,3.7537,3.6803,3.5723,3.546,3.5527,3.5769,3.6053,3.6273,3.629,3.6199,3.6014,3.5891,3.5368,3.489,3.4198,3.3244,3.2121,3.1555,3.1294,3.1061,3.0647,3.0169,2.9508,2.8857,2.842,2.8115,2.7904,2.7819,2.7946,2.8156,2.8255,2.8269,2.8339,2.7959,2.7833,2.7805,2.7763,2.7396,2.6932,2.6736,2.6175,2.5522,2.5356,2.5301,2.537,2.5494,2.566,2.5661,2.5591,2.5287,2.4899,2.425,2.3631,2.2739,2.2062,2.1924,2.1664,2.1688,2.17,2.1631,2.1285,2.0962,2.0489,1.9793,1.9251,1.8853,1.8599,1.8489,1.8533,1.862,1.8731,1.8836,1.8889,1.8931,1.8922,1.8989,1.9094,4.8371,4.826,4.8001,4.7292,4.6286,4.5498,4.4526,4.3572,4.312,4.3164,4.3578,4.3759,4.4113,4.4468,4.4575,4.4625,4.4648,4.4667,4.4685,4.4758,4.4742,4.4723,4.4704,4.472,4.4758,4.4795,4.4776,4.4682,4.4591,4.4572,4.4173,4.3741,4.3485,4.2848,4.18,4.1261,4.0411,3.946,3.8457,3.7644,3.681,3.6193,3.5926,3.6053,3.6227,3.6305,3.632,3.6337,3.6368,3.6276,3.5999,3.5614,3.5337,3.4444,3.346,3.2661,3.1886,3.139,3.0998,3.0549,2.9929,2.9262,2.8992,2.8655,2.8339,2.824,2.8142,2.8465,2.8465,2.8409,2.8255,2.7917,2.7622,2.7509,2.7397,2.72,2.6736,2.6456,2.6301,2.5924,2.5826,2.5743,2.5715,2.5729,2.5798,2.5812,2.5743,2.5603,2.5171,2.4362,2.3624,2.2648,2.2066,2.2066,2.1983,2.202,2.202,2.1976,2.1377,2.0789,2.0337,1.9798,1.9303,1.8824,1.8845,1.8765,1.8812,1.887,1.9021,1.911,1.9157,1.9208,1.9282,1.9208,1.9198,4.7951,4.7522,4.7488,4.6915,4.6008,4.5183,4.447,4.3881,4.363,4.3519,4.3732,4.4194,4.4468,4.456,4.461,4.4704,4.4799,4.4871,4.4927,4.5036,4.5055,4.5055,4.5092,4.5126,4.5055,4.5036,4.5074,4.4905,4.4739,4.4648,4.456,4.4291,4.3857,4.3396,4.2956,4.2063,4.1131,4.0328,3.9501,3.8287,3.6869,3.6013,3.5694,3.5591,3.5705,3.5895,3.6084,3.6195,3.632,3.6476,3.6415,3.6076,3.5583,3.5399,3.4505,3.3537,3.2679,3.2123,3.1771,3.1256,3.0763,3.0147,2.9942,2.9664,2.9397,2.8929,2.8564,2.7876,2.7973,2.8072,2.803,2.7411,2.7074,2.6891,2.6793,2.6497,2.616,2.6259,2.6076,2.6034,2.5853,2.5852,2.5852,2.588,2.5893,2.5907,2.5879,2.5724,2.5288,2.4392,2.3706,2.2756,2.2154,2.2112,2.2135,2.2196,2.2266,2.224,2.1592,2.0837,2.0449,2.0022,1.9295,1.8946,1.8997,1.9115,1.9204,1.9278,1.9356,1.9439,1.9545,1.963,1.969,1.957,1.9408,4.7066,4.6946,4.6809,4.6426,4.5791,4.5218,4.4794,4.4493,4.4253,4.416,4.4206,4.4437,4.4591,4.461,4.4704,4.4799,4.4911,4.5021,4.5111,4.5204,4.5238,4.522,4.5201,4.5201,4.5201,4.5222,4.5185,4.5129,4.4927,4.4799,4.4723,4.4564,4.4317,4.3985,4.38,4.2811,4.2063,4.1193,4.0081,3.858,3.7182,3.6296,3.5769,3.5331,3.5366,3.5559,3.58,3.6005,3.6226,3.6429,3.6492,3.6384,3.603,3.5691,3.5013,3.4166,3.3366,3.2715,3.214,3.1683,3.1293,3.0953,3.0673,3.058,3.0483,3.0096,2.9645,2.939,2.869,2.8367,2.8227,2.7734,2.7481,2.7186,2.6778,2.6568,2.6329,2.5977,2.5935,2.5921,2.5907,2.5907,2.5907,2.5907,2.5907,2.5907,2.5823,2.5654,2.5007,2.4053,2.3464,2.2945,2.2467,2.217,2.2219,2.2254,2.2394,2.2354,2.2001,2.1316,2.0874,2.0329,1.9638,1.9302,1.9367,1.9473,1.9593,1.9639,1.9669,1.98,1.994,1.9995,2.0039,1.995,1.975,4.6177,4.6159,4.6108,4.5857,4.5494,4.5213,4.499,4.4818,4.4651,4.4575,4.4591,4.4591,4.4591,4.4648,4.478,4.4911,4.5017,4.5167,4.5331,4.5386,4.5423,4.5481,4.5554,4.5536,4.5499,4.5407,4.5515,4.5405,4.5241,4.5129,4.4983,4.4758,4.4752,4.4573,4.4152,4.3521,4.2796,4.1769,4.0223,3.867,3.7298,3.6473,3.5746,3.5259,3.51,3.5265,3.5591,3.5894,3.6163,3.6429,3.6492,3.6461,3.6353,3.603,3.5506,3.4782,3.4074,3.334,3.2727,3.2199,3.1719,3.1471,3.1305,3.1377,3.145,3.111,3.0729,3.0508,2.9837,2.9287,2.8904,2.8412,2.8114,2.7819,2.7453,2.7228,2.6961,2.6554,2.6259,2.6217,2.616,2.5907,2.5907,2.5907,2.5907,2.5907,2.578,2.5584,2.4937,2.4094,2.3742,2.3405,2.2871,2.2559,2.2524,2.2553,2.2608,2.2543,2.2206,2.1757,2.1279,2.0749,2.0147,1.9925,1.9764,1.9909,2.0061,2.0028,2.0013,2.0168,2.0304,2.0339,2.0337,2.0275,2.0293,4.5518,4.5027,4.5416,4.5358,4.4971,4.493,4.4799,4.4648,4.461,4.4591,4.4591,4.4591,4.4591,4.4648,4.4833,4.5021,4.5167,4.5405,4.5725,4.5943,4.604,4.6137,4.6189,4.6223,4.6146,4.5972,4.5934,4.5737,4.5573,4.5536,4.5352,4.5167,4.5111,4.5133,4.4842,4.4252,4.3183,4.2006,4.0454,3.8935,3.7549,3.6473,3.5458,3.4777,3.47,3.4951,3.5415,3.5799,3.6147,3.6476,3.6492,3.6492,3.6461,3.6353,3.5922,3.5275,3.4767,3.4061,3.3423,3.2795,3.2552,3.2347,3.2108,3.1934,3.1958,3.194,3.1611,3.1067,3.0475,3.0138,2.9636,2.9148,2.8795,2.8509,2.8186,2.7833,2.7509,2.7088,2.6807,2.6638,2.6413,2.616,2.5907,2.5907,2.5907,2.5907,2.5893,2.5697,2.5387,2.4711,2.443,2.4036,2.3377,2.3051,2.2977,2.2947,2.2821,2.2839,2.2695,2.217,2.1624,2.1097,2.0785,2.0213,2.0015,2.0278,2.0457,2.0381,2.0375,2.0543,2.0634,2.0577,2.0722,2.0796,2.093,4.5612,4.5129,4.5395,4.5191,4.4704,4.4704,4.4667,4.461,4.4591,4.4591,4.4591,4.4591,4.4591,4.4685,4.4927,4.5111,4.5257,4.568,4.6169,4.6603,4.6807,4.6915,4.6987,4.6925,4.6726,4.6384,4.6255,4.6189,4.6028,4.6018,4.5956,4.5812,4.5494,4.5334,4.5133,4.4777,4.367,4.2443,4.1198,3.9937,3.7961,3.7026,3.5959,3.4704,3.4733,3.5019,3.5398,3.5768,3.6147,3.6398,3.6492,3.6492,3.6492,3.6492,3.6184,3.566,3.5214,3.4736,3.3999,3.3214,3.2455,3.2393,3.2221,3.2186,3.2378,3.2022,3.1671,3.1279,3.099,3.0611,3.0143,2.9777,2.9514,2.9251,2.8921,2.8494,2.8128,2.7706,2.7326,2.7158,2.675,2.6371,2.6132,2.5907,2.5907,2.5907,2.5865,2.5795,2.5513,2.5301,2.5018,2.4591,2.3941,2.3481,2.339,2.3194,2.2992,2.3087,2.3169,2.2733,2.2254,2.1998,2.1607,2.0902,2.0309,2.0493,2.0604,2.0642,2.0685,2.0711,2.0727,2.0712,2.0928,2.1262,2.1581,4.5959,4.5557,4.5614,4.5287,4.4723,4.4685,4.4648,4.4591,4.4591,4.4629,4.4685,4.4685,4.4739,4.4867,4.5126,4.5481,4.5739,4.62,4.6855,4.734,4.7707,4.78,4.7854,4.7824,4.768,4.7127,4.7027,4.7089,4.7061,4.6761,4.6644,4.6418,4.5959,4.5735,4.5582,4.5102,4.428,4.3291,4.2083,4.0967,3.8872,3.7901,3.6869,3.5545,3.5422,3.5429,3.5666,3.5942,3.6195,3.6414,3.6492,3.6492,3.6492,3.643,3.6245,3.5922,3.5552,3.526,3.4584,3.3716,3.2859,3.2976,3.2795,3.2893,3.2855,3.2509,3.2319,3.2141,3.1583,3.0936,3.0625,3.0239,2.9982,2.9688,2.9329,2.8942,2.8759,2.8407,2.8001,2.765,2.7158,2.6582,2.6357,2.6104,2.5907,2.5907,2.5907,2.5879,2.5808,2.5624,2.5508,2.5052,2.4464,2.4085,2.3769,2.354,2.3371,2.3541,2.3581,2.3391,2.3038,2.2755,2.2192,2.1338,2.0874,2.0775,2.0727,2.074,2.076,2.0802,2.0834,2.089,2.1484,2.186,2.2281,4.6495,4.6268,4.6108,4.5619,4.5042,4.4911,4.4818,4.4742,4.4685,4.4776,4.4893,4.4893,4.4983,4.5148,4.5349,4.5739,4.6309,4.6803,4.751,4.8251,4.8629,4.8796,4.8887,4.8873,4.8653,4.8744,4.8466,4.8246,4.8295,4.7736,4.7475,4.7107,4.6598,4.6189,4.6198,4.561,4.5085,4.4529,4.2982,4.1658,4.0207,3.9048,3.7914,3.6798,3.6485,3.6457,3.6213,3.6299,3.6489,3.6476,3.6492,3.6492,3.6492,3.6492,3.643,3.6384,3.586,3.5583,3.5399,3.4604,3.418,3.3848,3.3547,3.3682,3.4054,3.3798,3.3139,3.2824,3.2422,3.1738,3.1175,3.0613,3.0357,3.0068,2.971,2.9379,2.9182,2.9055,2.8605,2.817,2.7439,2.6807,2.6568,2.6329,2.6019,2.5907,2.5907,2.5921,2.5934,2.5985,2.5909,2.5726,2.5198,2.4838,2.4485,2.3935,2.3763,2.3953,2.3983,2.3809,2.36,2.3309,2.2617,2.1759,2.1564,2.1547,2.1171,2.0799,2.1182,2.1543,2.1131,2.1227,2.1864,2.2511,2.2999,4.7405,4.705,4.7187,4.683,4.6145,4.5672,4.5468,4.5376,4.5265,4.517,4.5077,4.5077,4.5111,4.5257,4.5486,4.5895,4.6557,4.7127,4.7883,4.9109,4.9501,4.9667,4.9724,4.9675,4.9477,4.9052,4.8919,4.9014,4.88,4.8518,4.8167,4.775,4.713,4.6593,4.6337,4.598,4.5716,4.5115,4.4152,4.3031,4.1239,4.035,3.9302,3.7832,3.776,3.7444,3.6881,3.6964,3.6828,3.6599,3.6553,3.6492,3.6492,3.6492,3.6492,3.6492,3.6184,3.6184,3.6138,3.5738,3.5262,3.4712,3.4317,3.4288,3.4258,3.4046,3.3653,3.3351,3.3065,3.236,3.1616,3.1073,3.0747,3.0402,3.0071,2.9703,2.948,2.9407,2.9153,2.8718,2.8085,2.7326,2.6891,2.6539,2.6215,2.6098,2.6111,2.607,2.6069,2.6285,2.6331,2.6353,2.6068,2.568,2.5242,2.4709,2.4288,2.4296,2.4333,2.4227,2.4016,2.3803,2.3288,2.2533,2.2417,2.2308,2.1995,2.1814,2.2203,2.2352,2.2034,2.1869,2.2352,2.3132,2.3879,4.8258,4.7983,4.8096,4.7918,4.7355,4.6515,4.6052,4.5853,4.5653,4.5505,4.5423,4.5349,4.5405,4.5515,4.5691,4.6389,4.7146,4.7677,4.8668,4.9879,5.0322,5.0434,5.0487,5.0438,5.0293,4.9807,4.974,4.9821,4.9851,4.953,4.901,4.8329,4.7636,4.7269,4.6933,4.6673,4.6285,4.5729,4.5021,4.4204,4.2824,4.1764,4.073,3.9628,3.9005,3.8557,3.7938,3.7552,3.7307,3.6907,3.6645,3.6522,3.6507,3.6492,3.6492,3.6492,3.6492,3.6492,3.643,3.643,3.5891,3.5399,3.5078,3.5017,3.491,3.4805,3.4469,3.4103,3.3646,3.3026,3.2368,3.181,3.1294,3.0996,3.0401,3.0051,2.9806,2.9718,2.9552,2.913,2.8634,2.7903,2.7186,2.6778,2.6397,2.6349,2.6326,2.6312,2.6338,2.659,2.6824,2.6883,2.6805,2.6438,2.5993,2.5498,2.5096,2.4744,2.4612,2.4531,2.4464,2.4247,2.3772,2.3399,2.3258,2.3094,2.2912,2.2916,2.3025,2.3127,2.3072,2.2989,2.3026,2.3648,2.4489,4.8983,4.8986,4.8813,4.8718,4.8497,4.7422,4.6637,4.609,4.5877,4.5817,4.5807,4.5625,4.5698,4.6022,4.6076,4.6898,4.8086,4.8533,4.952,5.0448,5.0879,5.1035,5.1089,5.1056,5.0878,5.1024,5.0991,5.0716,5.1024,5.0244,4.9546,4.9044,4.8348,4.7939,4.7614,4.7273,4.6817,4.634,4.5796,4.5072,4.4112,4.3097,4.1993,4.0977,4.0234,3.9497,3.8795,3.822,3.7755,3.7307,3.6923,3.6661,3.6522,3.6492,3.6492,3.6492,3.6492,3.6492,3.6492,3.6492,3.6461,3.6138,3.6245,3.6399,3.6184,3.5661,3.5293,3.4985,3.4633,3.399,3.3354,3.2716,3.2093,3.1486,3.0761,3.0431,3.0143,2.996,2.979,2.9417,2.8961,2.8298,2.7582,2.7074,2.6942,2.6859,2.6857,2.6893,2.6943,2.7135,2.735,2.7482,2.7364,2.7153,2.6716,2.6226,2.555,2.5055,2.4854,2.4748,2.4712,2.4697,2.4387,2.4123,2.4032,2.3904,2.3842,2.369,2.3565,2.3699,2.4053,2.3906,2.388,2.4195,2.4858,4.8965,4.935,4.9411,4.9273,4.8998,4.8561,4.7918,4.7219,4.6877,4.6597,4.6157,4.6006,4.5988,4.6078,4.6128,4.7132,4.8034,4.8854,4.9719,5.0491,5.1075,5.1167,5.1202,5.1202,5.1202,5.1202,5.1202,5.1186,5.1024,5.0471,5.0131,4.9691,4.8963,4.851,4.8089,4.7767,4.7278,4.6837,4.6326,4.5844,4.5154,4.4089,4.3041,4.2108,4.1165,4.0345,3.9576,3.9069,3.8509,3.7614,3.7369,3.7076,3.6507,3.6492,3.6492,3.6492,3.6492,3.6492,3.6492,3.6492,3.6492,3.6492,3.6492,3.6492,3.6415,3.6261,3.5953,3.5645,3.5414,3.4831,3.4159,3.3512,3.2868,3.2168,3.1457,3.0938,3.0624,3.0249,3.0052,2.974,2.9282,2.8961,2.8195,2.7783,2.766,2.7513,2.7443,2.7494,2.7545,2.773,2.7864,2.7991,2.8156,2.7988,2.74,2.6883,2.606,2.5403,2.5169,2.5005,2.4965,2.4949,2.49,2.4792,2.4629,2.4723,2.4875,2.4708,2.4481,2.4912,2.5235,2.4953,2.4778,2.4998,2.5139,4.9085,4.9661,4.9769,4.9713,4.9503,4.9352,4.8892,4.8259,4.7671,4.7099,4.6635,4.6314,4.6223,4.6312,4.6395,4.7029,4.822,4.8748,4.9512,5.0324,5.0981,5.1151,5.1202,5.117,5.1202,5.1202,5.1186,5.1202,5.1072,5.0859,5.0536,5.0422,4.9578,4.8866,4.8348,4.7781,4.7265,4.6971,4.6674,4.6342,4.572,4.4922,4.4011,4.3038,4.2073,4.1098,4.0325,3.9905,3.9031,3.8199,3.8015,3.7353,3.683,3.6692,3.6507,3.6492,3.6492,3.6492,3.6492,3.6492,3.6492,3.6492,3.6492,3.6492,3.6492,3.6399,3.6215,3.6014,3.5891,3.563,3.4955,3.4269,3.3602,3.2924,3.2226,3.1516,3.1057,3.0611,3.0327,3.0042,2.9769,2.9559,2.916,2.8725,2.8379,2.8259,2.8214,2.8263,2.8271,2.831,2.8403,2.8492,2.8775,2.8905,2.8205,2.7508,2.6869,2.6124,2.5468,2.5326,2.5268,2.5183,2.5119,2.5136,2.5153,2.5259,2.5359,2.557,2.5569,2.5874,2.5956,2.57,2.543,2.5391,2.5524,4.9203,4.9996,4.9996,4.9982,4.9964,4.9769,4.9486,4.9107,4.8162,4.7538,4.7132,4.6597,4.6421,4.6511,4.6561,4.7084,4.7965,4.8553,4.9087,5.0031,5.0665,5.0878,5.0781,5.104,5.0781,5.0959,5.1072,5.0991,5.117,5.104,5.0943,5.104,4.9872,4.9012,4.851,4.7783,4.725,4.6941,4.6842,4.6658,4.6324,4.5685,4.4887,4.3977,4.2855,4.1724,4.1045,4.0331,3.9553,3.9076,3.8568,3.7815,3.7277,3.683,3.6584,3.6492,3.6492,3.6492,3.6492,3.6492,3.6492,3.6492,3.6492,3.6492,3.6492,3.6492,3.6353,3.6322,3.6199,3.6076,3.5523,3.5032,3.4437,3.386,3.3243,3.2645,3.2169,3.1574,3.0921,3.0669,3.0451,3.0265,3.0192,2.9789,2.9637,2.9284,2.9141,2.9196,2.9055,2.9037,2.8944,2.8998,2.921,2.9298,2.8678,2.8056,2.7713,2.7033,2.6154,2.581,2.5875,2.5633,2.5323,2.5375,2.5444,2.5596,2.5721,2.5928,2.6091,2.618,2.6242,2.6259,2.6119,2.5943,2.5804,4.8772,4.9993,4.9996,4.9996,4.9996,4.995,4.9654,4.9168,4.8528,4.7902,4.7337,4.6808,4.6563,4.6633,4.6633,4.7108,4.7845,4.8219,4.8656,4.9303,5.0034,5.0131,4.9839,5.0163,5.0066,4.9872,5.005,5.0665,5.0876,5.0991,5.0878,5.0374,4.9645,4.9208,4.8364,4.7637,4.7346,4.6942,4.6893,4.6807,4.6554,4.5847,4.5015,4.426,4.3279,4.2214,4.1498,4.0823,4.0066,3.9461,3.9261,3.8522,3.7569,3.6892,3.6569,3.6492,3.6522,3.6492,3.6492,3.6492,3.6492,3.6492,3.6492,3.6492,3.6492,3.6492,3.6492,3.6492,3.6445,3.6338,3.6168,3.5707,3.5262,3.4742,3.4254,3.3771,3.3275,3.2467,3.1664,3.1383,3.1161,3.1071,3.1035,3.0964,3.0834,3.066,3.0456,3.0301,3.0,2.984,2.9506,2.9514,2.9608,2.9518,2.8968,2.8586,2.8253,2.764,2.6774,2.6545,2.6436,2.5992,2.557,2.5617,2.5701,2.5875,2.6075,2.6313,2.6444,2.6512,2.6547,2.6572,2.653,2.6375,2.6173,4.8582,4.9927,4.9996,4.9996,4.9996,4.9903,4.9624,4.9153,4.8575,4.8016,4.7488,4.7014,4.6738,4.6738,4.6738,4.6902,4.7589,4.7879,4.8202,4.8688,4.9157,4.9319,4.9335,4.9368,4.9368,4.9238,4.9758,5.0276,5.0374,5.0519,5.0325,4.9677,4.937,4.8835,4.7945,4.7718,4.7346,4.6926,4.691,4.6842,4.6686,4.6091,4.55,4.4775,4.3748,4.2679,4.1828,4.1169,4.0519,3.9925,3.963,3.8968,3.8092,3.7384,3.7046,3.6861,3.6722,3.6492,3.6492,3.6492,3.6492,3.6492,3.6492,3.6492,3.6492,3.6492,3.6492,3.6492,3.6492,3.6399,3.6384,3.6061,3.5691,3.5231,3.494,3.4559,3.3951,3.321,3.2614,3.2271,3.2028,3.1807,3.1796,3.1862,3.1722,3.1486,3.1352,3.0939,3.0707,3.0524,3.0213,2.9921,2.9939,2.9886,2.9518,2.9119,2.8752,2.809,2.747,2.687,2.6505,2.6115,2.5834,2.5968,2.6101,2.6209,2.6427,2.6649,2.6767,2.6833,2.6858,2.6891,2.6833,2.6775,2.6615,4.8444,4.9769,4.9959,4.9996,4.9982,4.983,4.953,4.909,4.8513,4.8016,4.7621,4.7115,4.6944,4.6893,4.6893,4.6893,4.7072,4.7459,4.7783,4.8008,4.8558,4.8526,4.8591,4.8769,4.8753,4.8931,4.9337,4.9335,4.9303,4.9611,4.9578,4.8882,4.8397,4.7945,4.7702,4.7347,4.691,4.691,4.6893,4.6893,4.6738,4.6527,4.5984,4.5164,4.4137,4.3061,4.2211,4.1398,4.0821,4.0298,3.983,3.9261,3.8677,3.8015,3.7584,3.7338,3.6999,3.6722,3.6538,3.6492,3.6492,3.6492,3.6492,3.6492,3.6492,3.6492,3.6492,3.6492,3.6492,3.6507,3.6492,3.6399,3.6045,3.5829,3.5583,3.5367,3.469,3.3999,3.3546,3.3127,3.2767,3.2504,3.2492,3.2557,3.2485,3.2254,3.1965,3.148,3.111,3.0993,3.0774,3.0344,3.0082,2.9984,2.9843,2.9637,2.9274,2.9072,2.8466,2.7436,2.6632,2.6496,2.6416,2.6435,2.6547,2.6674,2.6758,2.6923,2.7046,2.7103,2.7128,2.7128,2.7079,2.7015,2.7015,4.7669,4.9082,4.9703,4.9962,4.9962,4.9915,4.9609,4.9015,4.8575,4.8048,4.7588,4.715,4.6893,4.6911,4.6893,4.6893,4.6942,4.7217,4.7119,4.7216,4.788,4.7734,4.7702,4.8042,4.8154,4.835,4.8512,4.8591,4.8591,4.8931,4.8866,4.8204,4.8138,4.7686,4.7153,4.6893,4.6893,4.6893,4.6893,4.6893,4.679,4.6563,4.6319,4.5449,4.4355,4.3568,4.2696,4.1522,4.0883,4.0358,3.9936,3.9568,3.9168,3.8676,3.8199,3.7845,3.7492,3.7061,3.6876,3.6692,3.6661,3.6492,3.6492,3.6492,3.6492,3.6492,3.6492,3.6492,3.6507,3.6507,3.6523,3.6507,3.6276,3.6322,3.6214,3.6057,3.5651,3.495,3.4362,3.3763,3.3186,3.3014,3.2879,3.2958,3.3062,3.2929,3.3057,3.2522,3.1686,3.1489,3.1342,3.08,3.0302,3.0071,2.9935,3.0044,2.9809,2.9741,2.9487,2.8555,2.7763,2.7156,2.7062,2.7171,2.7102,2.7141,2.7227,2.7214,2.7263,2.7327,2.7337,2.7329,2.7297,2.7241,2.7209]}]]